[[{"header":{"parameterUnit":"m.s-1","parameterCategory":1,"la1":31.0,"la2":29.5877,"lo1":-88.7671,"lo2":-86.6584,"dy":0.0162,"dx":0.0185,"nx":115,"ny":88,"refTime":"2023-05-24T18:00:00:Z","depth":0,"parameterNumber":2,"parameterNumberName":"U-component_of_WINDS"},"data":[0.0,0.0,0.0,0.0,0.0,0.0,0.0,0.0,0.0,0.0,0.0,0.0,0.0,0.0,0.0,0.0,0.0,0.0,0.0,0.0,0.0,0.0,0.0,0.0,0.0,0.0,0.0,0.0,0.0,0.0,0.0,0.0,0.0,0.0,0.0,0.0,0.0,0.0,0.0,0.0,0.0,0.0,0.0,0.0,0.0,0.0,0.0,0.0,0.0,0.0,0.0,0.0,0.0,0.0,0.0,0.0,0.0,0.0,0.0,0.0,0.0,0.0,0.0,0.0,0.0,0.0,0.0,0.0,0.0,0.0,0.0,0.0,0.0,0.0,0.0,0.0,0.0,0.0,0.0,0.0,0.0,0.0,0.0,0.0,0.0,0.0,0.0,0.0,0.0,0.0,0.0,0.0,0.0,0.0,0.0,0.0,0.0,0.0,0.0,0.0,0.0,0.0,0.0,0.0,0.0,0.0,0.0,0.0,0.0,0.0,0.0,0.0,0.0,0.0,0.0,0.0,0.0,0.0,0.0,0.0,0.0,0.0,0.0,0.0,0.0,0.0,0.0,0.0,0.0,0.0,0.0,0.0,0.0,0.0,0.0,0.0,0.0,0.0,0.0,0.0,0.0,0.0,0.0,0.0,0.0,0.0,0.0,0.0,0.0,0.0,0.0,0.0,0.0,0.0,0.0,0.0,0.0,0.0,0.0,0.0,0.0,0.0,0.0,0.0,0.0,0.0,0.0,0.0,0.0,0.0,0.0,0.0,0.0,0.0,0.0,0.0,0.0,0.0,0.0,0.0,0.0,0.0,0.0,0.0,0.0,0.0,0.0,0.0,0.0,0.0,0.0,0.0,0.0,0.0,0.0,0.0,0.0,0.0,0.0,0.0,0.0,0.0,0.0,0.0,0.0,0.0,0.0,0.0,0.0,0.0,0.0,0.0,0.0,0.0,0.0,0.0,0.0,0.0,0.0,0.0,0.0,0.0,0.0,0.0,0.0,0.0,0.0,0.0,0.0,0.0,0.0,0.0,0.0,0.0,0.0,0.0,0.0,0.0,0.0,0.0,0.0,0.0,0.0,0.0,0.0,0.0,0.0,0.0,0.0,0.0,0.0,0.0,0.0,0.0,0.0,0.0,0.0,0.0,0.0,0.0,0.0,0.0,0.0,0.0,0.0,0.0,0.0,0.0,0.0,0.0,0.0,0.0,0.0,0.0,0.0,0.0,0.0,0.0,0.0,0.0,0.0,0.0,0.0,0.0,0.0,0.0,0.0,0.0,0.0,0.0,0.0,0.0,0.0,0.0,0.0,0.0,0.0,0.0,0.0,0.0,0.0,0.0,0.0,0.0,0.0,0.0,0.0,0.0,0.0,0.0,0.0,0.0,0.0,0.0,0.0,0.0,0.0,0.0,0.0,0.0,0.0,0.0,0.0,0.0,0.0,0.0,0.0,0.0,0.0,0.0,0.0,0.0,0.0,0.0,0.0,0.0,0.0,0.0,0.0,0.0,0.0,0.0,0.0,0.0,0.0,0.0,0.0,0.0,0.0,0.0,0.0,0.0,0.0,0.0,0.0,0.0,0.0,0.0,0.0,0.0,0.0,0.0,0.0,0.0,0.0,0.0,0.0,0.0,0.0,0.0,0.0,0.0,0.0,0.0,0.0,0.0,0.0,0.0,0.0,0.0,0.0,0.0,0.0,0.0,0.0,0.0,0.0,0.0,0.0,0.0,0.0,0.0,0.0,0.0,0.0,0.0,0.0,0.0,0.0,0.0,0.0,0.0,0.0,0.0,0.0,0.0,0.0,0.0,0.0,0.0,0.0,0.0,0.0,0.0,0.0,0.0,0.0,0.0,0.0,0.0,0.0,0.0,0.0,0.0,0.0,0.0,0.0,0.0,0.0,0.0,0.0,0.0,0.0,0.0,0.0,0.0,0.0,0.0,0.0,0.0,0.0,0.0,0.0,0.0,0.0,0.0,0.0,0.0,0.0,0.0,0.0,0.0,0.0,0.0,0.0,0.0,0.0,0.0,0.0,0.0,0.0,0.0,0.0,0.0,0.0,0.0,0.0,0.0,0.0,0.0,0.0,0.0,0.0,0.0,0.0,0.0,0.0,0.0,0.0,0.0,0.0,0.0,0.0,0.0,0.0,0.0,0.0,0.0,0.0,0.0,0.0,0.0,0.0,0.0,0.0,0.0,0.0,0.0,0.0,0.0,0.0,0.0,0.0,0.0,0.0,0.0,0.0,0.0,0.0,0.0,0.0,0.0,0.0,0.0,0.0,0.0,0.0,0.0,0.0,0.0,0.0,0.0,0.0,0.0,0.0,0.0,0.0,0.0,0.0,0.0,0.0,0.0,0.0,0.0,0.0,0.0,0.0,0.0,0.0,0.0,0.0,0.0,0.0,0.0,0.0,0.0,0.0,0.0,0.0,0.0,0.0,0.0,0.0,0.0,0.0,0.0,0.0,0.0,0.0,0.0,0.0,0.0,0.0,0.0,0.0,0.0,0.0,0.0,0.0,0.0,0.0,0.0,0.0,0.0,0.0,0.0,0.0,0.0,0.0,0.0,0.0,0.0,0.0,0.0,0.0,0.0,0.0,0.0,0.0,0.0,0.0,0.0,0.0,0.0,0.0,0.0,0.0,0.0,0.0,0.0,0.0,0.0,0.0,0.0,0.0,0.0,0.0,0.0,0.0,0.0,0.0,0.0,0.0,0.0,0.0,0.0,0.0,0.0,0.0,0.0,0.0,0.0,0.0,0.0,0.0,0.0,0.0,0.0,0.0,0.0,0.0,0.0,0.0,0.0,0.0,0.0,0.0,0.0,0.0,0.0,0.0,0.0,0.0,0.0,0.0,0.0,0.0,0.0,0.0,0.0,0.0,0.0,0.0,0.0,0.0,0.0,0.0,0.0,0.0,0.0,0.0,0.0,0.0,0.0,0.0,0.0,0.0,0.0,0.0,0.0,0.0,0.0,0.0,0.0,0.0,0.0,0.0,0.0,0.0,0.0,0.0,0.0,0.0,0.0,0.0,0.0,0.0,0.0,0.0,0.0,0.0,0.0,0.0,0.0,0.0,0.0,0.0,0.0,0.0,0.0,0.0,0.0,0.0,0.0,0.0,0.0,0.0,0.0,0.0,0.0,0.0,0.0,0.0,0.0,0.0,0.0,0.0,0.0,0.0,0.0,0.0,0.0,0.0,0.0,0.0,0.0,0.0,0.0,0.0,0.0,0.0,0.0,0.0,0.0,0.0,0.0,0.0,0.0,0.0,0.0,0.0,0.0,0.0,0.0,0.0,0.0,0.0,0.0,0.0,0.0,0.0,0.0,0.0,0.0,0.0,0.0,0.0,0.0,0.0,0.0,0.0,0.0,0.0,0.0,0.0,0.0,0.0,0.0,0.0,0.0,0.0,0.0,0.0,0.0,0.0,0.0,0.0,0.0,0.0,0.0,0.0,0.0,0.0,0.0,0.0,0.0,0.0,0.0,0.0,0.0,0.0,0.0,0.0,0.0,0.0,0.0,0.0,0.0,0.0,0.0,0.0,0.0,0.0,0.0,0.0,0.0,0.0,0.0,0.0,0.0,0.0,0.0,0.0,0.0,0.0,0.0,0.0,0.0,0.0,0.0,0.0,0.0,0.0,0.0,0.0,0.0,0.0,0.0,0.0,0.0,0.0,0.0,0.0,0.0,0.0,0.0,0.0,0.0,0.0,0.0,0.0,0.0,0.0,0.0,0.0,0.0,0.0,0.0,0.0,0.0,0.0,0.0,0.0,0.0,0.0,0.0,0.0,0.0,0.0,0.0,0.0,0.0,0.0,0.0,0.0,0.0,0.0,0.0,0.0,0.0,0.0,0.0,0.0,0.0,0.0,0.0,0.0,0.0,0.0,0.0,0.0,0.0,0.0,0.0,0.0,0.0,0.0,0.0,0.0,0.0,0.0,0.0,0.0,0.0,0.0,0.0,0.0,0.0,0.0,0.0,0.0,0.0,0.0,0.0,0.0,0.0,0.0,0.0,0.0,0.0,0.0,0.0,0.0,0.0,0.0,0.0,0.0,0.0,0.0,0.0,0.0,0.0,0.0,0.0,0.0,0.0,0.0,0.0,0.0,0.0,0.0,0.0,0.0,0.0,0.0,0.0,0.0,0.0,0.0,0.0,0.0,0.0,0.0,0.0,0.0,0.0,0.0,0.0,0.0,0.0,0.0,0.0,0.0,0.0,0.0,0.0,0.0,0.0,0.0,0.0,0.0,0.0,0.0,0.0,0.0,0.0,1.8265,0.0,0.0,0.0,0.0,0.0,0.0,0.0,0.0,0.0,0.0,0.0,0.0,0.0,0.0,0.0,0.0,0.0,0.0,0.0,0.0,0.0,0.0,0.0,0.0,0.0,0.0,0.0,0.0,0.0,0.0,0.0,0.0,0.0,0.0,0.0,0.0,0.0,0.0,0.0,0.0,0.0,0.0,0.0,0.0,0.0,0.0,0.0,0.0,0.0,0.0,0.0,0.0,0.0,0.0,0.0,0.0,0.0,0.0,0.0,0.0,0.0,0.0,0.0,0.0,0.0,0.0,0.0,0.0,0.0,0.0,0.0,0.0,0.0,0.0,0.0,0.0,0.0,0.0,0.0,0.0,0.0,0.0,0.0,0.0,0.0,0.0,0.0,0.0,0.0,0.0,0.0,0.0,0.0,0.0,0.0,0.0,0.0,0.0,0.0,0.0,0.0,0.0,0.0,0.0,0.0,0.0,0.0,0.0,0.0,0.0,1.9003,1.8973,1.899,1.8929,1.8797,0.0,0.0,0.0,0.0,0.0,0.0,0.0,0.0,0.0,0.0,0.0,0.0,0.0,0.0,0.0,0.0,0.0,0.0,0.0,0.0,0.0,0.0,0.0,0.0,0.0,0.0,0.0,0.0,0.0,0.0,0.0,0.0,0.0,0.0,0.0,0.0,0.0,0.0,0.0,0.0,0.0,0.0,0.0,0.0,0.0,0.0,0.0,0.0,0.0,0.0,0.0,0.0,0.0,0.0,0.0,0.0,0.0,0.0,0.0,0.0,0.0,0.0,0.0,0.0,0.0,0.0,0.0,0.0,0.0,0.0,0.0,0.0,0.0,0.0,0.0,0.0,0.0,0.0,0.0,0.0,0.0,0.0,0.0,0.0,0.0,0.0,0.0,0.0,0.0,0.0,0.0,0.0,0.0,0.0,0.0,0.0,0.0,0.0,0.0,0.0,0.0,0.0,0.0,0.0,0.0,0.0,0.0,0.0,0.0,0.0,0.0,0.0,1.971,1.9492,1.9113,0.0,0.0,0.0,0.0,0.0,0.0,0.0,0.0,0.0,0.0,0.0,0.0,0.0,0.0,0.0,0.0,0.0,0.0,0.0,0.0,0.0,0.0,0.0,0.0,0.0,0.0,0.0,0.0,0.0,0.0,0.0,0.0,0.0,0.0,0.0,0.0,0.0,0.0,0.0,0.0,0.0,0.0,0.0,0.0,0.0,0.0,0.0,0.0,0.0,0.0,0.0,0.0,0.0,0.0,0.0,0.0,0.0,0.0,0.0,0.0,0.0,0.0,0.0,0.0,0.0,0.0,0.0,0.0,0.0,0.0,0.0,0.0,0.0,0.0,0.0,0.0,0.0,0.0,0.0,0.0,0.0,0.0,0.0,0.0,0.0,0.0,0.0,0.0,0.0,0.0,0.0,0.0,0.0,0.0,0.0,0.0,0.0,0.0,0.0,0.0,0.0,0.0,0.0,0.0,0.0,0.0,0.0,0.0,0.0,0.0,2.0466,2.0402,2.0347,0.0,1.8893,0.0,0.0,0.0,0.0,0.0,0.0,0.0,0.0,0.0,0.0,0.0,0.0,0.0,0.0,0.0,0.0,0.0,0.0,0.0,0.0,0.0,0.0,0.0,0.0,0.0,0.0,0.0,0.0,0.0,0.0,0.0,0.0,0.0,0.0,0.0,0.0,0.0,0.0,0.0,0.0,0.0,0.0,0.0,0.0,0.0,0.0,0.0,0.0,0.0,0.0,0.0,0.0,0.0,0.0,0.0,0.0,0.0,0.0,0.0,0.0,0.0,0.0,0.0,0.0,0.0,0.0,0.0,0.0,0.0,0.0,0.0,0.0,0.0,0.0,0.0,0.0,0.0,0.0,0.0,0.0,0.0,0.0,0.0,0.0,0.0,0.0,0.0,0.0,0.0,0.0,0.0,0.0,0.0,0.0,0.0,0.0,0.0,0.0,0.0,0.0,0.0,0.0,0.0,0.0,0.0,0.0,0.0,0.0,0.0,0.0,2.1208,2.1145,2.1006,2.0269,0.0,0.0,0.0,0.0,0.0,0.0,0.0,0.0,0.0,0.0,0.0,0.0,0.0,0.0,0.0,0.0,0.0,0.0,0.0,0.0,0.0,0.0,0.0,0.0,0.0,0.0,0.0,0.0,0.0,0.0,0.0,0.0,0.0,0.0,0.0,0.0,0.0,0.0,0.0,0.0,0.0,0.0,0.0,0.0,0.0,0.0,0.0,0.0,0.0,0.0,0.0,0.0,0.0,0.0,0.0,0.0,0.0,0.0,0.0,0.0,0.0,0.0,0.0,0.0,0.0,0.0,0.0,0.0,0.0,0.0,0.0,0.0,0.0,0.0,0.0,0.0,0.0,0.0,0.0,0.0,0.0,0.0,0.0,0.0,0.0,0.0,0.0,0.0,0.0,0.0,0.0,0.0,0.0,0.0,0.0,0.0,0.0,0.0,0.0,0.0,0.0,0.0,0.0,0.0,0.0,0.0,0.0,0.0,0.0,0.0,2.1196,2.1952,2.1869,2.1708,2.0868,1.9273,0.0,0.0,0.0,0.0,0.0,0.0,0.0,0.0,0.0,0.0,0.0,0.0,0.0,0.0,0.0,0.0,0.0,0.0,0.0,0.0,0.0,0.0,0.0,0.0,0.0,0.0,0.0,0.0,0.0,0.0,0.0,0.0,0.0,0.0,0.0,0.0,0.0,0.0,0.0,0.0,0.0,0.0,0.0,0.0,0.0,0.0,0.0,0.0,0.0,0.0,0.0,0.0,0.0,0.0,0.0,0.0,0.0,0.0,0.0,0.0,0.0,0.0,0.0,0.0,0.0,0.0,0.0,0.0,0.0,0.0,0.0,0.0,0.0,0.0,0.0,0.0,0.0,0.0,0.0,0.0,0.0,0.0,0.0,0.0,0.0,0.0,0.0,0.0,0.0,0.0,0.0,0.0,0.0,0.0,0.0,0.0,0.0,0.0,0.0,0.0,0.0,0.0,0.0,0.0,0.0,0.0,0.0,0.0,2.0412,2.1924,2.2686,2.2557,2.2514,2.1674,0.0,0.0,0.0,0.0,0.0,0.0,0.0,0.0,0.0,0.0,0.0,0.0,0.0,0.0,0.0,0.0,0.0,0.0,0.0,0.0,0.0,0.0,0.0,0.0,0.0,0.0,0.0,0.0,0.0,0.0,0.0,0.0,0.0,0.0,0.0,0.0,0.0,0.0,0.0,0.0,0.0,0.0,0.0,0.0,0.0,0.0,0.0,0.0,0.0,0.0,0.0,0.0,0.0,0.0,0.0,0.0,0.0,0.0,0.0,0.0,0.0,0.0,0.0,0.0,0.0,0.0,0.0,0.0,0.0,0.0,0.0,0.0,0.0,0.0,0.0,0.0,0.0,0.0,0.0,0.0,0.0,0.0,0.0,0.0,0.0,0.0,0.0,0.0,0.0,0.0,0.0,0.0,0.0,0.0,0.0,0.0,0.0,0.0,0.0,0.0,0.0,0.0,0.0,0.0,0.0,0.0,0.0,0.0,0.0,2.0602,2.1993,2.2732,2.2669,2.2518,2.1909,0.0,0.0,0.0,0.0,0.0,0.0,0.0,0.0,0.0,0.0,0.0,0.0,0.0,0.0,0.0,0.0,0.0,0.0,0.0,0.0,0.0,0.0,0.0,0.0,0.0,0.0,0.0,0.0,0.0,0.0,0.0,0.0,0.0,0.0,0.0,0.0,0.0,0.0,0.0,0.0,0.0,0.0,0.0,0.0,0.0,0.0,0.0,0.0,0.0,0.0,0.0,0.0,0.0,0.0,0.0,0.0,0.0,0.0,0.0,0.0,0.0,0.0,0.0,0.0,0.0,0.0,0.0,0.0,0.0,0.0,0.0,0.0,0.0,0.0,0.0,0.0,0.0,0.0,0.0,0.0,0.0,0.0,0.0,0.0,0.0,0.0,0.0,0.0,0.0,0.0,0.0,0.0,0.0,0.0,0.0,0.0,0.0,0.0,0.0,0.0,0.0,0.0,0.0,0.0,0.0,0.0,0.0,0.0,0.0,2.1747,0.0,2.3329,2.3017,2.286,2.2282,0.0,0.0,0.0,0.0,0.0,0.0,0.0,0.0,0.0,0.0,0.0,0.0,0.0,0.0,0.0,0.0,0.0,0.0,0.0,0.0,0.0,0.0,0.0,0.0,0.0,0.0,0.0,0.0,0.0,0.0,0.0,0.0,0.0,0.0,0.0,0.0,0.0,0.0,0.0,0.0,0.0,0.0,0.0,0.0,0.0,0.0,0.0,0.0,0.0,0.0,0.0,0.0,0.0,0.0,0.0,0.0,0.0,0.0,0.0,0.0,0.0,0.0,0.0,0.0,0.0,0.0,0.0,0.0,0.0,0.0,0.0,0.0,0.0,0.0,0.0,0.0,0.0,0.0,0.0,0.0,0.0,0.0,0.0,0.0,0.0,0.0,0.0,0.0,0.0,0.0,0.0,0.0,0.0,0.0,0.0,0.0,0.0,0.0,0.0,0.0,0.0,0.0,0.0,0.0,0.0,0.0,0.0,0.0,2.194,2.3967,2.4652,2.4576,2.3772,2.3663,2.282,0.0,0.0,0.0,0.0,0.0,0.0,0.0,0.0,0.0,0.0,0.0,0.0,0.0,0.0,0.0,0.0,0.0,0.0,0.0,0.0,0.0,0.0,0.0,0.0,0.0,0.0,0.0,0.0,0.0,0.0,0.0,0.0,0.0,0.0,0.0,0.0,0.0,0.0,0.0,0.0,0.0,0.0,0.0,0.0,0.0,0.0,0.0,0.0,0.0,0.0,0.0,0.0,0.0,0.0,0.0,0.0,0.0,0.0,0.0,0.0,0.0,0.0,0.0,0.0,0.0,0.0,0.0,0.0,0.0,0.0,0.0,0.0,0.0,0.0,0.0,0.0,0.0,0.0,0.0,0.0,0.0,0.0,0.0,0.0,0.0,0.0,0.0,0.0,0.0,0.0,0.0,0.0,0.0,0.0,0.0,0.0,0.0,0.0,0.0,0.0,0.0,0.0,0.0,0.0,0.0,0.0,0.0,0.0,0.0,2.4644,2.5228,2.5415,2.5145,2.4535,2.3639,0.0,0.0,0.0,0.0,0.0,0.0,0.0,0.0,0.0,0.0,0.0,0.0,0.0,0.0,0.0,0.0,0.0,0.0,0.0,0.0,0.0,0.0,0.0,0.0,0.0,0.0,0.0,0.0,0.0,0.0,0.0,0.0,0.0,0.0,0.0,0.0,0.0,0.0,0.0,0.0,0.0,0.0,0.0,0.0,0.0,0.0,0.0,0.0,0.0,0.0,0.0,0.0,0.0,0.0,0.0,0.0,0.0,0.0,0.0,0.0,0.0,0.0,0.0,0.0,0.0,0.0,0.0,0.0,0.0,0.0,0.0,0.0,0.0,0.0,0.0,0.0,0.0,0.0,0.0,0.0,0.0,0.0,0.0,0.0,0.0,0.0,0.0,0.0,0.0,0.0,0.0,0.0,0.0,0.0,0.0,0.0,0.0,0.0,0.0,0.0,0.0,0.0,0.0,0.0,0.0,0.0,0.0,0.0,0.0,2.7266,2.7414,2.7313,2.6932,2.6141,2.4921,2.3229,0.0,0.0,0.0,0.0,0.0,0.0,0.0,0.0,0.0,0.0,0.0,0.0,0.0,0.0,0.0,0.0,0.0,0.0,0.0,0.0,0.0,0.0,0.0,0.0,0.0,0.0,0.0,0.0,0.0,0.0,0.0,0.0,0.0,0.0,0.0,0.0,0.0,0.0,0.0,0.0,0.0,0.0,0.0,0.0,0.0,0.0,0.0,0.0,0.0,0.0,0.0,0.0,0.0,0.0,0.0,0.0,0.0,0.0,0.0,0.0,0.0,0.0,0.0,0.0,0.0,0.0,0.0,0.0,0.0,0.0,0.0,0.0,0.0,0.0,0.0,0.0,0.0,0.0,0.0,0.0,0.0,0.0,0.0,0.0,0.0,0.0,0.0,0.0,0.0,0.0,0.0,0.0,0.0,0.0,0.0,0.0,0.0,0.0,0.0,0.0,0.0,0.0,0.0,0.0,0.0,0.0,0.0,0.0,3.1443,3.1006,3.0227,2.9028,2.8358,2.6649,0.0,0.0,0.0,0.0,0.0,0.0,0.0,0.0,0.0,0.0,0.0,0.0,0.0,0.0,0.0,0.0,0.0,0.0,0.0,0.0,0.0,0.0,0.0,0.0,0.0,0.0,0.0,0.0,0.0,0.0,0.0,0.0,0.0,0.0,0.0,0.0,0.0,0.0,0.0,0.0,0.0,0.0,0.0,0.0,0.0,0.0,0.0,0.0,0.0,0.0,0.0,0.0,0.0,0.0,0.0,0.0,0.0,0.0,0.0,0.0,0.0,0.0,0.0,0.0,0.0,0.0,0.0,0.0,0.0,0.0,0.0,0.0,0.0,0.0,0.0,0.0,0.0,0.0,0.0,0.0,0.0,0.0,0.0,0.0,0.0,0.0,0.0,0.0,0.0,0.0,0.0,0.0,0.0,0.0,0.0,0.0,0.0,0.0,0.0,0.0,0.0,0.0,0.0,0.0,0.0,0.0,0.0,0.0,0.0,3.3718,3.556,3.4874,3.1593,3.0708,2.8701,0.0,0.0,0.0,0.0,0.0,0.0,0.0,0.0,0.0,0.0,0.0,0.0,0.0,0.0,0.0,0.0,0.0,0.0,0.0,0.0,0.0,0.0,0.0,0.0,0.0,0.0,0.0,0.0,0.0,0.0,0.0,0.0,0.0,0.0,0.0,0.0,0.0,0.0,0.0,0.0,0.0,0.0,0.0,0.0,0.0,0.0,0.0,0.0,0.0,0.0,0.0,0.0,0.0,0.0,0.0,0.0,0.0,0.0,0.0,0.0,0.0,0.0,0.0,0.0,0.0,0.0,0.0,0.0,0.0,0.0,0.0,0.0,0.0,0.0,0.0,0.0,0.0,0.0,0.0,0.0,0.0,0.0,0.0,0.0,0.0,0.0,0.0,0.0,0.0,0.0,0.0,0.0,0.0,0.0,0.0,0.0,0.0,0.0,0.0,0.0,0.0,0.0,0.0,0.0,0.0,0.0,0.0,0.0,3.2873,3.6446,3.9156,3.893,3.5649,3.386,3.0871,0.0,0.0,0.0,0.0,0.0,0.0,0.0,0.0,0.0,0.0,0.0,0.0,0.0,0.0,0.0,0.0,0.0,0.0,0.0,0.0,0.0,0.0,0.0,0.0,0.0,0.0,0.0,0.0,0.0,0.0,0.0,0.0,0.0,0.0,0.0,0.0,0.0,0.0,0.0,0.0,0.0,0.0,0.0,0.0,0.0,0.0,0.0,0.0,0.0,0.0,0.0,0.0,0.0,0.0,0.0,0.0,0.0,0.0,0.0,0.0,0.0,0.0,0.0,0.0,0.0,0.0,0.0,0.0,0.0,0.0,0.0,0.0,0.0,0.0,0.0,0.0,0.0,0.0,0.0,0.0,0.0,0.0,0.0,0.0,0.0,0.0,0.0,0.0,0.0,0.0,0.0,0.0,0.0,0.0,0.0,0.0,0.0,0.0,0.0,0.0,0.0,0.0,0.0,0.0,0.0,0.0,0.0,0.0,3.4787,3.9016,4.1734,4.2118,4.0106,3.7148,3.3148,0.0,0.0,0.0,0.0,0.0,0.0,0.0,0.0,0.0,0.0,0.0,0.0,0.0,0.0,0.0,0.0,0.0,0.0,0.0,0.0,0.0,0.0,0.0,0.0,0.0,0.0,0.0,0.0,0.0,0.0,0.0,0.0,0.0,0.0,0.0,0.0,0.0,0.0,0.0,0.0,0.0,0.0,0.0,0.0,0.0,0.0,0.0,0.0,0.0,0.0,0.0,0.0,0.0,0.0,0.0,0.0,0.0,0.0,0.0,0.0,0.0,0.0,0.0,0.0,0.0,0.0,0.0,0.0,0.0,0.0,0.0,0.0,0.0,0.0,0.0,0.0,0.0,0.0,0.0,0.0,0.0,0.0,0.0,0.0,0.0,0.0,0.0,0.0,0.0,0.0,0.0,0.0,0.0,0.0,0.0,0.0,0.0,0.0,0.0,0.0,0.0,0.0,0.0,0.0,0.0,0.0,0.0,0.0,3.6456,3.9583,4.2334,4.2748,4.0585,3.848,3.5084,0.0,0.0,0.0,0.0,0.0,0.0,0.0,0.0,0.0,0.0,0.0,0.0,0.0,0.0,0.0,0.0,0.0,0.0,0.0,0.0,0.0,0.0,0.0,0.0,0.0,0.0,0.0,0.0,0.0,0.0,0.0,0.0,0.0,0.0,0.0,0.0,0.0,0.0,0.0,0.0,0.0,0.0,0.0,0.0,0.0,0.0,0.0,0.0,2.3427,0.0,0.0,0.0,0.0,0.0,0.0,0.0,0.0,0.0,0.0,0.0,0.0,0.0,0.0,0.0,0.0,0.0,0.0,0.0,0.0,0.0,0.0,0.0,0.0,0.0,0.0,0.0,0.0,0.0,0.0,0.0,0.0,0.0,0.0,0.0,0.0,0.0,0.0,0.0,0.0,0.0,0.0,0.0,0.0,0.0,0.0,0.0,0.0,0.0,0.0,0.0,0.0,0.0,0.0,0.0,0.0,0.0,0.0,0.0,3.7575,4.076,4.3169,4.3531,4.1688,3.9429,3.6059,0.0,0.0,0.0,0.0,0.0,0.0,0.0,0.0,0.0,0.0,0.0,0.0,0.0,0.0,0.0,0.0,0.0,0.0,0.0,0.0,0.0,0.0,0.0,0.0,0.0,0.0,0.0,0.0,0.0,0.0,0.0,0.0,0.0,0.0,0.0,0.0,0.0,0.0,0.0,0.0,0.0,0.0,0.0,0.0,0.0,0.0,0.0,0.0,0.0,0.0,0.0,0.0,0.0,0.0,0.0,0.0,0.0,0.0,0.0,0.0,0.0,0.0,0.0,0.0,0.0,0.0,0.0,0.0,0.0,0.0,0.0,0.0,0.0,0.0,0.0,0.0,0.0,0.0,0.0,0.0,0.0,0.0,0.0,0.0,0.0,0.0,0.0,0.0,0.0,0.0,0.0,0.0,0.0,0.0,0.0,0.0,0.0,0.0,0.0,0.0,0.0,0.0,0.0,0.0,0.0,0.0,0.0,3.4846,3.8321,4.1702,4.3508,4.3756,4.2443,3.9751,3.6242,3.1974,0.0,0.0,0.0,0.0,0.0,0.0,0.0,0.0,0.0,0.0,0.0,0.0,0.0,0.0,0.0,0.0,0.0,0.0,0.0,0.0,0.0,0.0,0.0,0.0,0.0,0.0,0.0,0.0,0.0,0.0,0.0,0.0,0.0,0.0,0.0,0.0,0.0,0.0,2.2741,2.3756,0.0,0.0,0.0,0.0,0.0,0.0,0.0,0.0,2.5763,0.0,0.0,0.0,0.0,0.0,0.0,0.0,0.0,0.0,0.0,0.0,0.0,0.0,0.0,0.0,0.0,0.0,0.0,0.0,0.0,0.0,0.0,0.0,0.0,0.0,0.0,0.0,0.0,0.0,0.0,0.0,0.0,0.0,0.0,0.0,0.0,0.0,0.0,0.0,0.0,0.0,0.0,0.0,0.0,0.0,0.0,0.0,0.0,0.0,0.0,0.0,0.0,0.0,0.0,0.0,0.0,3.2271,3.5609,3.8517,4.093,4.1781,4.178,4.076,3.8237,3.5433,3.2437,0.0,0.0,0.0,0.0,0.0,0.0,0.0,0.0,0.0,0.0,0.0,0.0,0.0,0.0,0.0,0.0,0.0,0.0,0.0,0.0,0.0,0.0,0.0,0.0,0.0,0.0,0.0,0.0,0.0,0.0,0.0,0.0,0.0,0.0,0.0,0.0,0.0,0.0,0.0,2.588,2.631,0.0,0.0,0.0,0.0,0.0,0.0,0.0,0.0,2.719,0.0,0.0,0.0,0.0,0.0,0.0,0.0,0.0,0.0,0.0,0.0,0.0,0.0,0.0,0.0,0.0,0.0,0.0,0.0,0.0,0.0,0.0,0.0,0.0,0.0,0.0,0.0,0.0,0.0,0.0,0.0,0.0,0.0,0.0,0.0,0.0,0.0,0.0,0.0,0.0,0.0,0.0,0.0,0.0,0.0,0.0,0.0,0.0,0.0,0.0,0.0,0.0,0.0,0.0,0.0,3.3312,3.5837,3.8446,4.111,4.1436,4.117,4.0374,3.7862,3.522,0.0,0.0,0.0,0.0,0.0,0.0,0.0,0.0,0.0,0.0,0.0,0.0,0.0,0.0,0.0,0.0,0.0,0.0,0.0,0.0,0.0,0.0,0.0,0.0,0.0,0.0,0.0,0.0,0.0,0.0,0.0,0.0,0.0,0.0,0.0,0.0,0.0,0.0,0.0,0.0,2.6807,2.7343,2.8457,0.0,0.0,0.0,0.0,0.0,0.0,2.8065,2.826,0.0,0.0,0.0,0.0,0.0,0.0,0.0,0.0,0.0,0.0,0.0,0.0,0.0,0.0,0.0,0.0,0.0,0.0,0.0,0.0,0.0,0.0,0.0,0.0,0.0,0.0,0.0,0.0,0.0,0.0,0.0,0.0,0.0,0.0,0.0,0.0,0.0,0.0,0.0,0.0,0.0,0.0,0.0,0.0,0.0,0.0,0.0,0.0,0.0,0.0,0.0,0.0,0.0,0.0,0.0,3.392,3.5721,3.8114,4.1045,4.1062,4.0684,3.9975,3.7601,3.504,0.0,0.0,0.0,0.0,0.0,0.0,0.0,0.0,0.0,0.0,0.0,0.0,0.0,0.0,0.0,0.0,0.0,0.0,0.0,0.0,0.0,0.0,0.0,0.0,0.0,0.0,0.0,0.0,0.0,0.0,0.0,0.0,0.0,0.0,0.0,0.0,0.0,0.0,0.0,0.0,0.0,2.8457,2.9115,2.9171,0.0,0.0,0.0,0.0,2.8978,2.9426,0.0,0.0,0.0,0.0,0.0,0.0,0.0,0.0,0.0,0.0,0.0,0.0,0.0,0.0,0.0,0.0,0.0,0.0,0.0,0.0,0.0,0.0,0.0,0.0,0.0,0.0,0.0,0.0,0.0,0.0,0.0,0.0,0.0,0.0,0.0,0.0,0.0,0.0,0.0,0.0,0.0,0.0,0.0,0.0,0.0,0.0,0.0,0.0,0.0,0.0,0.0,0.0,0.0,0.0,0.0,0.0,3.334,3.5343,3.7498,3.9773,3.9736,3.931,3.8649,3.6656,3.4336,0.0,0.0,0.0,0.0,0.0,0.0,0.0,0.0,0.0,0.0,0.0,0.0,0.0,0.0,0.0,0.0,0.0,0.0,0.0,0.0,0.0,0.0,0.0,0.0,0.0,0.0,0.0,0.0,0.0,0.0,0.0,0.0,0.0,0.0,0.0,0.0,0.0,0.0,0.0,0.0,0.0,3.0478,3.086,3.1196,3.1132,0.0,0.0,3.1541,2.9992,3.1278,0.0,0.0,0.0,0.0,0.0,0.0,0.0,0.0,0.0,0.0,0.0,0.0,0.0,0.0,0.0,0.0,0.0,0.0,0.0,0.0,0.0,0.0,0.0,0.0,0.0,0.0,0.0,0.0,0.0,0.0,0.0,0.0,0.0,0.0,0.0,0.0,0.0,0.0,0.0,0.0,0.0,0.0,0.0,0.0,0.0,0.0,0.0,0.0,0.0,0.0,0.0,0.0,0.0,0.0,0.0,3.0648,3.4042,3.537,3.732,3.9946,3.9646,3.9101,3.8401,3.6507,3.4247,0.0,0.0,0.0,0.0,0.0,0.0,0.0,0.0,0.0,0.0,0.0,0.0,0.0,0.0,0.0,0.0,0.0,0.0,0.0,0.0,0.0,0.0,0.0,0.0,0.0,0.0,0.0,0.0,0.0,0.0,0.0,0.0,0.0,0.0,0.0,0.0,0.0,0.0,0.0,0.0,0.0,0.0,3.224,3.285,0.0,0.0,0.0,3.3852,3.287,0.0,0.0,0.0,0.0,0.0,0.0,0.0,0.0,0.0,0.0,0.0,0.0,0.0,0.0,0.0,0.0,0.0,0.0,0.0,0.0,0.0,0.0,0.0,0.0,0.0,0.0,0.0,0.0,0.0,0.0,0.0,0.0,0.0,0.0,0.0,0.0,0.0,0.0,0.0,0.0,0.0,0.0,0.0,0.0,0.0,0.0,0.0,0.0,0.0,0.0,0.0,0.0,0.0,0.0,0.0,0.0,0.0,3.4566,3.5458,3.7284,4.0008,3.966,3.9011,3.8153,3.6417,0.0,0.0,0.0,0.0,0.0,0.0,0.0,0.0,0.0,0.0,0.0,0.0,0.0,0.0,0.0,0.0,0.0,0.0,0.0,0.0,0.0,0.0,0.0,0.0,0.0,0.0,0.0,2.2193,0.0,0.0,0.0,0.0,0.0,0.0,0.0,0.0,0.0,0.0,0.0,0.0,0.0,0.0,3.1946,3.3135,3.4029,3.4522,0.0,0.0,3.5498,3.4824,3.4038,3.3316,0.0,0.0,0.0,0.0,0.0,0.0,0.0,0.0,0.0,0.0,0.0,0.0,0.0,0.0,0.0,0.0,0.0,0.0,0.0,0.0,0.0,0.0,0.0,0.0,0.0,0.0,0.0,0.0,0.0,0.0,0.0,0.0,0.0,0.0,0.0,0.0,0.0,0.0,0.0,0.0,0.0,0.0,0.0,0.0,0.0,0.0,0.0,0.0,0.0,0.0,0.0,0.0,0.0,0.0,0.0,3.4175,3.5697,3.7422,3.9361,3.9412,3.8763,3.7486,3.6199,3.4247,0.0,0.0,0.0,0.0,0.0,0.0,0.0,0.0,0.0,0.0,0.0,0.0,0.0,0.0,0.0,0.0,0.0,0.0,0.0,0.0,0.0,0.0,0.0,0.0,0.0,0.0,0.0,0.0,0.0,0.0,0.0,0.0,0.0,0.0,0.0,0.0,0.0,0.0,0.0,0.0,0.0,3.3173,3.3278,3.4566,3.5214,0.0,0.0,3.5935,3.4474,3.4545,3.421,3.2527,0.0,0.0,0.0,0.0,0.0,0.0,0.0,0.0,0.0,0.0,0.0,0.0,0.0,0.0,0.0,0.0,0.0,0.0,0.0,0.0,0.0,0.0,0.0,0.0,0.0,0.0,0.0,0.0,0.0,0.0,0.0,0.0,0.0,0.0,0.0,0.0,0.0,0.0,0.0,0.0,0.0,0.0,0.0,0.0,0.0,0.0,0.0,0.0,0.0,0.0,0.0,0.0,0.0,3.1569,3.4638,3.5874,3.7443,3.9293,3.9412,3.8763,3.7417,3.6178,3.4247,0.0,0.0,0.0,0.0,0.0,0.0,0.0,0.0,0.0,0.0,0.0,0.0,0.0,0.0,0.0,0.0,0.0,0.0,0.0,0.0,0.0,0.0,0.0,0.0,0.0,0.0,0.0,0.0,2.3951,2.4277,2.4663,0.0,0.0,0.0,0.0,0.0,0.0,0.0,0.0,0.0,0.0,3.3802,3.4167,3.5324,0.0,0.0,3.6239,3.6414,3.5843,3.4878,3.3981,3.3303,3.2018,0.0,0.0,0.0,0.0,0.0,0.0,0.0,0.0,0.0,0.0,0.0,0.0,0.0,0.0,0.0,0.0,0.0,0.0,0.0,0.0,0.0,0.0,0.0,0.0,0.0,0.0,0.0,0.0,0.0,0.0,0.0,0.0,0.0,0.0,0.0,0.0,0.0,0.0,0.0,0.0,0.0,0.0,0.0,0.0,0.0,0.0,0.0,0.0,0.0,0.0,0.0,0.0,3.1889,3.4826,3.6116,3.7652,3.9352,3.9412,3.8763,3.7426,3.6178,3.4336,0.0,0.0,0.0,0.0,0.0,0.0,0.0,0.0,0.0,0.0,0.0,0.0,0.0,0.0,0.0,0.0,0.0,0.0,0.0,0.0,0.0,0.0,0.0,0.0,0.0,0.0,0.0,0.0,2.4551,2.4899,2.5554,0.0,0.0,0.0,0.0,0.0,0.0,0.0,0.0,0.0,0.0,3.413,3.4834,3.57,3.6284,3.6392,3.6375,3.636,3.6376,3.4896,3.3721,3.3774,0.0,0.0,0.0,0.0,0.0,0.0,0.0,0.0,0.0,0.0,0.0,0.0,0.0,0.0,0.0,0.0,0.0,0.0,0.0,0.0,0.0,0.0,0.0,0.0,0.0,0.0,0.0,0.0,0.0,0.0,2.4377,0.0,0.0,0.0,0.0,0.0,0.0,0.0,0.0,0.0,0.0,0.0,0.0,0.0,0.0,0.0,0.0,0.0,0.0,0.0,0.0,0.0,0.0,3.2155,3.4489,3.6404,3.8015,3.9322,3.9391,3.8763,3.7417,3.6178,3.4562,3.2519,0.0,0.0,0.0,0.0,0.0,0.0,0.0,0.0,0.0,0.0,0.0,0.0,0.0,0.0,0.0,0.0,0.0,0.0,0.0,0.0,0.0,0.0,0.0,0.0,0.0,0.0,2.4985,2.5561,2.6175,0.0,0.0,0.0,0.0,0.0,0.0,0.0,0.0,0.0,0.0,3.3499,3.4082,3.5123,3.5542,3.5715,3.5736,3.5613,3.5595,3.5712,3.4493,3.3546,0.0,0.0,0.0,0.0,0.0,0.0,0.0,0.0,0.0,0.0,0.0,0.0,0.0,0.0,0.0,0.0,0.0,0.0,0.0,0.0,0.0,0.0,0.0,0.0,0.0,0.0,0.0,2.6089,2.6051,0.0,0.0,0.0,0.0,0.0,0.0,0.0,0.0,0.0,0.0,0.0,3.0591,3.1685,0.0,0.0,0.0,0.0,0.0,0.0,0.0,0.0,0.0,0.0,0.0,0.0,3.2324,3.43,3.632,3.7845,3.8721,3.9191,3.8772,3.7417,3.6596,3.4801,3.1929,0.0,0.0,0.0,0.0,0.0,0.0,0.0,0.0,0.0,0.0,0.0,0.0,0.0,0.0,0.0,0.0,0.0,0.0,0.0,0.0,0.0,0.0,0.0,0.0,0.0,2.6995,0.0,0.0,0.0,0.0,0.0,0.0,0.0,0.0,0.0,0.0,0.0,3.1647,3.2625,3.3457,3.4184,3.4797,3.528,3.557,0.0,0.0,0.0,0.0,0.0,0.0,0.0,0.0,0.0,0.0,0.0,0.0,0.0,0.0,3.37,3.2722,3.269,3.2953,3.3521,0.0,0.0,0.0,0.0,0.0,0.0,0.0,0.0,0.0,0.0,0.0,0.0,0.0,0.0,2.8331,0.0,2.7542,0.0,0.0,0.0,0.0,0.0,0.0,0.0,0.0,3.1471,3.2497,3.3489,3.4056,3.3788,0.0,3.2996,3.1905,0.0,0.0,0.0,0.0,0.0,0.0,0.0,0.0,3.2698,3.4539,3.6423,3.7853,3.8721,3.9191,3.8763,3.7434,3.6365,3.448,3.1593,3.0687,2.9834,0.0,0.0,0.0,0.0,0.0,0.0,0.0,0.0,0.0,0.0,0.0,0.0,0.0,0.0,0.0,0.0,0.0,0.0,0.0,0.0,0.0,0.0,0.0,2.7958,0.0,0.0,0.0,0.0,0.0,0.0,0.0,0.0,0.0,3.0352,3.1373,3.2374,3.3149,3.3853,3.4478,3.49,0.0,0.0,0.0,0.0,0.0,0.0,0.0,3.4847,3.4847,3.4746,3.4773,3.5039,3.5405,3.5815,3.6318,0.0,0.0,3.4326,3.4202,3.4464,3.503,3.5249,3.563,3.6538,3.6723,3.6979,0.0,0.0,0.0,0.0,0.0,0.0,0.0,0.0,3.1403,3.1398,0.0,3.0543,0.0,0.0,0.0,0.0,0.0,3.024,0.0,0.0,3.3902,3.4969,3.6201,3.5623,3.5171,3.4979,3.433,3.3548,3.2717,3.1417,0.0,0.0,0.0,0.0,0.0,0.0,3.326,3.5155,3.6632,3.8045,3.9254,3.9352,3.8772,3.7426,3.5535,3.3612,3.172,3.1563,3.0957,2.9734,2.9638,0.0,0.0,0.0,0.0,0.0,0.0,0.0,0.0,0.0,0.0,0.0,0.0,0.0,0.0,0.0,0.0,0.0,0.0,0.0,0.0,2.7856,0.0,0.0,0.0,0.0,0.0,0.0,0.0,0.0,0.0,0.0,3.2547,3.2478,3.2912,3.4459,0.0,0.0,0.0,0.0,3.5549,3.5541,3.5541,3.5579,3.5579,3.5579,3.5571,3.5571,0.0,0.0,3.7566,3.7537,3.7486,3.7738,3.7657,3.7148,3.6127,3.5791,3.5698,3.5798,3.5915,3.6296,3.7457,3.7874,3.8211,3.7449,0.0,0.0,0.0,0.0,3.4094,3.4675,3.5199,3.5199,3.5199,3.5092,3.3126,0.0,0.0,0.0,0.0,0.0,0.0,3.3668,3.6136,3.6733,3.7582,3.8549,3.8767,3.8327,3.7269,3.7018,3.6122,3.4597,3.4154,3.2739,3.0404,0.0,0.0,0.0,0.0,3.3518,3.4988,3.6577,3.7745,3.843,3.9071,3.8754,3.7426,3.5535,3.4218,3.3642,3.2729,3.1824,3.0987,3.0478,0.0,0.0,0.0,0.0,0.0,0.0,0.0,0.0,0.0,0.0,0.0,0.0,0.0,0.0,0.0,0.0,0.0,0.0,0.0,2.9663,2.9682,2.9664,0.0,0.0,0.0,0.0,0.0,0.0,0.0,0.0,0.0,3.4446,3.3872,3.3608,0.0,0.0,3.4805,3.5391,3.5908,3.6216,3.6207,3.6567,0.0,3.6857,3.6857,3.6866,3.6857,3.7007,3.7392,3.8081,3.8166,3.8439,3.9421,3.9577,3.9577,3.9682,3.8556,3.7661,3.7653,3.8004,3.8594,3.9382,3.9631,3.9889,4.2287,3.9271,3.7002,3.6456,3.7178,3.764,3.8083,3.8458,3.8452,3.8247,3.7788,3.5776,3.4897,3.4897,3.3271,0.0,0.0,0.0,3.587,3.8183,3.8746,3.9455,4.0255,4.0307,3.992,3.9097,3.8543,3.7558,3.6141,3.5804,3.474,3.2886,0.0,0.0,3.18,3.302,3.4167,3.5226,3.6759,3.786,3.8478,3.8823,3.8631,3.7793,3.6156,3.5176,3.4907,3.3881,3.2998,3.2325,3.1645,3.0994,0.0,0.0,0.0,0.0,0.0,0.0,0.0,0.0,0.0,0.0,0.0,2.756,2.8112,0.0,0.0,0.0,2.9567,3.0329,3.1136,3.1287,0.0,0.0,0.0,0.0,0.0,0.0,0.0,3.2397,3.3224,3.4236,3.5348,3.53,3.5303,3.5604,3.5647,3.5797,3.6199,0.0,3.6866,3.6836,3.7165,3.7387,3.7387,3.7635,3.7875,3.8144,3.8195,3.8323,3.8691,3.8999,3.9469,4.0197,4.0606,4.0915,4.1334,4.0595,3.9876,3.9658,3.9927,4.0397,4.1074,4.1184,4.1373,4.654,4.5449,4.2173,4.101,4.1435,4.1509,4.1464,4.1332,4.1338,4.0855,3.9933,3.8442,3.763,3.7374,3.6001,0.0,3.7464,3.7337,3.8099,3.9647,4.0196,4.0832,4.1446,4.0799,4.0499,4.0532,3.926,3.8287,3.7605,3.6896,3.6344,3.5962,3.4213,3.3221,3.3057,3.418,3.5132,3.5801,3.7093,3.8184,3.9033,3.8627,3.8383,3.8344,3.7203,3.6246,3.5609,3.4929,3.4248,3.3582,3.2938,3.2295,3.1697,0.0,0.0,0.0,0.0,0.0,0.0,0.0,0.0,0.0,0.0,0.0,0.0,0.0,0.0,0.0,3.0728,0.0,3.2073,3.2622,0.0,0.0,0.0,3.3577,3.2915,3.3419,3.3825,3.3755,0.0,0.0,3.5721,3.6738,3.7486,3.7545,3.7456,3.7387,3.7387,3.7426,3.7486,3.7486,3.7554,3.7575,3.7686,3.8114,3.8652,3.9152,3.9442,3.946,3.952,4.0008,4.0427,4.0636,4.1064,4.1523,4.1553,4.2002,4.2281,4.1613,4.1543,4.1733,4.2281,4.2401,4.2571,4.8953,4.8637,4.7118,4.5302,4.3424,4.4089,4.4337,4.4207,4.4282,4.4179,4.3726,4.1602,3.9697,3.7993,3.7756,3.8341,3.961,3.9001,4.0092,4.2475,4.2116,4.1974,4.2142,4.2001,4.1657,4.1171,4.0844,4.024,3.9471,3.9277,3.8411,3.6926,3.6291,3.5461,3.4551,3.527,3.6001,3.6608,3.7099,3.7848,3.8811,3.84,3.8192,3.8163,3.7528,3.6896,3.6276,3.5609,3.4967,3.4278,3.3612,3.3185,3.3028,3.2878,0.0,0.0,0.0,0.0,0.0,0.0,0.0,0.0,0.0,2.9727,3.018,0.0,3.0859,0.0,3.2269,3.3006,3.3283,3.3329,0.0,0.0,3.3501,3.3734,3.4033,3.4655,3.5268,3.5737,3.6468,3.7135,3.7652,3.7982,3.8371,3.8823,3.8045,3.7387,3.7387,3.7862,3.8161,3.8212,3.8563,3.8913,3.8883,3.9041,3.9221,3.94,3.9828,4.0148,4.0157,4.0705,4.1304,4.1811,4.2041,4.2331,4.2741,4.301,4.302,4.2891,4.2861,4.2891,4.304,4.307,4.31,4.933,4.8915,4.8443,4.7212,4.5685,4.6781,4.6984,4.6545,4.6596,4.6216,4.5355,4.3405,4.1431,3.9627,3.9656,4.0271,4.1215,4.0815,4.1498,4.3028,4.2902,4.2698,4.2376,4.2397,4.22,4.1832,4.1458,4.1025,4.0556,4.0422,3.9773,3.8645,3.8512,3.7976,3.7013,3.635,3.6172,3.6494,3.7182,3.79,3.862,3.8498,3.8375,3.8275,3.7733,3.7292,3.6945,3.6365,3.5842,3.5264,3.4709,3.424,3.3949,3.3672,3.3335,0.0,0.0,0.0,0.0,0.0,0.0,0.0,0.0,0.0,0.0,0.0,3.2185,3.2458,3.3388,3.41,3.447,3.4715,3.4959,3.522,3.525,3.54,3.5729,3.6118,3.6507,3.6874,3.7473,3.8093,3.8751,3.911,3.9538,4.0187,3.9649,3.896,3.8434,3.8622,3.8841,3.8871,3.9152,3.9412,3.9412,3.966,3.9858,3.9909,4.0397,4.0855,4.0855,4.1403,4.1982,4.2351,4.2601,4.291,4.325,4.329,4.329,4.328,4.323,4.321,4.328,4.329,4.329,4.9015,4.819,4.8152,4.8029,4.7947,4.9141,4.9045,4.8117,4.8274,4.7356,4.5672,4.4342,4.2866,4.1459,4.1451,4.1892,4.2665,4.257,4.2652,4.2959,4.3422,4.3318,4.277,4.267,4.2661,4.2691,4.189,4.1466,4.1497,4.1283,4.093,4.0528,4.0547,4.0154,3.9374,3.7369,3.6359,3.6359,3.752,3.8245,3.8507,3.8655,3.8607,3.8343,3.7853,3.7549,3.7452,3.7113,3.6718,3.6314,3.5909,3.5457,3.4867,3.4292,3.4001,0.0,3.3993,0.0,0.0,0.0,0.0,0.0,0.0,0.0,0.0,3.3876,3.3911,3.4001,3.4518,3.5108,3.5699,3.6267,3.6806,3.7336,3.7387,3.7426,3.7524,3.7516,3.7614,3.7764,3.8311,3.8901,3.961,4.0178,4.0765,4.1194,4.1233,4.0765,3.9918,3.967,3.9709,3.9651,3.9571,3.9571,3.9511,3.9939,4.0367,4.0457,4.1035,4.1502,4.1532,4.2052,4.2452,4.2532,4.2852,4.318,4.322,4.321,4.322,4.319,4.307,4.3011,4.32,4.321,4.322,5.0341,4.9676,4.9502,4.9436,4.9404,4.9678,4.8995,4.7763,4.8633,4.7726,4.5601,4.477,4.3584,4.2226,4.2168,4.2914,4.4056,4.3427,4.4086,4.5704,4.5183,4.4879,4.4726,4.4197,4.4136,4.4459,4.3793,4.3529,4.3707,4.3665,4.2806,4.1224,4.1214,4.0471,3.9075,0.0,0.0,0.0,3.8882,3.9009,3.8591,3.8416,3.8052,3.7558,3.7889,0.0,3.7301,3.7491,3.7334,3.6742,3.6738,0.0,0.0,0.0,0.0,0.0,0.0,0.0,0.0,0.0,0.0,0.0,3.657,3.593,3.4668,3.5368,3.6148,3.6618,3.6768,3.6896,3.7045,3.7157,3.7276,3.7357,3.7387,3.7605,3.8131,3.8212,3.861,3.9709,3.9948,4.0277,4.0885,4.1154,4.1274,4.1405,4.1403,4.1313,4.1055,4.0965,4.1005,4.1005,4.0507,3.9999,3.9472,3.9989,4.0498,4.0546,4.1433,4.2131,4.2232,4.2534,4.2882,4.2872,4.2841,4.2819,4.283,4.2799,4.283,4.2809,4.2779,4.2819,4.2991,4.293,4.2819,4.9809,0.0,4.9118,4.8881,0.0,4.9025,4.853,4.7516,4.8507,4.7854,4.603,4.5678,4.4882,4.3838,4.3829,4.4222,4.4869,4.4459,4.488,4.587,4.5491,4.5274,4.5274,4.4945,4.4862,4.4981,4.4529,4.4299,4.4294,4.4205,4.3641,4.2685,4.2685,4.2283,4.1441,4.1087,4.0334,3.9159,3.9371,3.9439,3.935,3.9204,3.878,3.8139,3.8486,0.0,0.0,0.0,0.0,0.0,0.0,0.0,0.0,3.7344,0.0,3.7387,3.7387,3.7387,3.7387,3.7387,3.7387,3.7387,3.7704,3.7379,3.6118,3.6608,3.7075,3.7357,3.7387,3.7516,3.7853,3.7892,3.8024,3.8353,3.8374,3.8661,3.926,3.9388,3.9807,4.0675,4.0885,4.1117,4.1609,4.1689,4.182,4.2,4.204,4.203,4.2,4.1668,4.1403,4.1403,4.106,4.0526,3.9989,4.0597,4.1044,4.0994,4.1848,4.2594,4.2683,4.2773,4.286,4.285,4.2769,4.2688,4.2688,4.2688,4.2688,4.2678,4.2637,4.2606,4.2688,4.2698,4.2688,4.9067,4.8468,4.8349,4.7967,4.7513,4.8102,4.7955,4.7346,0.0,0.0,0.0,4.6344,4.591,4.5285,4.5274,4.5374,4.5454,4.5484,4.5554,4.5663,4.5663,4.5653,4.5571,4.5451,4.5355,4.5211,4.488,4.4678,4.458,4.4396,4.428,4.4164,4.4164,4.4008,4.3701,4.298,4.1624,3.9697,3.9741,3.9949,4.0173,4.0114,3.9677,3.8925,3.9025,3.8842,3.8349,3.8597,3.8607,3.8237,3.8403,3.8279,3.7733,3.7738,3.7755,3.7755,3.7746,3.7746,3.7746,3.7755,3.7755,3.7755,3.8246,3.8237,3.7635,3.7695,3.7755,3.7755,3.7755,3.8003,3.8512,3.8571,3.8823,3.9475,3.9546,3.9776,4.0345,4.0465,4.0655,4.1319,4.141,4.164,4.206,4.211,4.2258,4.2591,4.2611,4.2688,4.2621,4.2109,4.1639,4.1461,4.1326,4.0963,4.0557,4.1102,4.1695,4.1339,4.2189,4.2901,4.293,4.2789,4.2658,4.2638,4.2637,4.2586,4.2577,4.2586,4.2587,4.2577,4.2474,4.2341,4.2361,4.2562,4.2703,4.9722,4.9097,4.8528,4.8248,4.8109,4.77,4.7409,4.7271,4.6846,4.6546,4.63,4.572,4.5398,4.5274,4.5274,4.5593,4.6151,4.6151,4.645,4.701,4.6999,4.6902,4.6637,4.6142,4.5946,4.5984,4.5409,4.5307,4.5625,4.5627,4.5354,4.4821,4.4774,4.4055,4.2648,4.1692,4.0775,3.9972,4.0741,4.0894,4.0441,4.0043,3.9545,3.8916,3.8794,3.8715,3.8794,3.8644,3.8592,3.8686,3.8877,3.8948,3.8888,3.9002,3.9122,3.9122,3.9122,3.9122,3.9131,3.9131,3.9122,3.9122,3.9068,3.8782,3.8323,3.8772,3.9122,3.9122,3.9074,3.9152,3.9251,3.9272,3.948,3.9908,3.9999,4.0162,4.0613,4.0673,4.0967,4.1607,4.1666,4.1893,4.2424,4.2552,4.2571,4.2659,4.2617,4.2668,4.2628,4.2591,4.2267,4.1814,4.1637,4.1342,4.087,4.1224,4.1647,4.1647,4.2197,4.2739,4.2739,4.2566,4.2453,4.2443,4.232,4.2236,4.2187,4.2195,4.2226,4.2255,4.2272,4.2233,4.231,4.2682,4.2838,5.0368,4.9793,4.9441,4.8925,4.8248,4.7578,4.7298,4.7279,4.6969,4.6839,4.6809,4.652,4.6381,4.6381,4.6381,4.655,4.6839,4.685,4.7029,4.7268,4.7157,4.7019,4.6869,4.6493,4.6281,4.6206,4.591,4.5799,4.59,4.5917,4.5433,4.4584,4.4041,4.338,4.2625,4.1778,4.1272,4.0982,4.1296,4.1146,4.0565,4.0894,4.0735,4.0108,4.0102,4.0031,3.9935,3.9911,4.002,4.0206,4.028,4.0327,4.0336,4.041,4.0487,4.0496,4.0487,4.0487,4.0487,4.0375,4.031,4.031,4.0104,3.9872,3.9678,3.9391,3.935,3.9567,3.97,3.9858,4.0073,4.0104,4.0204,4.0405,4.0416,4.0643,4.1136,4.1234,4.1499,4.2118,4.2236,4.2314,4.2496,4.2555,4.2494,4.2402,4.2372,4.2372,4.2382,4.2382,4.2376,4.2264,4.2136,4.1811,4.1263,4.1644,4.1889,4.1625,4.2105,4.2486,4.2535,4.2372,4.2267,4.2247,4.2154,4.2102,4.2071,4.2092,4.2208,4.2567,4.2586,4.2683,4.3032,4.338,4.3409,5.1038,5.0416,5.0267,4.9542,4.8498,4.7967,4.7769,4.7758,4.7769,4.7758,4.7709,4.7459,4.7369,4.7519,4.7519,4.7608,4.7728,4.7758,4.7736,4.7649,4.7443,4.7288,4.7148,4.7011,4.6809,4.6567,4.6573,4.6483,4.6335,4.6324,4.5706,4.4525,4.3364,4.2695,4.244,4.1717,4.1264,4.1149,4.1068,4.0852,4.0504,4.1128,4.1295,4.1052,4.0972,4.0974,4.092,4.0947,4.1032,4.1223,4.1251,4.1242,4.1251,4.1242,4.1251,4.1242,4.1242,4.1251,4.1242,4.1089,4.1003,4.1003,4.0782,4.0607,4.0577,3.9896,3.9557,3.9936,4.0149,4.0365,4.0595,4.0674,4.0763,4.0832,4.0842,4.1097,4.1674,4.1792,4.1978,4.2458,4.2546,4.2465,4.2382,4.2331,4.2269,4.2154,4.2082,4.2082,4.2082,4.2082,4.2228,4.2412,4.2423,4.2155,4.1688,4.1941,4.2068,4.1629,4.198,4.2262,4.23,4.2195,4.1929,4.1856,4.1989,4.2023,4.2008,4.222,4.2554,4.3039,4.3011,4.3013,4.3588,4.4023,4.4084,5.1696,5.1056,5.0476,4.9811,4.9228,4.9108,4.9048,4.9067,4.9097,4.9108,4.8929,4.7818,4.7668,4.8158,4.8207,4.8517,4.9007,4.9097,4.8944,4.8718,4.8732,4.8463,4.7973,4.7944,4.7846,4.7631,4.7579,4.755,4.7515,4.7462,4.6734,4.5195,4.3595,4.2308,4.1381,4.0414,3.9702,3.9183,3.944,3.9737,4.0013,3.9671,3.9831,4.0615,4.015,4.0334,4.1249,4.0773,4.0549,4.0723,4.0821,4.0821,4.0821,4.0782,4.0782,4.0821,4.0821,4.0772,4.0782,4.0753,4.0812,4.0704,4.0627,4.052,4.049,4.0364,4.0383,4.0607,4.0626,4.0694,4.0675,4.0753,4.0901,4.1141,4.121,4.1532,4.1853,4.2067,4.2096,4.2125,4.2022,4.2133,4.1929,4.1897,4.1999,4.1793,4.1731,4.1741,4.1762,4.1773,4.1814,4.2001,4.2102,4.2113,4.1978,4.2036,4.1953,4.1926,4.2015,4.2051,4.197,4.1978,4.1856,4.1383,4.1615,4.2003,4.1896,4.2278,4.2989,4.3163,4.3019,4.2705,4.3359,4.4097,4.4449,5.2037,5.1726,5.1056,5.044,4.9853,4.9456,4.9288,4.9288,4.9288,4.9288,4.9217,4.8708,4.8637,4.8887,4.8887,4.9048,4.9277,4.9137,4.9024,4.8876,4.8583,4.8311,4.8115,4.7963,4.7858,4.7805,4.7794,4.7794,4.7576,4.653,4.5219,4.3838,4.2233,4.1527,4.1603,4.0376,3.9854,4.022,3.9493,3.9016,3.8891,3.9078,3.936,3.9765,4.0052,4.0509,4.1115,4.1416,4.1663,4.1852,4.1882,4.1882,4.1872,4.1902,4.1872,4.1872,4.1872,4.1872,4.1872,4.1782,4.1702,4.1712,4.1512,4.1401,4.143,4.1411,4.1441,4.1482,4.1271,4.1203,4.1434,4.1512,4.1395,4.1055,4.0928,4.1011,4.1176,4.0728,4.0556,4.1064,4.0706,4.0406,4.0384,4.0384,4.0384,4.0384,4.0406,4.0509,4.0455,4.0384,4.0384,4.0526,4.1145,4.1866,4.199,4.1535,4.1325,4.1223,4.1223,4.1212,4.1298,4.1593,4.1593,4.1133,4.1718,4.1831,4.1276,4.1438,4.1942,4.2438,4.2988,4.2732,4.3015,4.3838,4.4277,5.2516,5.2127,5.1487,5.0936,5.0446,5.0002,4.9816,4.9816,4.9816,4.9804,4.9816,4.9816,4.977,4.9694,4.9545,4.9534,4.9649,4.9456,4.9306,4.9202,4.8834,4.8618,4.8535,4.8411,4.8299,4.8281,4.8007,4.769,4.7247,4.572,4.424,4.3088,4.1824,4.1322,4.1492,4.0437,4.0197,4.0591,3.9512,3.8693,3.8351,3.85,3.8701,3.887,3.9486,4.0152,4.0877,4.1559,4.2106,4.2514,4.2555,4.2555,4.2545,4.2545,4.2555,4.2545,4.2555,4.2545,4.2535,4.2147,4.192,4.191,4.1754,4.17,4.1671,4.1681,4.1681,4.1592,4.1157,4.0965,4.1595,4.1451,4.0969,4.0313,4.0227,4.0227,4.0184,3.9574,3.9519,4.0032,3.9738,3.9172,3.9194,3.9271,3.9393,3.97,3.9601,3.9599,3.9753,3.9874,3.9775,3.9692,4.0523,4.0996,4.1436,4.1532,4.0966,4.0706,4.0757,4.0785,4.0685,4.1168,4.1106,4.0638,4.1481,4.1739,4.1086,4.0948,4.1115,4.1609,4.2178,4.2508,4.2296,4.3221,4.3733,5.3371,5.2175,5.1487,5.1146,5.1158,5.1068,5.1098,5.0978,5.1068,5.1098,5.1038,5.1026,5.0927,5.0638,5.0103,5.0181,5.0621,5.0425,5.0199,4.9978,4.9935,4.9849,4.963,4.9606,4.9577,4.9376,4.8405,4.7405,4.6389,4.5668,4.4817,4.3716,4.2944,4.198,4.0928,4.0566,4.0225,3.9877,3.9271,3.8894,3.873,3.7873,3.7613,3.7918,3.797,3.8832,4.0313,4.0646,4.1099,4.2061,4.2082,4.2102,4.2113,4.2133,4.2154,4.2102,4.2144,4.2102,4.1929,4.1265,4.0742,4.0689,4.0678,4.0657,4.0667,4.0667,4.0657,4.0667,3.9862,3.9716,4.0329,4.0032,3.9519,3.931,3.9265,3.9238,3.9265,3.9077,3.9161,3.927,3.919,3.9043,3.9125,3.9172,3.9463,3.9925,4.0072,4.0051,4.055,4.0707,4.0476,4.0298,4.0082,3.9682,4.0143,4.076,4.128,4.0973,4.0478,4.0738,4.0862,4.0823,4.0353,4.0195,4.0817,4.1036,4.0769,4.0811,4.1104,4.1507,4.1932,4.2106,4.1579,4.2276,4.2909,5.3414,5.2157,5.1487,5.1217,5.1217,5.1217,5.1217,5.1217,5.1217,5.1217,5.1182,5.1023,5.0893,5.0781,5.0253,5.0223,5.0537,5.0351,5.0183,5.0086,4.9929,4.9807,4.9734,4.9722,4.9722,4.9534,4.8553,4.7035,4.5422,4.505,4.4383,4.3358,4.2734,4.2123,4.1561,4.0852,4.0387,4.0161,3.9685,3.9245,3.8919,3.8492,3.8199,3.7956,3.7839,3.8115,3.8765,3.9387,3.9891,4.0233,4.0802,4.1131,4.1212,4.1762,4.1804,4.1286,4.1752,4.1564,4.0481,4.0485,4.0335,3.9793,3.9727,3.9744,3.9716,3.9716,3.9716,3.9552,3.8881,3.8552,3.8754,3.901,3.8944,3.8432,3.8319,3.8334,3.8183,3.7818,3.7753,3.8523,3.8594,3.8432,3.8484,3.8455,3.8574,3.8834,3.8827,3.9014,3.9135,3.9153,3.9226,3.925,3.9603,3.9858,3.9253,3.9864,4.0298,4.0121,3.9894,3.9932,4.0011,4.0432,4.0174,4.0287,4.0645,4.0729,4.0599,4.0437,4.0781,4.0794,4.1255,4.1553,4.0836,4.1835,4.2502,5.3563,5.2486,5.1786,5.1397,5.1217,5.1217,5.1217,5.1206,5.1094,5.107,5.1011,5.0799,5.0763,5.0821,5.0537,5.0579,5.0752,5.0272,4.9977,4.9965,4.9795,4.9722,4.9722,4.9722,4.9498,4.8951,4.76,4.5939,4.437,4.4165,4.374,4.302,4.2612,4.2375,4.2098,4.1431,4.0941,4.0538,4.0149,3.9697,3.922,3.8994,3.8718,3.8315,3.8026,3.8092,3.8473,3.867,3.9088,3.9618,4.0011,4.0162,4.0199,4.0781,4.0884,4.0324,4.0777,4.061,3.9464,3.9541,3.9491,3.9078,3.9015,3.9068,3.9229,3.9245,3.9271,3.9078,3.8425,3.7856,3.7959,3.8437,3.8474,3.7752,3.7596,3.7687,3.7819,3.7327,3.7481,3.8159,3.8188,3.8038,3.799,3.8014,3.8198,3.8383,3.8375,3.8353,3.8675,3.8616,3.853,3.8655,3.9521,3.9725,3.9486,3.9769,3.9974,3.9788,3.9786,3.9606,3.9682,4.0057,4.0315,4.0434,4.0516,4.053,4.0463,4.0252,4.0186,4.0199,4.07,4.1266,4.1223,4.1573,4.2148,5.3803,5.3126,5.2486,5.184,5.138,5.1266,5.1212,5.1183,5.0935,5.084,5.0894,5.0638,5.078,5.0972,5.1015,5.12,5.1254,5.0427,4.9962,4.9921,4.988,4.9867,4.9896,4.9778,4.9027,4.7936,4.5861,4.4299,4.3288,4.3271,4.3174,4.3028,4.295,4.2688,4.2224,4.2098,4.1582,4.0852,4.0551,4.0199,3.9722,3.9233,3.8969,3.8843,3.8365,3.8635,3.9807,3.8613,3.8633,4.0012,3.9683,3.9248,3.9451,3.9584,3.9369,3.9379,3.9358,3.9298,3.908,3.8497,3.8479,3.8495,3.8588,3.877,3.9109,3.9214,3.924,3.9071,3.8496,3.7975,3.7987,3.8072,3.7944,3.7335,3.7367,3.7581,3.7874,3.8002,3.799,3.8101,3.8153,3.8065,3.8065,3.8216,3.8539,3.9045,3.9066,3.9095,3.9658,3.9576,3.9611,3.9597,3.9789,3.9891,3.98,3.9736,3.9774,3.98,3.9853,3.9829,4.002,4.0337,4.0503,4.0642,4.0744,4.0786,4.0938,4.08,4.0876,4.0926,4.1163,4.1302,4.1578,4.1826,4.1783,5.4089,5.3778,5.2979,5.2506,5.2214,5.1641,5.1349,5.1278,5.0821,5.0827,5.1121,5.0937,5.116,5.1541,5.1524,5.1503,5.1572,5.1166,5.0991,5.0966,5.0979,5.095,5.0812,5.0138,4.8723,4.7028,4.6164,4.4983,4.3787,4.3539,4.3377,4.309,4.3,4.2939,4.2713,4.2386,4.1973,4.1658,4.0877,4.0399,4.0224,3.9722,3.9472,3.9383,3.8919,3.9125,4.0048,3.8735,3.8248,3.886,3.9157,3.9648,4.0168,4.0367,4.003,3.9508,4.0007,3.9686,3.8616,3.8685,3.8594,3.8334,3.8215,3.8241,3.8394,3.8519,3.8519,3.8494,3.8138,3.799,3.799,3.799,3.7965,3.7751,3.7764,3.7826,3.809,3.8391,3.858,3.8655,3.8931,3.9157,3.9157,3.9145,3.9222,3.9512,3.9512,3.9664,3.9816,3.9942,3.971,3.9697,3.9923,4.0236,4.0261,4.0387,4.0538,4.0462,4.04,4.0325,4.0487,4.0588,4.075,4.0976,4.1051,4.1202,4.1352,4.1414,4.1528,4.1553,4.1667,4.1781,4.192,4.2007,4.2108,5.4101,5.3838,5.3272,5.2872,5.261,5.1994,5.1785,5.1714,5.1275,5.1297,5.153,5.1341,5.1579,5.2074,5.2051,5.2107,5.2285,5.2285,5.2066,5.1689,5.159,5.1385,5.075,4.9227,4.7838,4.6467,4.5872,4.5135,4.4145,4.4091,4.3815,4.3377,4.3302,4.3176,4.3,4.2649,4.2411,4.211,4.1493,4.1028,4.0738,4.0261,3.9998,3.9923,3.9497,3.9525,3.9977,3.9107,3.8591,3.8545,3.8796,3.9194,3.9783,3.9757,3.9544,3.9182,3.9327,3.9206,3.8211,3.8489,3.8778,3.8365,3.8354,3.8454,3.858,3.8642,3.8642,3.863,3.8655,3.8617,3.863,3.863,3.863,3.8642,3.8442,3.8454,3.8617,3.8944,3.917,3.9258,3.9484,3.966,3.971,3.971,3.981,3.9923,3.9998,4.0136,4.0186,4.0351,4.0275,4.0312,4.0575,4.0775,4.08,4.1013,4.1314,4.1252,4.1128,4.1014,4.1026,4.1051,4.1138,4.1605,4.182,4.2057,4.2233,4.2144,4.2169,4.2183,4.2171,4.2347,4.2523,4.2624,4.2699,5.395,5.3491,5.3436,5.3099,5.2603,5.2418,5.2351,5.2339,5.2005,5.1904,5.1942,5.1811,5.2046,5.2552,5.2655,5.2904,5.3371,5.3329,5.2821,5.2166,5.1828,5.1246,4.9612,4.8065,4.7049,4.6231,4.537,4.4842,4.4654,4.4669,4.4378,4.389,4.3765,4.3539,4.3176,4.3025,4.2738,4.235,4.2174,4.1833,4.1352,4.0839,4.0538,4.0538,4.0099,3.9874,3.9838,3.9636,3.9512,3.9322,3.871,3.8452,3.8252,3.8128,3.8389,3.8377,3.8152,3.8352,3.8153,3.8378,3.8541,3.8894,3.8969,3.9145,3.9446,3.9484,3.9484,3.9496,3.9597,3.9697,3.9672,3.9772,3.9772,3.9735,3.9283,3.9183,3.9635,3.9722,3.9772,3.9823,3.9798,3.9823,3.9948,3.9948,4.0149,4.0387,4.0524,4.0725,4.0951,4.1026,4.1188,4.1239,4.1177,4.1341,4.1404,4.1717,4.198,4.1993,4.1882,4.1793,4.1679,4.1679,4.1742,4.2197,4.2436,4.2763,4.2875,4.2699,4.266,4.2674,4.2774,4.295,4.3,4.2975,4.2975,5.4215,5.4042,5.3849,5.3658,5.3398,5.2864,5.2541,5.247,5.1969,5.206,5.2338,5.2362,5.2659,5.321,5.3239,5.3371,5.3458,5.3487,5.3408,5.3087,5.3014,5.1211,4.9272,4.8852,4.7925,4.6454,4.5916,4.5633,4.5296,4.5271,4.497,4.4378,4.4066,4.3765,4.3578,4.3201,4.2939,4.2738,4.2361,4.2174,4.1934,4.1378,4.1088,4.1076,4.0926,4.065,4.0287,3.9898,3.9699,3.9626,3.9423,3.9245,3.922,3.922,3.922,3.9245,3.9245,3.9245,3.9245,3.9245,3.9358,3.9459,3.9559,3.9559,3.9672,3.9697,3.9697,3.9772,4.0023,4.0287,4.0337,4.0613,4.08,4.075,4.0074,3.9735,4.0149,4.0312,4.0412,4.0789,4.0826,4.08,4.0775,4.08,4.0889,4.104,4.1127,4.1202,4.1453,4.149,4.1565,4.1567,4.158,4.182,4.206,4.2359,4.261,4.2724,4.2674,4.2624,4.2534,4.2534,4.2624,4.2838,4.2738,4.2925,4.2975,4.29,4.2975,4.3,4.3,4.3,4.3,4.3,4.3,5.3984,5.3929,5.3802,5.3736,5.3694,5.3201,5.2991,5.2904,5.2588,5.2601,5.2933,5.2978,5.3165,5.3474,5.3487,5.3487,5.3487,5.3487,5.3182,5.2608,5.2094,5.074,4.9279,4.9235,4.8123,4.6511,4.6311,4.6125,4.5874,4.5849,4.5522,4.5031,4.4669,4.4292,4.3765,4.3528,4.3215,4.2989,4.2663,4.2537,4.2487,4.197,4.1706,4.1592,4.1466,4.1127,4.08,4.0524,4.0186,3.9836,3.971,3.9798,4.001,4.0049,4.0124,4.0312,4.0362,4.0387,4.0362,4.0387,4.0387,4.0387,4.0362,4.0362,4.0412,4.0387,4.0362,4.0449,4.0675,4.08,4.0876,4.1152,4.1264,4.1163,4.0725,4.0512,4.0839,4.0826,4.0976,4.1214,4.1289,4.1289,4.1289,4.1314,4.1453,4.1605,4.1694,4.1856,4.2019,4.1955,4.1955,4.2032,4.2082,4.2322,4.2462,4.2699,4.2785,4.2925,4.2964,4.3,4.3,4.3,4.2975,4.2964,4.2975,4.3,4.3,4.3,4.3,4.3,4.3,4.3,4.3,4.3,4.3,5.3487,5.3487,5.3487,5.3487,5.35,5.3487,5.3442,5.3487,5.34,5.34,5.3429,5.3487,5.3442,5.3487,5.3487,5.3487,5.3487,5.3487,5.2757,5.1906,5.1003,5.007,4.9335,4.8575,4.7593,4.6451,4.6311,4.6286,4.621,4.6235,4.605,4.5623,4.5487,4.4959,4.4292,4.3966,4.3614,4.3377,4.3302,4.3251,4.3151,4.2763,4.2462,4.2372,4.1781,4.1517,4.1378,4.1214,4.0826,3.9923,3.9873,4.0174,4.0549,4.0575,4.075,4.1076,4.1127,4.1138,4.1252,4.1138,4.1214,4.1163,4.1188,4.1289,4.1163,4.1113,4.1088,4.1088,4.1327,4.1441,4.1553,4.1553,4.1603,4.1654,4.1528,4.1478,4.1478,4.1428,4.1403,4.1464,4.1503,4.1478,4.1478,4.1503,4.1692,4.2197,4.2272,4.2372,4.2509,4.2534,4.2585,4.2699,4.2799,4.29,4.2925,4.295,4.295,4.2975,4.2975,4.3,4.3,4.3,4.3,4.3,4.3,4.3,4.3,4.3,4.3,4.3,4.3,4.3,4.3,4.3,4.3,5.3487,5.3487,5.3487,5.3487,5.3487,5.3487,5.3516,5.3516,5.3516,5.3603,5.3516,5.3516,5.3516,5.3487,5.3487,5.3487,5.3516,5.3464,5.285,5.1798,5.1497,5.0112,4.8918,4.8201,4.7442,4.6556,4.6311,4.6311,4.6311,4.6286,4.625,4.6085,4.5723,4.5386,4.5085,4.4593,4.4389,4.4252,4.4202,4.4152,4.4052,4.3664,4.3377,4.3302,4.2498,4.206,4.1895,4.1542,4.1202,4.1026,4.0976,4.1051,4.1102,4.1127,4.1252,4.1364,4.1364,4.1339,4.1314,4.1389,4.1314,4.1414,4.1453,4.1289,4.1289,4.1364,4.1339,4.1403,4.1731,4.216,4.2434,4.2598,4.2509,4.2484,4.2509,4.2548,4.2548,4.2222,4.2171,4.2434,4.2534,4.2624,4.2598,4.2509,4.2624,4.2813,4.2838,4.2889,4.2925,4.3,4.3,4.3,4.3,4.3,4.3,4.3,4.3,4.3,4.3,4.3,4.3,4.3,4.3,4.3,4.3,4.3,4.3,4.3,4.3,4.3,4.3,4.3,4.3,4.3,4.3,5.3778,5.3516,5.3487,5.3487,5.3545,5.3822,5.3981,5.4039,5.43,5.4213,5.401,5.3967,5.3807,5.3503,5.3487,5.3487,5.3574,5.3809,5.3296,5.2249,5.178,5.0642,4.9111,4.8201,4.7419,4.6482,4.6311,4.6311,4.6311,4.6311,4.6286,4.6286,4.6014,4.5723,4.5537,4.5185,4.4855,4.4589,4.4589,4.4589,4.4514,4.4353,4.3991,4.3815,4.3226,4.2864,4.2562,4.2322,4.2158,4.2094,4.2069,4.1943,4.1756,4.1731,4.1831,4.2044,4.2094,4.2094,4.2094,4.2094,4.2133,4.2069,4.2108,4.2094,4.2094,4.2094,4.2094,4.2158,4.2397,4.2713,4.295,4.2975,4.3,4.3,4.3,4.3,4.2964,4.2738,4.2637,4.2925,4.2925,4.295,4.2975,4.3,4.2975,4.2914,4.2914,4.295,4.295,4.3,4.3,4.3,4.3,4.3,4.3,4.3,4.3,4.3,4.3,4.3,4.3,4.3,4.3,4.3,4.3,4.3,4.3,4.3,4.3,4.3,4.3,4.3,4.3,4.3,4.3,5.43,5.3807,5.3778,5.3778,5.3865,5.4416,5.4648,5.4706,5.5171,5.4996,5.4677,5.4561,5.4126,5.3749,5.3545,5.3545,5.3754,5.3669,5.3179,5.2253,5.1875,5.0905,4.9722,4.8767,4.8024,4.6879,4.6602,4.6492,4.6336,4.6311,4.6311,4.6301,4.6286,4.6035,4.5723,4.5612,4.5447,4.5081,4.5056,4.5031,4.4955,4.483,4.4503,4.4052,4.3915,4.3603,4.3226,4.3065,4.3025,4.3,4.3,4.2738,4.2475,4.235,4.2487,4.2939,4.285,4.2824,4.2774,4.2875,4.29,4.3,4.295,4.295,4.2925,4.285,4.2824,4.2875,4.2939,4.2939,4.3,4.3,4.3,4.3,4.3,4.3,4.3,4.3,4.2975,4.2975,4.3,4.3,4.3,4.3,4.3,4.3,4.3,4.3,4.3,4.3,4.3,4.3,4.3,4.3,4.3,4.3,4.3,4.3051,4.3051,4.3076,4.3051,4.3,4.3,4.3,4.3,4.3,4.3,4.3,4.3,4.3,4.3,4.3,4.3,4.3,4.3051,5.5171,5.5084,5.5097,5.5097,5.5084,5.52,5.5258,5.5258,5.5403,5.5374,5.52,5.4735,5.4474,5.4184,5.3691,5.3807,5.3982,5.3774,5.2925,5.2226,5.1963,5.134,5.0149,4.975,4.9339,4.8918,4.7897,4.6878,4.6486,4.6311,4.6486,4.6361,4.6386,4.6286,4.6261,4.616,4.62,4.601,4.5959,4.5934,4.5859,4.5522,4.507,4.4554,4.4478,4.4177,4.379,4.3653,4.3478,4.3051,4.3,4.2939,4.2838,4.2813,4.2889,4.2964,4.3,4.3,4.3,4.3,4.3,4.3,4.3,4.3,4.3,4.3025,4.3101,4.3076,4.3051,4.3025,4.3,4.3,4.3,4.3,4.3,4.3,4.3,4.3,4.3,4.3,4.3,4.3,4.3,4.3,4.3,4.3,4.3,4.3,4.3,4.3,4.3,4.3,4.3,4.3,4.3,4.3,4.3,4.3126,4.3151,4.3226,4.3176,4.3051,4.3025,4.3302,4.3201,4.3039,4.3025,4.3076,4.3201,4.3327,4.3201,4.3051,4.3251,4.3438,4.3263,5.5707,5.5403,5.5403,5.5403,5.5461,5.5794,5.5925,5.5954,5.6215,5.6186,5.578,5.5258,5.4764,5.4387,5.3807,5.3894,5.4259,5.471,5.3951,5.3405,5.3377,5.2469,5.0931,5.0743,5.0064,4.9332,4.8339,4.7641,4.7164,4.7154,4.7079,4.7139,4.7114,4.7114,4.7139,4.7139,4.7089,4.7079,4.6863,4.6697,4.6662,4.62,4.5648,4.5221,4.5031,4.4754,4.4328,4.4202,4.3966,4.3539,4.3413,4.3251,4.3101,4.3025,4.3025,4.3025,4.3025,4.3,4.3,4.3,4.3,4.3,4.3025,4.3,4.3076,4.3226,4.3388,4.3427,4.3402,4.3277,4.3065,4.3051,4.3,4.3,4.3,4.3025,4.3,4.3,4.3,4.3,4.3,4.3,4.3,4.3,4.3,4.3,4.3,4.3,4.3,4.3,4.3,4.3101,4.3126,4.3176,4.3226,4.3277,4.3327,4.3402,4.3452,4.3503,4.3628,4.3639,4.3765,4.3991,4.3714,4.3277,4.3377,4.3528,4.3589,4.3714,4.379,4.384,4.3851,4.3826,4.37,5.6244,5.578,5.578,5.5794,5.5881,5.6332,5.6578,5.6694,5.7028,5.6984,5.6506,5.5765,5.5213,5.4822,5.4387,5.4313,5.4898,5.5749,5.5182,5.4752,5.4522,5.3612,5.2436,5.145,5.0836,4.9891,4.9046,4.8576,4.7883,4.7782,4.7857,4.7782,4.7842,4.7892,4.7832,4.7716,4.7908,4.7782,4.75,4.7249,4.6998,4.6687,4.62,4.5723,4.5648,4.5372,4.4855,4.478,4.4478,4.4141,4.3915,4.3765,4.3427,4.3327,4.3327,4.3302,4.3226,4.3151,4.3201,4.3377,4.3489,4.3514,4.3377,4.3352,4.3427,4.3765,4.3966,4.3966,4.3966,4.384,4.3539,4.3377,4.3377,4.3338,4.3327,4.3176,4.319,4.3126,4.3,4.3,4.3,4.3025,4.3076,4.3,4.3,4.3,4.3,4.3,4.3,4.3,4.3025,4.3201,4.3302,4.3402,4.3503,4.3653,4.3765,4.3926,4.3991,4.4041,4.4227,4.4389,4.4503,4.4453,4.4091,4.374,4.3865,4.3991,4.4066,4.4202,4.4464,4.4489,4.4328,4.4278,4.4227,5.7158,5.7071,5.7071,5.7071,5.7042,5.7129,5.7187,5.7187,5.7274,5.7274,5.7042,5.6026,5.5707,5.5751,5.5403,5.5548,5.5721,5.5281,5.5124,5.5057,5.4342,5.3634,5.2983,5.1958,5.1294,5.0458,4.9799,4.8941,4.8309,4.8083,4.8008,4.8033,4.8109,4.7958,4.8159,4.8184,4.7908,4.7933,4.7842,4.7591,4.7214,4.7023,4.6647,4.6336,4.6125,4.5924,4.5447,4.5347,4.5081,4.4604,4.4503,4.4493,4.4403,4.4414,4.4414,4.4278,4.4041,4.3714,4.3765,4.4001,4.4202,4.4177,4.4252,4.4378,4.4378,4.4392,4.4529,4.4529,4.4529,4.4428,4.4252,4.4328,4.4378,4.4177,4.3915,4.3765,4.3664,4.3564,4.3413,4.3313,4.3438,4.3277,4.3201,4.3076,4.3,4.3,4.3,4.3051,4.3126,4.3251,4.3363,4.3614,4.3714,4.3829,4.3865,4.4016,4.4242,4.4453,4.4529,4.4604,4.488,4.5031,4.4805,4.4704,4.4443,4.4428,4.4618,4.4679,4.4604,4.4754,4.5031,4.488,4.4589,4.4614,4.4815,5.7303,5.7303,5.7303,5.7303,5.7303,5.7303,5.7303,5.7303,5.7303,5.7303,5.7158,5.6403,5.5954,5.5896,5.5838,5.6099,5.6126,5.541,5.5117,5.5006,5.4069,5.3089,5.2355,5.1725,5.1283,5.0436,4.9925,4.9487,4.8912,4.8812,4.8862,4.8812,4.8837,4.8912,4.8736,4.8837,4.8887,4.8812,4.856,4.8109,4.7616,4.7274,4.6998,4.6763,4.6461,4.6185,4.5984,4.5949,4.5673,4.5221,4.5121,4.4945,4.4704,4.4564,4.4564,4.4589,4.4744,4.4593,4.4353,4.4514,4.4614,4.4614,4.464,4.469,4.4995,4.5121,4.5121,4.5121,4.5121,4.498,4.4715,4.4589,4.4589,4.4503,4.4468,4.4367,4.4227,4.4127,4.4001,4.3926,4.3851,4.374,4.3564,4.3352,4.3277,4.3251,4.3377,4.3514,4.3689,4.3876,4.4027,4.4188,4.4278,4.4317,4.4353,4.4428,4.4744,4.4955,4.5121,4.5246,4.5558,4.5608,4.5407,4.5457,4.5533,4.5533,4.5508,4.5332,4.5196,4.5372,4.5583,4.5432,4.5307,4.5508,4.5658,5.7071,5.7086,5.7245,5.7303,5.7303,5.7303,5.7303,5.7303,5.7303,5.7303,5.7216,5.681,5.6258,5.5939,5.6275,5.6427,5.6062,5.562,5.5195,5.4605,5.3649,5.2466,5.1736,5.1236,5.0473,4.9606,4.9687,4.9515,4.954,4.9515,4.9464,4.959,4.9414,4.949,4.9565,4.949,4.9439,4.9414,4.9154,4.8702,4.8184,4.7792,4.7415,4.7048,4.6737,4.6451,4.6311,4.6286,4.5999,4.5799,4.5698,4.5522,4.5231,4.5192,4.5167,4.5231,4.5447,4.5472,4.5206,4.5156,4.5031,4.5031,4.5031,4.5332,4.5598,4.5713,4.5698,4.5713,4.5698,4.5432,4.5181,4.5066,4.5167,4.5131,4.498,4.488,4.478,4.4604,4.4414,4.4303,4.4278,4.4364,4.4152,4.3765,4.3589,4.3514,4.3664,4.3951,4.4202,4.4439,4.4629,4.4754,4.483,4.4945,4.5131,4.5181,4.5382,4.5447,4.5573,4.5723,4.5959,4.6085,4.601,4.616,4.6311,4.6185,4.5884,4.5824,4.5788,4.5874,4.5959,4.611,4.616,4.6311,4.6261,5.6448,5.652,5.7071,5.7303,5.7303,5.7303,5.7303,5.7303,5.7303,5.7303,5.7303,5.7173,5.6811,5.6495,5.6517,5.6323,5.5401,5.5413,5.4531,5.3423,5.2339,5.1611,5.1027,5.0404,4.9806,4.9622,4.959,4.959,4.959,4.959,4.959,4.959,4.959,4.959,4.959,4.959,4.959,4.959,4.9439,4.9245,4.8843,4.8501,4.8083,4.7315,4.7048,4.6823,4.6336,4.6311,4.6261,4.6135,4.611,4.611,4.5909,4.5884,4.5884,4.5934,4.5984,4.601,4.5909,4.5909,4.6085,4.6135,4.6085,4.5984,4.61,4.6185,4.621,4.615,4.6085,4.611,4.606,4.6135,4.5894,4.5784,4.5573,4.5472,4.5296,4.5006,4.4815,4.464,4.4715,4.4941,4.4991,4.4679,4.4217,4.4116,4.4342,4.4618,4.4729,4.4941,4.5106,4.5271,4.5397,4.5623,4.6035,4.6085,4.5909,4.5884,4.5959,4.606,4.621,4.6311,4.6311,4.6311,4.6311,4.6311,4.6286,4.6135,4.6075,4.621,4.6311,4.6311,4.6311,4.6311,4.6311,5.578,5.5838,5.649,5.6955,5.7303,5.7303,5.7303,5.7303,5.7303,5.7303,5.7303,5.7275,5.6735,5.6123,5.5879,5.5413,5.4218,5.3275,5.2773,5.2031,5.109,5.0436,5.0062,4.9966,4.9606,4.959,4.959,4.959,4.959,4.959,4.959,4.959,4.959,4.959,4.959,4.959,4.959,4.959,4.959,4.9455,4.933,4.8919,4.8426,4.7691,4.7199,4.6848,4.6386,4.6311,4.6311,4.6311,4.6311,4.6311,4.6311,4.6311,4.6311,4.6311,4.6311,4.6311,4.6311,4.6311,4.6311,4.6311,4.6286,4.6311,4.6311,4.6311,4.6311,4.6286,4.6311,4.6311,4.6286,4.6261,4.621,4.6225,4.615,4.5999,4.5824,4.5508,4.5432,4.5342,4.5533,4.5784,4.5759,4.5683,4.5156,4.4744,4.502,4.5246,4.5332,4.5443,4.5583,4.5698,4.5799,4.5874,4.6235,4.6311,4.6311,4.6311,4.6311,4.6311,4.6311,4.6311,4.6311,4.6311,4.6311,4.6311,4.6311,4.6311,4.6311,4.6311,4.6311,4.6311,4.6311,4.6311,4.6311,5.5142,5.52,5.5852,5.649,5.7013,5.7216,5.7303,5.7303,5.7303,5.7303,5.7303,5.7261,5.6594,5.5688,5.5369,5.4382,5.312,5.2108,5.1424,5.0774,5.0117,4.9638,4.959,4.959,4.959,4.959,4.959,4.959,4.959,4.959,4.959,4.959,4.959,4.959,4.959,4.959,4.959,4.959,4.959,4.959,4.9515,4.9254,4.8818,4.8234,4.7857,4.744,4.6988,4.6763,4.6612,4.6522,4.6421,4.6311,4.6311,4.6311,4.6311,4.6311,4.6311,4.6311,4.6311,4.6311,4.6311,4.6311,4.6311,4.6311,4.6311,4.6311,4.6311,4.6311,4.6311,4.6311,4.6311,4.6311,4.6311,4.6276,4.6276,4.616,4.616,4.601,4.606,4.6085,4.621,4.616,4.611,4.601,4.5809,4.5432,4.5583,4.5784,4.5884,4.5984,4.606,4.611,4.616,4.621,4.6311,4.6311,4.6311,4.6311,4.6311,4.6311,4.6311,4.6311,4.6311,4.6311,4.6311,4.6311,4.6311,4.6311,4.6311,4.6311,4.6311,4.6311,4.6311,4.6311,4.6311,5.4503,5.459,5.5171,5.578,5.6403,5.7042,5.7216,5.7129,5.7216,5.7216,5.7188,5.7161,5.6437,5.5427,5.5062,5.3712,5.2,5.1486,5.0979,5.003,4.9758,4.959,4.959,4.959,4.959,4.959,4.959,4.959,4.959,4.959,4.959,4.959,4.959,4.959,4.959,4.959,4.959,4.959,4.959,4.959,4.9565,4.9506,4.9154,4.8727,4.8526,4.8149,4.7631,4.7239,4.7099,4.7048,4.6737,4.6562,4.6461,4.6411,4.6386,4.6311,4.6311,4.6311,4.6311,4.6311,4.6311,4.6311,4.6311,4.6311,4.6311,4.6311,4.6311,4.6311,4.6311,4.6311,4.6311,4.6311,4.6311,4.6311,4.6311,4.6311,4.6311,4.6311,4.6311,4.6311,4.6311,4.6286,4.6286,4.6261,4.6261,4.6185,4.6235,4.6311,4.6311,4.6311,4.6311,4.6311,4.6311,4.6311,4.6311,4.6311,4.6311,4.6311,4.6311,4.6311,4.6311,4.6311,4.6311,4.6311,4.6311,4.6311,4.6311,4.6311,4.6311,4.6311,4.6311,4.6311,4.6311,4.6311,4.6311,5.3836,5.388,5.4532,5.4938,5.5229,5.5794,5.6055,5.6113,5.6477,5.6723,5.6614,5.6265,5.5339,5.4456,5.3964,5.283,5.079,5.1299,5.0822,4.9719,4.959,4.959,4.959,4.959,4.959,4.959,4.959,4.959,4.959,4.959,4.959,4.959,4.959,4.959,4.959,4.959,4.959,4.959,4.959,4.959,4.959,4.9581,4.9355,4.8853,4.8827,4.8576,4.8043,4.7767,4.7666,4.76,4.729,4.7139,4.6913,4.6823,4.6672,4.6461,4.6336,4.6311,4.6311,4.6311,4.6311,4.6336,4.6311,4.6311,4.6311,4.6311,4.6311,4.6311,4.6311,4.6311,4.6311,4.6311,4.6311,4.6311,4.6311,4.6311,4.6311,4.6311,4.6311,4.6311,4.6311,4.6311,4.6311,4.6311,4.6311,4.6311,4.6311,4.6311,4.6311,4.6311,4.6311,4.6311,4.6311,4.6311,4.6311,4.6311,4.6311,4.6311,4.6311,4.6311,4.6311,4.6311,4.6311,4.6311,4.6311,4.6311,4.6311,4.6311,4.6311,4.6311,4.6311,4.6311,4.6311,4.6311,4.6311,5.3487,5.3545,5.3952,5.4155,5.43,5.5055,5.5403,5.5519,5.6086,5.6166,5.5834,5.5851,5.4797,5.3544,5.3059,5.2072,4.9879,5.034,5.0648,4.9606,4.959,4.959,4.959,4.959,4.959,4.959,4.959,4.959,4.959,4.959,4.959,4.959,4.959,4.959,4.959,4.959,4.959,4.959,4.959,4.959,4.959,4.9565,4.9455,4.9204,4.9053,4.8928,4.856,4.8335,4.8209,4.8159,4.8008,4.7792,4.749,4.7324,4.7174,4.6938,4.6863,4.6888,4.6913,4.6938,4.7004,4.6979,4.6562,4.6311,4.6311,4.6311,4.6311,4.6311,4.6311,4.6311,4.6311,4.6311,4.6311,4.6311,4.6311,4.6311,4.6311,4.6311,4.6311,4.6311,4.6311,4.6311,4.6311,4.6311,4.6311,4.6311,4.6311,4.6311,4.6311,4.6311,4.6311,4.6311,4.6311,4.6311,4.6311,4.6311,4.6311,4.6311,4.6311,4.6311,4.6311,4.6311,4.6311,4.6311,4.6311,4.6311,4.6311,4.6311,4.6311,4.6311,4.6311,4.6311,4.6311,4.6311,4.6311,5.3487,5.3487,5.3487,5.3516,5.372,5.4735,5.5229,5.5387,5.6041,5.5689,5.4713,5.6406,5.5136,5.2497,5.2983,5.1995,5.0174,4.9918,4.9806,4.967,4.959,4.959,4.959,4.959,4.959,4.959,4.959,4.959,4.959,4.959,4.959,4.959,4.959,4.959,4.959,4.959,4.959,4.959,4.959,4.959,4.959,4.959,4.954,4.9439,4.9414,4.9414,4.9213,4.9012,4.8878,4.8677,4.8335,4.8109,4.7958,4.7933,4.7933,4.7857,4.7767,4.7716,4.7707,4.7657,4.7682,4.7506,4.6938,4.6537,4.6386,4.6461,4.6436,4.6336,4.6311,4.6311,4.6311,4.6311,4.6311,4.6311,4.6311,4.6311,4.6311,4.6311,4.6311,4.6311,4.6311,4.6311,4.6311,4.6311,4.6311,4.6311,4.6311,4.6311,4.6311,4.6311,4.6311,4.6311,4.6311,4.6311,4.6311,4.6311,4.6311,4.6311,4.6311,4.6311,4.6311,4.6311,4.6311,4.6311,4.6311,4.6311,4.6311,4.6311,4.6311,4.6311,4.6311,4.6311,4.6311,4.6311,4.6311,5.3487,5.3487,5.3487,5.3487,5.3545,5.3894,5.4039,5.4184,5.5184,5.5403,5.5199,5.5681,5.4695,5.3074,5.3344,5.1778,5.0816,5.0292,5.0165,4.995,4.959,4.959,4.959,4.959,4.959,4.959,4.959,4.959,4.959,4.959,4.959,4.959,4.959,4.959,4.959,4.959,4.959,4.959,4.959,4.959,4.959,4.959,4.959,4.959,4.959,4.959,4.949,4.9439,4.9314,4.9238,4.9188,4.8987,4.8551,4.8526,4.8451,4.7958,4.7883,4.7883,4.7908,4.7933,4.7983,4.8058,4.7631,4.7265,4.6998,4.6848,4.6737,4.6637,4.6537,4.6562,4.6486,4.6436,4.6361,4.6311,4.6311,4.6311,4.6311,4.6311,4.6311,4.6311,4.6311,4.6311,4.6311,4.6311,4.6311,4.6311,4.6311,4.6336,4.6336,4.6336,4.6311,4.6311,4.6311,4.6311,4.6311,4.6311,4.6311,4.6311,4.6311,4.6311,4.6311,4.6311,4.6311,4.6311,4.6311,4.6311,4.6311,4.6311,4.6311,4.6311,4.6311,4.6311,4.6311,4.6311,4.6311,5.3487,5.3487,5.3487,5.3487,5.3487,5.3487,5.3487,5.372,5.4851,5.5169,5.4749,5.5223,5.4399,5.2769,5.2508,5.1575,4.9831,5.0126,5.0133,4.979,4.959,4.959,4.959,4.959,4.959,4.959,4.959,4.959,4.959,4.959,4.959,4.959,4.959,4.959,4.959,4.959,4.959,4.959,4.959,4.959,4.959,4.959,4.959,4.959,4.959,4.959,4.959,4.959,4.959,4.959,4.959,4.9464,4.9129,4.9104,4.9038,4.8661,4.8661,4.8686,4.8727,4.8677,4.8611,4.856,4.851,4.8284,4.7883,4.7606,4.734,4.7139,4.7014,4.6913,4.6763,4.6612,4.6461,4.6336,4.6311,4.6311,4.6311,4.6311,4.6311,4.6311,4.6311,4.6311,4.6311,4.6311,4.6311,4.6311,4.6386,4.6486,4.6461,4.6421,4.6361,4.6311,4.6311,4.6311,4.6336,4.6436,4.6436,4.6411,4.6311,4.6311,4.6311,4.6336,4.6386,4.6336,4.6311,4.6361,4.6461,4.6336,4.6311,4.6361,4.6436,4.6386,4.6361,4.6311,4.6311,5.3487,5.3487,5.3487,5.3487,5.3487,5.3487,5.3487,5.3661,5.4851,5.4799,5.4149,5.4907,5.4101,5.2512,5.1927,5.1027,4.9918,4.9831,4.9902,4.959,4.959,4.959,4.959,4.959,4.959,4.959,4.959,4.959,4.959,4.959,4.959,4.959,4.959,4.964,4.9791,4.9791,4.9816,4.9841,4.9775,4.975,4.964,4.959,4.959,4.959,4.959,4.959,4.959,4.959,4.959,4.959,4.959,4.9565,4.954,4.9531,4.949,4.9464,4.9339,4.9339,4.9314,4.9289,4.9389,4.9439,4.9565,4.9179,4.8702,4.8234,4.7908,4.7606,4.7481,4.7365,4.7239,4.7164,4.7039,4.6913,4.6863,4.6863,4.6863,4.6863,4.6863,4.6863,4.6838,4.6838,4.6838,4.6888,4.6938,4.6637,4.6637,4.6838,4.6838,4.6772,4.6737,4.6637,4.6712,4.6813,4.6788,4.6838,4.6687,4.6587,4.6537,4.6637,4.6863,4.6712,4.6461,4.6662,4.6888,4.6702,4.6677,4.6712,4.6763,4.6763,4.6763,4.6562,4.6512,4.6562,4.6386,5.3487,5.3487,5.3487,5.3487,5.3487,5.3487,5.3487,5.3632,5.4851,5.5183,5.5029,5.5053,5.4471,5.283,5.1674,5.0648,4.9806,4.959,4.959,4.959,4.959,4.959,4.959,4.959,4.959,4.959,4.959,4.959,4.959,4.959,4.959,4.959,4.964,4.9816,5.0117,5.0167,5.0218,5.0218,5.0101,4.9975,4.9816,4.9665,4.959,4.9615,4.9615,4.964,4.9615,4.9615,4.959,4.959,4.959,4.959,4.959,4.959,4.959,4.959,4.959,4.959,4.959,4.959,4.959,4.959,4.959,4.9531,4.928,4.8827,4.8451,4.8134,4.7958,4.7867,4.7767,4.7716,4.7616,4.7531,4.7431,4.7431,4.7431,4.7415,4.7415,4.744,4.7456,4.7431,4.7405,4.7456,4.7506,4.7531,4.7556,4.7631,4.7631,4.7591,4.7641,4.7566,4.7531,4.7556,4.7431,4.7305,4.7179,4.7255,4.733,4.7405,4.7431,4.7305,4.7139,4.7415,4.7566,4.733,4.7255,4.7506,4.7531,4.733,4.728,4.7154,4.728,4.7355,4.6928,5.3094,5.3123,5.3413,5.3487,5.3487,5.3487,5.3487,5.3691,5.4561,5.4829,5.4582,5.4461,5.3859,5.257,5.1262,5.0499,4.9654,4.959,4.959,4.959,4.959,4.959,4.959,4.959,4.959,4.959,4.959,4.959,4.959,4.959,4.959,4.9665,4.9791,5.0117,5.0477,5.0619,5.0795,5.0795,5.0578,5.0377,5.0142,4.9941,4.9841,4.9816,4.9791,4.9791,4.9816,4.9766,4.9615,4.959,4.959,4.959,4.959,4.959,4.959,4.959,4.959,4.959,4.964,4.9665,4.969,4.969,4.9615,4.9565,4.9556,4.9179,4.9154,4.8862,4.8862,4.8786,4.8435,4.8309,4.8033,4.7857,4.7757,4.7707,4.7707,4.7707,4.7707,4.7707,4.7707,4.7707,4.7707,4.7707,4.7757,4.7741,4.7867,4.8184,4.8209,4.8309,4.8385,4.8385,4.8284,4.8008,4.7732,4.7707,4.7707,4.7857,4.8033,4.7883,4.7782,4.7832,4.7883,4.8008,4.8008,4.7832,4.7857,4.8058,4.7958,4.7682,4.7732,4.7807,4.7958,4.8058,4.7657,5.2539,5.2685,5.3165,5.3429,5.3487,5.3487,5.3487,5.3632,5.42,5.4021,5.333,5.3364,5.2578,5.1455,5.0229,4.9847,4.959,4.959,4.959,4.959,4.959,4.959,4.959,4.959,4.959,4.959,4.959,4.959,4.959,4.9715,4.9841,4.9841,5.0151,5.0578,5.077,5.1046,5.1389,5.1297,5.1147,5.0996,5.067,5.0318,5.0226,5.0151,5.0142,5.0134,5.0218,5.0167,4.9866,4.9891,4.9992,5.0042,5.0042,5.0067,5.0017,5.0042,5.0067,5.0058,5.0008,5.0058,5.0008,4.9907,4.9766,4.9715,4.9715,4.9615,4.959,4.954,4.954,4.9389,4.9053,4.8802,4.851,4.8335,4.8234,4.8184,4.8184,4.8184,4.8159,4.8159,4.8159,4.8159,4.8159,4.8134,4.8134,4.8093,4.8209,4.8485,4.8727,4.8853,4.8937,4.8912,4.8812,4.851,4.8259,4.8259,4.836,4.846,4.8586,4.8294,4.8168,4.8435,4.851,4.836,4.8309,4.836,4.836,4.8485,4.8309,4.8184,4.8385,4.856,4.851,4.856,4.8385,5.2107,5.2639,5.273,5.3036,5.3429,5.3487,5.3487,5.3617,5.4144,5.3578,5.2443,5.2459,5.22,5.1398,5.019,4.9622,4.9606,4.967,4.9638,4.959,4.9815,4.9719,4.959,4.959,4.959,4.959,4.959,4.9615,4.9791,5.0067,5.0252,5.0277,5.0862,5.1297,5.1707,5.1925,5.1925,5.185,5.1749,5.1624,5.1188,5.087,5.0728,5.082,5.1038,5.1038,5.1063,5.1038,5.0987,5.0962,5.087,5.0837,5.0812,5.0761,5.0736,5.0686,5.0711,5.0736,5.0711,5.0711,5.0661,5.0686,5.0544,5.0268,5.0142,4.9816,4.9766,4.9665,4.964,4.959,4.9339,4.9339,4.9163,4.9163,4.9113,4.9088,4.9088,4.9088,4.9088,4.9088,4.9088,4.9088,4.9088,4.9063,4.9063,4.9022,4.8997,4.9238,4.9188,4.9339,4.9455,4.9364,4.9238,4.9389,4.9289,4.9088,4.9138,4.9188,4.9163,4.8962,4.8962,4.9238,4.9238,4.8962,4.9038,4.9188,4.9163,4.8912,4.9038,4.9038,4.9238,4.9339,4.9213,4.9088,4.8912]},{"header":{"parameterUnit":"m.s-1","parameterCategory":1,"la1":31.0,"la2":29.5877,"lo1":-88.7671,"lo2":-86.6584,"dy":0.0162,"dx":0.0185,"nx":115,"ny":88,"refTime":"2023-05-24T18:00:00:Z","depth":0,"parameterNumber":3,"parameterNumberName":"V-component_of_WINDS"},"data":[0.0,0.0,0.0,0.0,0.0,0.0,0.0,0.0,0.0,0.0,0.0,0.0,0.0,0.0,0.0,0.0,0.0,0.0,0.0,0.0,0.0,0.0,0.0,0.0,0.0,0.0,0.0,0.0,0.0,0.0,0.0,0.0,0.0,0.0,0.0,0.0,0.0,0.0,0.0,0.0,0.0,0.0,0.0,0.0,0.0,0.0,0.0,0.0,0.0,0.0,0.0,0.0,0.0,0.0,0.0,0.0,0.0,0.0,0.0,0.0,0.0,0.0,0.0,0.0,0.0,0.0,0.0,0.0,0.0,0.0,0.0,0.0,0.0,0.0,0.0,0.0,0.0,0.0,0.0,0.0,0.0,0.0,0.0,0.0,0.0,0.0,0.0,0.0,0.0,0.0,0.0,0.0,0.0,0.0,0.0,0.0,0.0,0.0,0.0,0.0,0.0,0.0,0.0,0.0,0.0,0.0,0.0,0.0,0.0,0.0,0.0,0.0,0.0,0.0,0.0,0.0,0.0,0.0,0.0,0.0,0.0,0.0,0.0,0.0,0.0,0.0,0.0,0.0,0.0,0.0,0.0,0.0,0.0,0.0,0.0,0.0,0.0,0.0,0.0,0.0,0.0,0.0,0.0,0.0,0.0,0.0,0.0,0.0,0.0,0.0,0.0,0.0,0.0,0.0,0.0,0.0,0.0,0.0,0.0,0.0,0.0,0.0,0.0,0.0,0.0,0.0,0.0,0.0,0.0,0.0,0.0,0.0,0.0,0.0,0.0,0.0,0.0,0.0,0.0,0.0,0.0,0.0,0.0,0.0,0.0,0.0,0.0,0.0,0.0,0.0,0.0,0.0,0.0,0.0,0.0,0.0,0.0,0.0,0.0,0.0,0.0,0.0,0.0,0.0,0.0,0.0,0.0,0.0,0.0,0.0,0.0,0.0,0.0,0.0,0.0,0.0,0.0,0.0,0.0,0.0,0.0,0.0,0.0,0.0,0.0,0.0,0.0,0.0,0.0,0.0,0.0,0.0,0.0,0.0,0.0,0.0,0.0,0.0,0.0,0.0,0.0,0.0,0.0,0.0,0.0,0.0,0.0,0.0,0.0,0.0,0.0,0.0,0.0,0.0,0.0,0.0,0.0,0.0,0.0,0.0,0.0,0.0,0.0,0.0,0.0,0.0,0.0,0.0,0.0,0.0,0.0,0.0,0.0,0.0,0.0,0.0,0.0,0.0,0.0,0.0,0.0,0.0,0.0,0.0,0.0,0.0,0.0,0.0,0.0,0.0,0.0,0.0,0.0,0.0,0.0,0.0,0.0,0.0,0.0,0.0,0.0,0.0,0.0,0.0,0.0,0.0,0.0,0.0,0.0,0.0,0.0,0.0,0.0,0.0,0.0,0.0,0.0,0.0,0.0,0.0,0.0,0.0,0.0,0.0,0.0,0.0,0.0,0.0,0.0,0.0,0.0,0.0,0.0,0.0,0.0,0.0,0.0,0.0,0.0,0.0,0.0,0.0,0.0,0.0,0.0,0.0,0.0,0.0,0.0,0.0,0.0,0.0,0.0,0.0,0.0,0.0,0.0,0.0,0.0,0.0,0.0,0.0,0.0,0.0,0.0,0.0,0.0,0.0,0.0,0.0,0.0,0.0,0.0,0.0,0.0,0.0,0.0,0.0,0.0,0.0,0.0,0.0,0.0,0.0,0.0,0.0,0.0,0.0,0.0,0.0,0.0,0.0,0.0,0.0,0.0,0.0,0.0,0.0,0.0,0.0,0.0,0.0,0.0,0.0,0.0,0.0,0.0,0.0,0.0,0.0,0.0,0.0,0.0,0.0,0.0,0.0,0.0,0.0,0.0,0.0,0.0,0.0,0.0,0.0,0.0,0.0,0.0,0.0,0.0,0.0,0.0,0.0,0.0,0.0,0.0,0.0,0.0,0.0,0.0,0.0,0.0,0.0,0.0,0.0,0.0,0.0,0.0,0.0,0.0,0.0,0.0,0.0,0.0,0.0,0.0,0.0,0.0,0.0,0.0,0.0,0.0,0.0,0.0,0.0,0.0,0.0,0.0,0.0,0.0,0.0,0.0,0.0,0.0,0.0,0.0,0.0,0.0,0.0,0.0,0.0,0.0,0.0,0.0,0.0,0.0,0.0,0.0,0.0,0.0,0.0,0.0,0.0,0.0,0.0,0.0,0.0,0.0,0.0,0.0,0.0,0.0,0.0,0.0,0.0,0.0,0.0,0.0,0.0,0.0,0.0,0.0,0.0,0.0,0.0,0.0,0.0,0.0,0.0,0.0,0.0,0.0,0.0,0.0,0.0,0.0,0.0,0.0,0.0,0.0,0.0,0.0,0.0,0.0,0.0,0.0,0.0,0.0,0.0,0.0,0.0,0.0,0.0,0.0,0.0,0.0,0.0,0.0,0.0,0.0,0.0,0.0,0.0,0.0,0.0,0.0,0.0,0.0,0.0,0.0,0.0,0.0,0.0,0.0,0.0,0.0,0.0,0.0,0.0,0.0,0.0,0.0,0.0,0.0,0.0,0.0,0.0,0.0,0.0,0.0,0.0,0.0,0.0,0.0,0.0,0.0,0.0,0.0,0.0,0.0,0.0,0.0,0.0,0.0,0.0,0.0,0.0,0.0,0.0,0.0,0.0,0.0,0.0,0.0,0.0,0.0,0.0,0.0,0.0,0.0,0.0,0.0,0.0,0.0,0.0,0.0,0.0,0.0,0.0,0.0,0.0,0.0,0.0,0.0,0.0,0.0,0.0,0.0,0.0,0.0,0.0,0.0,0.0,0.0,0.0,0.0,0.0,0.0,0.0,0.0,0.0,0.0,0.0,0.0,0.0,0.0,0.0,0.0,0.0,0.0,0.0,0.0,0.0,0.0,0.0,0.0,0.0,0.0,0.0,0.0,0.0,0.0,0.0,0.0,0.0,0.0,0.0,0.0,0.0,0.0,0.0,0.0,0.0,0.0,0.0,0.0,0.0,0.0,0.0,0.0,0.0,0.0,0.0,0.0,0.0,0.0,0.0,0.0,0.0,0.0,0.0,0.0,0.0,0.0,0.0,0.0,0.0,0.0,0.0,0.0,0.0,0.0,0.0,0.0,0.0,0.0,0.0,0.0,0.0,0.0,0.0,0.0,0.0,0.0,0.0,0.0,0.0,0.0,0.0,0.0,0.0,0.0,0.0,0.0,0.0,0.0,0.0,0.0,0.0,0.0,0.0,0.0,0.0,0.0,0.0,0.0,0.0,0.0,0.0,0.0,0.0,0.0,0.0,0.0,0.0,0.0,0.0,0.0,0.0,0.0,0.0,0.0,0.0,0.0,0.0,0.0,0.0,0.0,0.0,0.0,0.0,0.0,0.0,0.0,0.0,0.0,0.0,0.0,0.0,0.0,0.0,0.0,0.0,0.0,0.0,0.0,0.0,0.0,0.0,0.0,0.0,0.0,0.0,0.0,0.0,0.0,0.0,0.0,0.0,0.0,0.0,0.0,0.0,0.0,0.0,0.0,0.0,0.0,0.0,0.0,0.0,0.0,0.0,0.0,0.0,0.0,0.0,0.0,0.0,0.0,0.0,0.0,0.0,0.0,0.0,0.0,0.0,0.0,0.0,0.0,0.0,0.0,0.0,0.0,0.0,0.0,0.0,0.0,0.0,0.0,0.0,0.0,0.0,0.0,0.0,0.0,0.0,0.0,0.0,0.0,0.0,0.0,0.0,0.0,0.0,0.0,0.0,0.0,0.0,0.0,0.0,0.0,0.0,0.0,0.0,0.0,0.0,0.0,0.0,0.0,0.0,0.0,0.0,0.0,0.0,0.0,0.0,0.0,0.0,0.0,0.0,0.0,0.0,0.0,0.0,0.0,0.0,0.0,0.0,0.0,0.0,0.0,0.0,0.0,0.0,0.0,0.0,0.0,0.0,0.0,0.0,0.0,0.0,0.0,0.0,0.0,0.0,0.0,0.0,0.0,0.0,0.0,0.0,0.0,0.0,0.0,0.0,0.0,0.0,0.0,0.0,0.0,0.0,0.0,0.0,0.0,0.0,0.0,0.0,0.0,0.0,0.0,0.0,0.0,0.0,0.0,0.0,0.0,0.0,0.0,0.0,0.0,0.0,0.0,0.0,0.0,0.0,0.0,0.0,0.0,0.0,0.0,0.0,0.0,0.0,0.0,0.0,0.0,0.0,0.0,0.0,0.0,0.0,0.0,0.0,0.0,0.0,0.0,0.0,0.0,0.0,0.0,0.0,0.0,0.0,0.0,0.0,0.9496,0.0,0.0,0.0,0.0,0.0,0.0,0.0,0.0,0.0,0.0,0.0,0.0,0.0,0.0,0.0,0.0,0.0,0.0,0.0,0.0,0.0,0.0,0.0,0.0,0.0,0.0,0.0,0.0,0.0,0.0,0.0,0.0,0.0,0.0,0.0,0.0,0.0,0.0,0.0,0.0,0.0,0.0,0.0,0.0,0.0,0.0,0.0,0.0,0.0,0.0,0.0,0.0,0.0,0.0,0.0,0.0,0.0,0.0,0.0,0.0,0.0,0.0,0.0,0.0,0.0,0.0,0.0,0.0,0.0,0.0,0.0,0.0,0.0,0.0,0.0,0.0,0.0,0.0,0.0,0.0,0.0,0.0,0.0,0.0,0.0,0.0,0.0,0.0,0.0,0.0,0.0,0.0,0.0,0.0,0.0,0.0,0.0,0.0,0.0,0.0,0.0,0.0,0.0,0.0,0.0,0.0,0.0,0.0,0.0,0.0,0.9598,0.957,0.9624,0.9743,0.9995,0.0,0.0,0.0,0.0,0.0,0.0,0.0,0.0,0.0,0.0,0.0,0.0,0.0,0.0,0.0,0.0,0.0,0.0,0.0,0.0,0.0,0.0,0.0,0.0,0.0,0.0,0.0,0.0,0.0,0.0,0.0,0.0,0.0,0.0,0.0,0.0,0.0,0.0,0.0,0.0,0.0,0.0,0.0,0.0,0.0,0.0,0.0,0.0,0.0,0.0,0.0,0.0,0.0,0.0,0.0,0.0,0.0,0.0,0.0,0.0,0.0,0.0,0.0,0.0,0.0,0.0,0.0,0.0,0.0,0.0,0.0,0.0,0.0,0.0,0.0,0.0,0.0,0.0,0.0,0.0,0.0,0.0,0.0,0.0,0.0,0.0,0.0,0.0,0.0,0.0,0.0,0.0,0.0,0.0,0.0,0.0,0.0,0.0,0.0,0.0,0.0,0.0,0.0,0.0,0.0,0.0,0.0,0.0,0.0,0.0,0.0,0.0,1.0104,1.0269,1.056,0.0,0.0,0.0,0.0,0.0,0.0,0.0,0.0,0.0,0.0,0.0,0.0,0.0,0.0,0.0,0.0,0.0,0.0,0.0,0.0,0.0,0.0,0.0,0.0,0.0,0.0,0.0,0.0,0.0,0.0,0.0,0.0,0.0,0.0,0.0,0.0,0.0,0.0,0.0,0.0,0.0,0.0,0.0,0.0,0.0,0.0,0.0,0.0,0.0,0.0,0.0,0.0,0.0,0.0,0.0,0.0,0.0,0.0,0.0,0.0,0.0,0.0,0.0,0.0,0.0,0.0,0.0,0.0,0.0,0.0,0.0,0.0,0.0,0.0,0.0,0.0,0.0,0.0,0.0,0.0,0.0,0.0,0.0,0.0,0.0,0.0,0.0,0.0,0.0,0.0,0.0,0.0,0.0,0.0,0.0,0.0,0.0,0.0,0.0,0.0,0.0,0.0,0.0,0.0,0.0,0.0,0.0,0.0,0.0,0.0,1.0512,1.0635,1.0741,0.0,1.1025,0.0,0.0,0.0,0.0,0.0,0.0,0.0,0.0,0.0,0.0,0.0,0.0,0.0,0.0,0.0,0.0,0.0,0.0,0.0,0.0,0.0,0.0,0.0,0.0,0.0,0.0,0.0,0.0,0.0,0.0,0.0,0.0,0.0,0.0,0.0,0.0,0.0,0.0,0.0,0.0,0.0,0.0,0.0,0.0,0.0,0.0,0.0,0.0,0.0,0.0,0.0,0.0,0.0,0.0,0.0,0.0,0.0,0.0,0.0,0.0,0.0,0.0,0.0,0.0,0.0,0.0,0.0,0.0,0.0,0.0,0.0,0.0,0.0,0.0,0.0,0.0,0.0,0.0,0.0,0.0,0.0,0.0,0.0,0.0,0.0,0.0,0.0,0.0,0.0,0.0,0.0,0.0,0.0,0.0,0.0,0.0,0.0,0.0,0.0,0.0,0.0,0.0,0.0,0.0,0.0,0.0,0.0,0.0,0.0,0.0,1.1033,1.1154,1.1413,1.1373,0.0,0.0,0.0,0.0,0.0,0.0,0.0,0.0,0.0,0.0,0.0,0.0,0.0,0.0,0.0,0.0,0.0,0.0,0.0,0.0,0.0,0.0,0.0,0.0,0.0,0.0,0.0,0.0,0.0,0.0,0.0,0.0,0.0,0.0,0.0,0.0,0.0,0.0,0.0,0.0,0.0,0.0,0.0,0.0,0.0,0.0,0.0,0.0,0.0,0.0,0.0,0.0,0.0,0.0,0.0,0.0,0.0,0.0,0.0,0.0,0.0,0.0,0.0,0.0,0.0,0.0,0.0,0.0,0.0,0.0,0.0,0.0,0.0,0.0,0.0,0.0,0.0,0.0,0.0,0.0,0.0,0.0,0.0,0.0,0.0,0.0,0.0,0.0,0.0,0.0,0.0,0.0,0.0,0.0,0.0,0.0,0.0,0.0,0.0,0.0,0.0,0.0,0.0,0.0,0.0,0.0,0.0,0.0,0.0,0.0,1.1056,1.1549,1.1705,1.2002,1.1822,1.1149,0.0,0.0,0.0,0.0,0.0,0.0,0.0,0.0,0.0,0.0,0.0,0.0,0.0,0.0,0.0,0.0,0.0,0.0,0.0,0.0,0.0,0.0,0.0,0.0,0.0,0.0,0.0,0.0,0.0,0.0,0.0,0.0,0.0,0.0,0.0,0.0,0.0,0.0,0.0,0.0,0.0,0.0,0.0,0.0,0.0,0.0,0.0,0.0,0.0,0.0,0.0,0.0,0.0,0.0,0.0,0.0,0.0,0.0,0.0,0.0,0.0,0.0,0.0,0.0,0.0,0.0,0.0,0.0,0.0,0.0,0.0,0.0,0.0,0.0,0.0,0.0,0.0,0.0,0.0,0.0,0.0,0.0,0.0,0.0,0.0,0.0,0.0,0.0,0.0,0.0,0.0,0.0,0.0,0.0,0.0,0.0,0.0,0.0,0.0,0.0,0.0,0.0,0.0,0.0,0.0,0.0,0.0,0.0,1.0868,1.1519,1.1999,1.224,1.24,1.2223,0.0,0.0,0.0,0.0,0.0,0.0,0.0,0.0,0.0,0.0,0.0,0.0,0.0,0.0,0.0,0.0,0.0,0.0,0.0,0.0,0.0,0.0,0.0,0.0,0.0,0.0,0.0,0.0,0.0,0.0,0.0,0.0,0.0,0.0,0.0,0.0,0.0,0.0,0.0,0.0,0.0,0.0,0.0,0.0,0.0,0.0,0.0,0.0,0.0,0.0,0.0,0.0,0.0,0.0,0.0,0.0,0.0,0.0,0.0,0.0,0.0,0.0,0.0,0.0,0.0,0.0,0.0,0.0,0.0,0.0,0.0,0.0,0.0,0.0,0.0,0.0,0.0,0.0,0.0,0.0,0.0,0.0,0.0,0.0,0.0,0.0,0.0,0.0,0.0,0.0,0.0,0.0,0.0,0.0,0.0,0.0,0.0,0.0,0.0,0.0,0.0,0.0,0.0,0.0,0.0,0.0,0.0,0.0,0.0,1.0675,1.1556,1.2079,1.2197,1.2474,1.2443,0.0,0.0,0.0,0.0,0.0,0.0,0.0,0.0,0.0,0.0,0.0,0.0,0.0,0.0,0.0,0.0,0.0,0.0,0.0,0.0,0.0,0.0,0.0,0.0,0.0,0.0,0.0,0.0,0.0,0.0,0.0,0.0,0.0,0.0,0.0,0.0,0.0,0.0,0.0,0.0,0.0,0.0,0.0,0.0,0.0,0.0,0.0,0.0,0.0,0.0,0.0,0.0,0.0,0.0,0.0,0.0,0.0,0.0,0.0,0.0,0.0,0.0,0.0,0.0,0.0,0.0,0.0,0.0,0.0,0.0,0.0,0.0,0.0,0.0,0.0,0.0,0.0,0.0,0.0,0.0,0.0,0.0,0.0,0.0,0.0,0.0,0.0,0.0,0.0,0.0,0.0,0.0,0.0,0.0,0.0,0.0,0.0,0.0,0.0,0.0,0.0,0.0,0.0,0.0,0.0,0.0,0.0,0.0,0.0,1.1096,0.0,1.2453,1.2375,1.2663,1.2655,0.0,0.0,0.0,0.0,0.0,0.0,0.0,0.0,0.0,0.0,0.0,0.0,0.0,0.0,0.0,0.0,0.0,0.0,0.0,0.0,0.0,0.0,0.0,0.0,0.0,0.0,0.0,0.0,0.0,0.0,0.0,0.0,0.0,0.0,0.0,0.0,0.0,0.0,0.0,0.0,0.0,0.0,0.0,0.0,0.0,0.0,0.0,0.0,0.0,0.0,0.0,0.0,0.0,0.0,0.0,0.0,0.0,0.0,0.0,0.0,0.0,0.0,0.0,0.0,0.0,0.0,0.0,0.0,0.0,0.0,0.0,0.0,0.0,0.0,0.0,0.0,0.0,0.0,0.0,0.0,0.0,0.0,0.0,0.0,0.0,0.0,0.0,0.0,0.0,0.0,0.0,0.0,0.0,0.0,0.0,0.0,0.0,0.0,0.0,0.0,0.0,0.0,0.0,0.0,0.0,0.0,0.0,0.0,1.0886,1.2245,1.2961,1.3188,1.2949,1.3066,1.2894,0.0,0.0,0.0,0.0,0.0,0.0,0.0,0.0,0.0,0.0,0.0,0.0,0.0,0.0,0.0,0.0,0.0,0.0,0.0,0.0,0.0,0.0,0.0,0.0,0.0,0.0,0.0,0.0,0.0,0.0,0.0,0.0,0.0,0.0,0.0,0.0,0.0,0.0,0.0,0.0,0.0,0.0,0.0,0.0,0.0,0.0,0.0,0.0,0.0,0.0,0.0,0.0,0.0,0.0,0.0,0.0,0.0,0.0,0.0,0.0,0.0,0.0,0.0,0.0,0.0,0.0,0.0,0.0,0.0,0.0,0.0,0.0,0.0,0.0,0.0,0.0,0.0,0.0,0.0,0.0,0.0,0.0,0.0,0.0,0.0,0.0,0.0,0.0,0.0,0.0,0.0,0.0,0.0,0.0,0.0,0.0,0.0,0.0,0.0,0.0,0.0,0.0,0.0,0.0,0.0,0.0,0.0,0.0,0.0,1.306,1.3707,1.4015,1.3938,1.3828,1.3743,0.0,0.0,0.0,0.0,0.0,0.0,0.0,0.0,0.0,0.0,0.0,0.0,0.0,0.0,0.0,0.0,0.0,0.0,0.0,0.0,0.0,0.0,0.0,0.0,0.0,0.0,0.0,0.0,0.0,0.0,0.0,0.0,0.0,0.0,0.0,0.0,0.0,0.0,0.0,0.0,0.0,0.0,0.0,0.0,0.0,0.0,0.0,0.0,0.0,0.0,0.0,0.0,0.0,0.0,0.0,0.0,0.0,0.0,0.0,0.0,0.0,0.0,0.0,0.0,0.0,0.0,0.0,0.0,0.0,0.0,0.0,0.0,0.0,0.0,0.0,0.0,0.0,0.0,0.0,0.0,0.0,0.0,0.0,0.0,0.0,0.0,0.0,0.0,0.0,0.0,0.0,0.0,0.0,0.0,0.0,0.0,0.0,0.0,0.0,0.0,0.0,0.0,0.0,0.0,0.0,0.0,0.0,0.0,0.0,1.5027,1.5244,1.5345,1.5383,1.5035,1.4799,1.4719,0.0,0.0,0.0,0.0,0.0,0.0,0.0,0.0,0.0,0.0,0.0,0.0,0.0,0.0,0.0,0.0,0.0,0.0,0.0,0.0,0.0,0.0,0.0,0.0,0.0,0.0,0.0,0.0,0.0,0.0,0.0,0.0,0.0,0.0,0.0,0.0,0.0,0.0,0.0,0.0,0.0,0.0,0.0,0.0,0.0,0.0,0.0,0.0,0.0,0.0,0.0,0.0,0.0,0.0,0.0,0.0,0.0,0.0,0.0,0.0,0.0,0.0,0.0,0.0,0.0,0.0,0.0,0.0,0.0,0.0,0.0,0.0,0.0,0.0,0.0,0.0,0.0,0.0,0.0,0.0,0.0,0.0,0.0,0.0,0.0,0.0,0.0,0.0,0.0,0.0,0.0,0.0,0.0,0.0,0.0,0.0,0.0,0.0,0.0,0.0,0.0,0.0,0.0,0.0,0.0,0.0,0.0,0.0,1.788,1.7464,1.7254,1.7217,1.6662,1.6171,0.0,0.0,0.0,0.0,0.0,0.0,0.0,0.0,0.0,0.0,0.0,0.0,0.0,0.0,0.0,0.0,0.0,0.0,0.0,0.0,0.0,0.0,0.0,0.0,0.0,0.0,0.0,0.0,0.0,0.0,0.0,0.0,0.0,0.0,0.0,0.0,0.0,0.0,0.0,0.0,0.0,0.0,0.0,0.0,0.0,0.0,0.0,0.0,0.0,0.0,0.0,0.0,0.0,0.0,0.0,0.0,0.0,0.0,0.0,0.0,0.0,0.0,0.0,0.0,0.0,0.0,0.0,0.0,0.0,0.0,0.0,0.0,0.0,0.0,0.0,0.0,0.0,0.0,0.0,0.0,0.0,0.0,0.0,0.0,0.0,0.0,0.0,0.0,0.0,0.0,0.0,0.0,0.0,0.0,0.0,0.0,0.0,0.0,0.0,0.0,0.0,0.0,0.0,0.0,0.0,0.0,0.0,0.0,0.0,1.9174,2.0595,2.0838,1.9837,1.941,1.8918,0.0,0.0,0.0,0.0,0.0,0.0,0.0,0.0,0.0,0.0,0.0,0.0,0.0,0.0,0.0,0.0,0.0,0.0,0.0,0.0,0.0,0.0,0.0,0.0,0.0,0.0,0.0,0.0,0.0,0.0,0.0,0.0,0.0,0.0,0.0,0.0,0.0,0.0,0.0,0.0,0.0,0.0,0.0,0.0,0.0,0.0,0.0,0.0,0.0,0.0,0.0,0.0,0.0,0.0,0.0,0.0,0.0,0.0,0.0,0.0,0.0,0.0,0.0,0.0,0.0,0.0,0.0,0.0,0.0,0.0,0.0,0.0,0.0,0.0,0.0,0.0,0.0,0.0,0.0,0.0,0.0,0.0,0.0,0.0,0.0,0.0,0.0,0.0,0.0,0.0,0.0,0.0,0.0,0.0,0.0,0.0,0.0,0.0,0.0,0.0,0.0,0.0,0.0,0.0,0.0,0.0,0.0,0.0,1.8765,2.0857,2.3036,2.4017,2.3708,2.2305,2.1081,0.0,0.0,0.0,0.0,0.0,0.0,0.0,0.0,0.0,0.0,0.0,0.0,0.0,0.0,0.0,0.0,0.0,0.0,0.0,0.0,0.0,0.0,0.0,0.0,0.0,0.0,0.0,0.0,0.0,0.0,0.0,0.0,0.0,0.0,0.0,0.0,0.0,0.0,0.0,0.0,0.0,0.0,0.0,0.0,0.0,0.0,0.0,0.0,0.0,0.0,0.0,0.0,0.0,0.0,0.0,0.0,0.0,0.0,0.0,0.0,0.0,0.0,0.0,0.0,0.0,0.0,0.0,0.0,0.0,0.0,0.0,0.0,0.0,0.0,0.0,0.0,0.0,0.0,0.0,0.0,0.0,0.0,0.0,0.0,0.0,0.0,0.0,0.0,0.0,0.0,0.0,0.0,0.0,0.0,0.0,0.0,0.0,0.0,0.0,0.0,0.0,0.0,0.0,0.0,0.0,0.0,0.0,0.0,2.0059,2.2811,2.5045,2.68,2.792,2.5189,2.3009,0.0,0.0,0.0,0.0,0.0,0.0,0.0,0.0,0.0,0.0,0.0,0.0,0.0,0.0,0.0,0.0,0.0,0.0,0.0,0.0,0.0,0.0,0.0,0.0,0.0,0.0,0.0,0.0,0.0,0.0,0.0,0.0,0.0,0.0,0.0,0.0,0.0,0.0,0.0,0.0,0.0,0.0,0.0,0.0,0.0,0.0,0.0,0.0,0.0,0.0,0.0,0.0,0.0,0.0,0.0,0.0,0.0,0.0,0.0,0.0,0.0,0.0,0.0,0.0,0.0,0.0,0.0,0.0,0.0,0.0,0.0,0.0,0.0,0.0,0.0,0.0,0.0,0.0,0.0,0.0,0.0,0.0,0.0,0.0,0.0,0.0,0.0,0.0,0.0,0.0,0.0,0.0,0.0,0.0,0.0,0.0,0.0,0.0,0.0,0.0,0.0,0.0,0.0,0.0,0.0,0.0,0.0,0.0,2.177,2.5035,2.7116,2.8902,3.0392,2.7447,2.5344,0.0,0.0,0.0,0.0,0.0,0.0,0.0,0.0,0.0,0.0,0.0,0.0,0.0,0.0,0.0,0.0,0.0,0.0,0.0,0.0,0.0,0.0,0.0,0.0,0.0,0.0,0.0,0.0,0.0,0.0,0.0,0.0,0.0,0.0,0.0,0.0,0.0,0.0,0.0,0.0,0.0,0.0,0.0,0.0,0.0,0.0,0.0,0.0,1.535,0.0,0.0,0.0,0.0,0.0,0.0,0.0,0.0,0.0,0.0,0.0,0.0,0.0,0.0,0.0,0.0,0.0,0.0,0.0,0.0,0.0,0.0,0.0,0.0,0.0,0.0,0.0,0.0,0.0,0.0,0.0,0.0,0.0,0.0,0.0,0.0,0.0,0.0,0.0,0.0,0.0,0.0,0.0,0.0,0.0,0.0,0.0,0.0,0.0,0.0,0.0,0.0,0.0,0.0,0.0,0.0,0.0,0.0,0.0,2.2787,2.6312,2.8269,3.011,3.1718,2.9393,2.7311,0.0,0.0,0.0,0.0,0.0,0.0,0.0,0.0,0.0,0.0,0.0,0.0,0.0,0.0,0.0,0.0,0.0,0.0,0.0,0.0,0.0,0.0,0.0,0.0,0.0,0.0,0.0,0.0,0.0,0.0,0.0,0.0,0.0,0.0,0.0,0.0,0.0,0.0,0.0,0.0,0.0,0.0,0.0,0.0,0.0,0.0,0.0,0.0,0.0,0.0,0.0,0.0,0.0,0.0,0.0,0.0,0.0,0.0,0.0,0.0,0.0,0.0,0.0,0.0,0.0,0.0,0.0,0.0,0.0,0.0,0.0,0.0,0.0,0.0,0.0,0.0,0.0,0.0,0.0,0.0,0.0,0.0,0.0,0.0,0.0,0.0,0.0,0.0,0.0,0.0,0.0,0.0,0.0,0.0,0.0,0.0,0.0,0.0,0.0,0.0,0.0,0.0,0.0,0.0,0.0,0.0,0.0,2.0808,2.3887,2.7585,2.9312,3.1014,3.2789,3.0969,2.8796,2.6431,0.0,0.0,0.0,0.0,0.0,0.0,0.0,0.0,0.0,0.0,0.0,0.0,0.0,0.0,0.0,0.0,0.0,0.0,0.0,0.0,0.0,0.0,0.0,0.0,0.0,0.0,0.0,0.0,0.0,0.0,0.0,0.0,0.0,0.0,0.0,0.0,0.0,0.0,1.3421,1.4389,0.0,0.0,0.0,0.0,0.0,0.0,0.0,0.0,1.6701,0.0,0.0,0.0,0.0,0.0,0.0,0.0,0.0,0.0,0.0,0.0,0.0,0.0,0.0,0.0,0.0,0.0,0.0,0.0,0.0,0.0,0.0,0.0,0.0,0.0,0.0,0.0,0.0,0.0,0.0,0.0,0.0,0.0,0.0,0.0,0.0,0.0,0.0,0.0,0.0,0.0,0.0,0.0,0.0,0.0,0.0,0.0,0.0,0.0,0.0,0.0,0.0,0.0,0.0,0.0,0.0,2.0153,2.2768,2.6164,3.0321,3.1271,3.2368,3.3582,3.1608,2.942,2.7157,0.0,0.0,0.0,0.0,0.0,0.0,0.0,0.0,0.0,0.0,0.0,0.0,0.0,0.0,0.0,0.0,0.0,0.0,0.0,0.0,0.0,0.0,0.0,0.0,0.0,0.0,0.0,0.0,0.0,0.0,0.0,0.0,0.0,0.0,0.0,0.0,0.0,0.0,0.0,1.5782,1.6351,0.0,0.0,0.0,0.0,0.0,0.0,0.0,0.0,1.8157,0.0,0.0,0.0,0.0,0.0,0.0,0.0,0.0,0.0,0.0,0.0,0.0,0.0,0.0,0.0,0.0,0.0,0.0,0.0,0.0,0.0,0.0,0.0,0.0,0.0,0.0,0.0,0.0,0.0,0.0,0.0,0.0,0.0,0.0,0.0,0.0,0.0,0.0,0.0,0.0,0.0,0.0,0.0,0.0,0.0,0.0,0.0,0.0,0.0,0.0,0.0,0.0,0.0,0.0,0.0,2.1646,2.4059,2.736,3.1509,3.2047,3.2766,3.3803,3.1752,2.9553,0.0,0.0,0.0,0.0,0.0,0.0,0.0,0.0,0.0,0.0,0.0,0.0,0.0,0.0,0.0,0.0,0.0,0.0,0.0,0.0,0.0,0.0,0.0,0.0,0.0,0.0,0.0,0.0,0.0,0.0,0.0,0.0,0.0,0.0,0.0,0.0,0.0,0.0,0.0,0.0,1.6137,1.6684,1.7258,0.0,0.0,0.0,0.0,0.0,0.0,1.8886,1.8805,0.0,0.0,0.0,0.0,0.0,0.0,0.0,0.0,0.0,0.0,0.0,0.0,0.0,0.0,0.0,0.0,0.0,0.0,0.0,0.0,0.0,0.0,0.0,0.0,0.0,0.0,0.0,0.0,0.0,0.0,0.0,0.0,0.0,0.0,0.0,0.0,0.0,0.0,0.0,0.0,0.0,0.0,0.0,0.0,0.0,0.0,0.0,0.0,0.0,0.0,0.0,0.0,0.0,0.0,0.0,2.292,2.526,2.8348,3.2104,3.2462,3.2872,3.3488,3.1516,2.9402,0.0,0.0,0.0,0.0,0.0,0.0,0.0,0.0,0.0,0.0,0.0,0.0,0.0,0.0,0.0,0.0,0.0,0.0,0.0,0.0,0.0,0.0,0.0,0.0,0.0,0.0,0.0,0.0,0.0,0.0,0.0,0.0,0.0,0.0,0.0,0.0,0.0,0.0,0.0,0.0,0.0,1.7183,1.7754,1.7887,0.0,0.0,0.0,0.0,2.0044,1.9872,0.0,0.0,0.0,0.0,0.0,0.0,0.0,0.0,0.0,0.0,0.0,0.0,0.0,0.0,0.0,0.0,0.0,0.0,0.0,0.0,0.0,0.0,0.0,0.0,0.0,0.0,0.0,0.0,0.0,0.0,0.0,0.0,0.0,0.0,0.0,0.0,0.0,0.0,0.0,0.0,0.0,0.0,0.0,0.0,0.0,0.0,0.0,0.0,0.0,0.0,0.0,0.0,0.0,0.0,0.0,0.0,2.3822,2.6769,2.9727,3.2568,3.292,3.2821,3.2394,3.0758,2.8844,0.0,0.0,0.0,0.0,0.0,0.0,0.0,0.0,0.0,0.0,0.0,0.0,0.0,0.0,0.0,0.0,0.0,0.0,0.0,0.0,0.0,0.0,0.0,0.0,0.0,0.0,0.0,0.0,0.0,0.0,0.0,0.0,0.0,0.0,0.0,0.0,0.0,0.0,0.0,0.0,0.0,1.8895,1.9898,1.9588,1.969,0.0,0.0,2.0926,2.1853,2.2003,0.0,0.0,0.0,0.0,0.0,0.0,0.0,0.0,0.0,0.0,0.0,0.0,0.0,0.0,0.0,0.0,0.0,0.0,0.0,0.0,0.0,0.0,0.0,0.0,0.0,0.0,0.0,0.0,0.0,0.0,0.0,0.0,0.0,0.0,0.0,0.0,0.0,0.0,0.0,0.0,0.0,0.0,0.0,0.0,0.0,0.0,0.0,0.0,0.0,0.0,0.0,0.0,0.0,0.0,0.0,2.2013,2.5247,2.7821,3.0508,3.3278,3.3212,3.2828,3.2204,3.0633,2.8768,0.0,0.0,0.0,0.0,0.0,0.0,0.0,0.0,0.0,0.0,0.0,0.0,0.0,0.0,0.0,0.0,0.0,0.0,0.0,0.0,0.0,0.0,0.0,0.0,0.0,0.0,0.0,0.0,0.0,0.0,0.0,0.0,0.0,0.0,0.0,0.0,0.0,0.0,0.0,0.0,0.0,0.0,2.1,2.0627,0.0,0.0,0.0,2.2459,2.3203,0.0,0.0,0.0,0.0,0.0,0.0,0.0,0.0,0.0,0.0,0.0,0.0,0.0,0.0,0.0,0.0,0.0,0.0,0.0,0.0,0.0,0.0,0.0,0.0,0.0,0.0,0.0,0.0,0.0,0.0,0.0,0.0,0.0,0.0,0.0,0.0,0.0,0.0,0.0,0.0,0.0,0.0,0.0,0.0,0.0,0.0,0.0,0.0,0.0,0.0,0.0,0.0,0.0,0.0,0.0,0.0,0.0,2.6434,2.8649,3.1043,3.3571,3.3316,3.2753,3.2014,3.0557,0.0,0.0,0.0,0.0,0.0,0.0,0.0,0.0,0.0,0.0,0.0,0.0,0.0,0.0,0.0,0.0,0.0,0.0,0.0,0.0,0.0,0.0,0.0,0.0,0.0,0.0,0.0,1.35,0.0,0.0,0.0,0.0,0.0,0.0,0.0,0.0,0.0,0.0,0.0,0.0,0.0,0.0,2.0083,2.2127,2.2046,2.2219,0.0,0.0,2.4142,2.4768,2.4858,2.485,0.0,0.0,0.0,0.0,0.0,0.0,0.0,0.0,0.0,0.0,0.0,0.0,0.0,0.0,0.0,0.0,0.0,0.0,0.0,0.0,0.0,0.0,0.0,0.0,0.0,0.0,0.0,0.0,0.0,0.0,0.0,0.0,0.0,0.0,0.0,0.0,0.0,0.0,0.0,0.0,0.0,0.0,0.0,0.0,0.0,0.0,0.0,0.0,0.0,0.0,0.0,0.0,0.0,0.0,0.0,2.7002,2.9345,3.1366,3.3065,3.3126,3.2562,3.1472,3.0392,2.8768,0.0,0.0,0.0,0.0,0.0,0.0,0.0,0.0,0.0,0.0,0.0,0.0,0.0,0.0,0.0,0.0,0.0,0.0,0.0,0.0,0.0,0.0,0.0,0.0,0.0,0.0,0.0,0.0,0.0,0.0,0.0,0.0,0.0,0.0,0.0,0.0,0.0,0.0,0.0,0.0,0.0,2.214,2.3641,2.4457,2.5365,0.0,0.0,2.6168,2.6873,2.6462,2.5999,2.5685,0.0,0.0,0.0,0.0,0.0,0.0,0.0,0.0,0.0,0.0,0.0,0.0,0.0,0.0,0.0,0.0,0.0,0.0,0.0,0.0,0.0,0.0,0.0,0.0,0.0,0.0,0.0,0.0,0.0,0.0,0.0,0.0,0.0,0.0,0.0,0.0,0.0,0.0,0.0,0.0,0.0,0.0,0.0,0.0,0.0,0.0,0.0,0.0,0.0,0.0,0.0,0.0,0.0,2.4817,2.7738,2.9622,3.1401,3.3025,3.3126,3.2562,3.1432,3.0357,2.8768,0.0,0.0,0.0,0.0,0.0,0.0,0.0,0.0,0.0,0.0,0.0,0.0,0.0,0.0,0.0,0.0,0.0,0.0,0.0,0.0,0.0,0.0,0.0,0.0,0.0,0.0,0.0,0.0,1.4668,1.4959,1.5299,0.0,0.0,0.0,0.0,0.0,0.0,0.0,0.0,0.0,0.0,2.33,2.521,2.5679,0.0,0.0,2.7526,2.7424,2.7721,2.7434,2.712,2.7028,2.5884,0.0,0.0,0.0,0.0,0.0,0.0,0.0,0.0,0.0,0.0,0.0,0.0,0.0,0.0,0.0,0.0,0.0,0.0,0.0,0.0,0.0,0.0,0.0,0.0,0.0,0.0,0.0,0.0,0.0,0.0,0.0,0.0,0.0,0.0,0.0,0.0,0.0,0.0,0.0,0.0,0.0,0.0,0.0,0.0,0.0,0.0,0.0,0.0,0.0,0.0,0.0,0.0,2.5608,2.8375,3.0004,3.1577,3.3075,3.3126,3.2562,3.1421,3.0357,2.8844,0.0,0.0,0.0,0.0,0.0,0.0,0.0,0.0,0.0,0.0,0.0,0.0,0.0,0.0,0.0,0.0,0.0,0.0,0.0,0.0,0.0,0.0,0.0,0.0,0.0,0.0,0.0,0.0,1.5184,1.5587,1.6231,0.0,0.0,0.0,0.0,0.0,0.0,0.0,0.0,0.0,0.0,2.4598,2.6534,2.7009,2.7466,2.8353,2.8564,2.8583,2.85,2.8164,2.7874,2.781,0.0,0.0,0.0,0.0,0.0,0.0,0.0,0.0,0.0,0.0,0.0,0.0,0.0,0.0,0.0,0.0,0.0,0.0,0.0,0.0,0.0,0.0,0.0,0.0,0.0,0.0,0.0,0.0,0.0,0.0,1.3871,0.0,0.0,0.0,0.0,0.0,0.0,0.0,0.0,0.0,0.0,0.0,0.0,0.0,0.0,0.0,0.0,0.0,0.0,0.0,0.0,0.0,0.0,2.6272,2.8844,3.0512,3.1934,3.305,3.309,3.2562,3.1432,3.0357,2.9001,2.7302,0.0,0.0,0.0,0.0,0.0,0.0,0.0,0.0,0.0,0.0,0.0,0.0,0.0,0.0,0.0,0.0,0.0,0.0,0.0,0.0,0.0,0.0,0.0,0.0,0.0,0.0,1.5889,1.6294,1.6856,0.0,0.0,0.0,0.0,0.0,0.0,0.0,0.0,0.0,0.0,2.493,2.6167,2.7565,2.8669,2.9262,2.936,2.957,2.9653,2.9389,2.8656,2.8024,0.0,0.0,0.0,0.0,0.0,0.0,0.0,0.0,0.0,0.0,0.0,0.0,0.0,0.0,0.0,0.0,0.0,0.0,0.0,0.0,0.0,0.0,0.0,0.0,0.0,0.0,0.0,1.4732,1.472,0.0,0.0,0.0,0.0,0.0,0.0,0.0,0.0,0.0,0.0,0.0,1.8257,1.9168,0.0,0.0,0.0,0.0,0.0,0.0,0.0,0.0,0.0,0.0,0.0,0.0,2.6988,2.9069,3.0612,3.1773,3.2491,3.2903,3.2552,3.1432,3.0708,2.9202,2.6851,0.0,0.0,0.0,0.0,0.0,0.0,0.0,0.0,0.0,0.0,0.0,0.0,0.0,0.0,0.0,0.0,0.0,0.0,0.0,0.0,0.0,0.0,0.0,0.0,0.0,1.7458,0.0,0.0,0.0,0.0,0.0,0.0,0.0,0.0,0.0,0.0,0.0,2.3098,2.4599,2.589,2.7115,2.8225,2.9115,2.9682,0.0,0.0,0.0,0.0,0.0,0.0,0.0,0.0,0.0,0.0,0.0,0.0,0.0,0.0,2.6971,2.5436,2.49,2.4747,2.5031,0.0,0.0,0.0,0.0,0.0,0.0,0.0,0.0,0.0,0.0,0.0,0.0,0.0,0.0,1.6162,0.0,1.5732,0.0,0.0,0.0,0.0,0.0,0.0,0.0,0.0,1.884,1.9635,2.0259,2.0831,2.119,0.0,2.1415,2.1155,0.0,0.0,0.0,0.0,0.0,0.0,0.0,0.0,2.7696,2.9451,3.0732,3.1763,3.2491,3.2903,3.2562,3.1411,3.0497,2.8916,2.6583,2.5778,2.5034,0.0,0.0,0.0,0.0,0.0,0.0,0.0,0.0,0.0,0.0,0.0,0.0,0.0,0.0,0.0,0.0,0.0,0.0,0.0,0.0,0.0,0.0,0.0,1.9114,0.0,0.0,0.0,0.0,0.0,0.0,0.0,0.0,0.0,2.2485,2.3534,2.48,2.6221,2.7155,2.806,2.8961,0.0,0.0,0.0,0.0,0.0,0.0,0.0,2.9208,2.9208,2.8962,2.8808,2.8916,2.9332,2.9754,3.0005,0.0,0.0,2.7875,2.7282,2.7139,2.743,2.7277,2.7294,2.8036,2.8179,2.8423,0.0,0.0,0.0,0.0,0.0,0.0,0.0,0.0,1.8108,1.8116,0.0,1.7645,0.0,0.0,0.0,0.0,0.0,1.8159,0.0,0.0,2.0484,2.1285,2.2265,2.1937,2.2582,2.4139,2.3774,2.4068,2.4865,2.2617,0.0,0.0,0.0,0.0,0.0,0.0,2.8422,2.9992,3.0909,3.1959,3.3011,3.3075,3.2552,3.1421,2.9785,2.8188,2.6675,2.6558,2.6005,2.4909,2.4842,0.0,0.0,0.0,0.0,0.0,0.0,0.0,0.0,0.0,0.0,0.0,0.0,0.0,0.0,0.0,0.0,0.0,0.0,0.0,0.0,2.0008,0.0,0.0,0.0,0.0,0.0,0.0,0.0,0.0,0.0,0.0,2.5343,2.5431,2.6268,2.839,0.0,0.0,0.0,0.0,2.9829,2.9839,2.9839,2.9854,2.9854,2.9854,2.9864,2.9864,0.0,0.0,3.107,3.1288,3.135,3.123,3.1389,3.1084,2.993,2.9784,2.9773,2.9592,2.9573,2.997,3.0895,3.1065,3.1394,2.1621,0.0,0.0,0.0,0.0,1.9697,2.0019,2.0284,2.0284,2.0284,2.0235,1.9342,0.0,0.0,0.0,0.0,0.0,0.0,2.0493,2.1847,2.2593,2.3741,2.5199,2.5508,2.6096,2.6923,2.6803,2.6836,2.697,2.6266,2.5478,2.4649,0.0,0.0,0.0,0.0,2.8961,3.0247,3.1034,3.183,3.2714,3.2985,3.2573,3.1421,2.9785,2.8681,2.8213,2.7478,2.6733,2.603,2.5603,0.0,0.0,0.0,0.0,0.0,0.0,0.0,0.0,0.0,0.0,0.0,0.0,0.0,0.0,0.0,0.0,0.0,0.0,0.0,2.2037,2.2532,2.2813,0.0,0.0,0.0,0.0,0.0,0.0,0.0,0.0,0.0,2.8284,2.769,2.752,0.0,0.0,2.9075,2.9713,3.0131,3.0372,3.0382,3.0683,0.0,3.0944,3.0944,3.0934,3.0944,3.107,3.1341,3.1795,3.1937,3.2219,3.2932,3.3172,3.3172,3.3168,3.2263,3.1566,3.1455,3.1766,3.2277,3.2918,3.3107,3.3286,2.4491,2.2917,2.1457,2.1075,2.1465,2.1759,2.2084,2.2372,2.2383,2.2347,2.2203,2.1232,2.0723,2.0569,2.0016,0.0,0.0,0.0,2.2428,2.4252,2.4967,2.6238,2.791,2.8109,2.8656,2.9445,2.9077,2.9015,2.9234,2.9091,2.8542,2.7534,0.0,0.0,2.7842,2.8879,2.9881,3.0807,3.1603,3.2299,3.2899,3.2794,3.2416,3.1712,3.0322,2.9484,2.9258,2.8414,2.7704,2.7169,2.6582,2.6021,0.0,0.0,0.0,0.0,0.0,0.0,0.0,0.0,0.0,0.0,0.0,2.1064,2.1498,0.0,0.0,0.0,2.223,2.2972,2.423,2.4734,0.0,0.0,0.0,0.0,0.0,0.0,0.0,2.69,2.7617,2.8537,2.9644,2.9457,2.9393,2.9825,2.9895,3.002,3.0392,0.0,3.0934,3.0909,3.1185,3.1406,3.1406,3.1597,3.1798,3.2024,3.2085,3.2175,3.2466,3.2706,3.3119,3.371,3.4073,3.4313,3.4664,3.4025,3.3423,3.3258,3.3484,3.3897,3.4427,3.4539,3.4678,2.7124,2.6822,2.461,2.3812,2.4013,2.4041,2.4196,2.4422,2.4411,2.4306,2.4098,2.3241,2.2848,2.2819,2.2143,0.0,2.3268,2.3544,2.4816,2.6932,2.7513,2.879,3.0477,3.0104,3.057,3.1809,3.0898,3.0866,3.1572,3.1322,3.1247,3.133,2.9889,2.9183,2.931,3.034,3.115,3.1691,3.2529,3.312,3.3392,3.2664,3.2225,3.221,3.12,3.0397,2.988,2.9292,2.8706,2.8163,2.7654,2.7144,2.6641,0.0,0.0,0.0,0.0,0.0,0.0,0.0,0.0,0.0,0.0,0.0,0.0,0.0,0.0,0.0,2.4994,0.0,2.6001,2.6565,0.0,0.0,0.0,2.7434,2.7193,2.7625,2.8054,2.8261,0.0,0.0,2.999,3.0844,3.1472,3.1522,3.1446,3.1406,3.1406,3.1421,3.1472,3.1472,3.1512,3.1547,3.1658,3.1999,3.2451,3.2889,3.3151,3.3129,3.318,3.3571,3.3922,3.4098,3.4438,3.4803,3.4828,3.5205,3.5419,3.4879,3.484,3.4979,3.5419,3.5519,3.5682,2.88,2.8721,2.8067,2.7069,2.5947,2.6052,2.6247,2.6464,2.6263,2.6284,2.6355,2.5338,2.5001,2.5192,2.4842,2.5302,2.6357,2.7182,2.8008,2.8886,2.9816,3.1077,3.2538,3.2466,3.2969,3.3882,3.3726,3.3597,3.36,3.3527,3.3335,3.3012,3.2784,3.2246,3.1504,3.2107,3.2755,3.3307,3.3404,3.3504,3.359,3.2869,3.2511,3.2486,3.1664,3.0959,3.0422,2.988,2.9308,2.8731,2.8188,2.7846,2.7729,2.7604,0.0,0.0,0.0,0.0,0.0,0.0,0.0,0.0,0.0,2.3871,2.3993,0.0,2.5143,0.0,2.6749,2.739,2.7361,2.7612,0.0,0.0,2.7894,2.8103,2.8415,2.895,2.9495,2.997,3.0618,3.116,3.1577,3.1853,3.2179,3.2612,3.1959,3.1406,3.1406,3.1752,3.2003,3.2064,3.2376,3.2688,3.2663,3.2778,3.2928,3.3079,3.342,3.3707,3.3696,3.4137,3.4639,3.5006,3.5218,3.5481,3.5904,3.613,3.6118,3.6029,3.6004,3.6029,3.6155,3.618,3.6205,3.1692,3.1614,3.1553,3.1009,3.0131,2.8773,2.8214,2.8261,2.8102,2.7975,2.7811,2.7469,2.7569,2.799,2.7881,2.8297,2.906,2.962,3.034,3.1226,3.2055,3.3097,3.4258,3.4294,3.4537,3.5043,3.4942,3.4788,3.4676,3.4772,3.4746,3.4606,3.4695,3.4589,3.4252,3.399,3.4008,3.4349,3.4183,3.4032,3.3869,3.3355,3.3139,3.3254,3.2567,3.2062,3.1746,3.1162,3.0511,2.9804,2.9189,2.8715,2.8455,2.8238,2.7971,0.0,0.0,0.0,0.0,0.0,0.0,0.0,0.0,0.0,0.0,0.0,2.6605,2.701,2.7908,2.8518,2.8684,2.9,2.9318,2.9553,2.9578,2.9704,2.998,3.0306,3.0633,3.0924,3.1426,3.1964,3.2516,3.2817,3.3158,3.3721,3.3269,3.2692,3.2286,3.2426,3.2591,3.2616,3.2889,3.3126,3.3126,3.3316,3.3445,3.3506,3.3897,3.4262,3.4262,3.4703,3.5168,3.5458,3.5707,3.6006,3.6331,3.6405,3.6405,3.6417,3.6476,3.6499,3.6417,3.6405,3.6405,3.4741,3.4552,3.4605,3.4775,3.4756,3.1912,3.0535,3.025,3.0073,2.9699,2.9219,2.9681,3.0242,3.0853,3.0865,3.1122,3.1588,3.1716,3.2452,3.3715,3.4327,3.502,3.5809,3.5745,3.5757,3.5842,3.558,3.5474,3.5619,3.5867,3.6033,3.6133,3.617,3.6374,3.6818,3.5754,3.5227,3.5227,3.5083,3.4758,3.435,3.4124,3.4119,3.4241,3.3674,3.3312,3.3244,3.2565,3.183,3.1101,3.0433,2.9818,2.9305,2.8775,2.8514,0.0,2.8524,0.0,0.0,0.0,0.0,0.0,0.0,0.0,0.0,2.8237,2.8439,2.8514,2.8932,2.9443,2.9955,3.0432,3.0884,3.1346,3.1406,3.1421,3.1486,3.1497,3.1562,3.1687,3.2129,3.2641,3.3255,3.3732,3.4187,3.4527,3.4541,3.4187,3.3495,3.3305,3.3319,3.3327,3.3241,3.3241,3.319,3.3531,3.3872,3.3947,3.4413,3.4767,3.4792,3.5266,3.5641,3.5728,3.6136,3.6474,3.6487,3.6499,3.6487,3.6523,3.6664,3.6674,3.6511,3.6499,3.6487,3.5908,3.5495,3.5739,3.5896,3.5873,3.5292,3.4566,3.3736,3.2611,3.221,3.2396,3.2082,3.225,3.275,3.276,3.3265,3.415,3.501,3.5561,3.5848,3.6813,3.7367,3.7488,3.7086,3.7219,3.7804,3.7382,3.7569,3.8436,3.8483,3.8332,3.7982,3.7994,3.7761,3.7305,0.0,0.0,0.0,3.6657,3.6178,3.5595,3.5726,3.5601,3.5157,3.451,0.0,3.3531,3.3023,3.249,3.1922,3.1568,0.0,0.0,0.0,0.0,0.0,0.0,0.0,0.0,0.0,0.0,0.0,3.0618,2.9983,2.869,2.9497,3.0331,3.0743,3.0869,3.0959,3.1085,3.1195,3.1296,3.1381,3.1406,3.1572,3.1978,3.2064,3.238,3.3319,3.352,3.3796,3.4288,3.4513,3.4614,3.4762,3.4703,3.4628,3.4449,3.4374,3.4388,3.4388,3.4008,3.3581,3.3176,3.3592,3.4019,3.4022,3.4728,3.5294,3.5417,3.5968,3.6463,3.6475,3.6752,3.6957,3.6945,3.698,3.6945,3.6968,3.7003,3.6957,3.6697,3.6828,3.6957,3.8588,0.0,3.8268,3.819,0.0,3.73,3.7112,3.7082,3.498,3.4351,3.4785,3.4538,3.4869,3.5618,3.563,3.589,3.6395,3.6955,3.7182,3.7207,3.773,3.799,3.799,3.7713,3.7873,3.8396,3.8263,3.853,3.9188,3.9346,3.9273,3.9049,3.9049,3.8851,3.8496,3.8189,3.7736,3.716,3.6935,3.6577,3.6038,3.614,3.5966,3.5507,3.5073,0.0,0.0,0.0,0.0,0.0,0.0,0.0,0.0,3.1457,0.0,3.1406,3.1406,3.1406,3.1406,3.1406,3.1406,3.1406,3.1637,3.1295,3.0123,3.0633,3.111,3.1381,3.1406,3.1497,3.1763,3.1777,3.1924,3.22,3.2236,3.2441,3.2943,3.3032,3.3384,3.4112,3.4288,3.4558,3.5186,3.5273,3.5481,3.5812,3.5886,3.5837,3.5812,3.5177,3.4703,3.4703,3.4626,3.4289,3.3835,3.4387,3.4766,3.4704,3.5388,3.6018,3.6094,3.6531,3.691,3.6922,3.7015,3.7108,3.7108,3.7108,3.7108,3.712,3.7227,3.7262,3.7108,3.7097,3.7108,4.1127,4.0625,4.0524,4.0249,3.9758,3.867,3.879,3.9531,0.0,0.0,0.0,3.674,3.7157,3.7977,3.799,3.8053,3.814,3.8165,3.8203,3.8316,3.8316,3.8329,3.8366,3.8265,3.8439,3.8849,3.8992,3.9224,3.9571,3.9778,3.9848,3.9744,3.9744,3.98,3.9848,3.9535,3.8815,3.7671,3.7283,3.6888,3.6411,3.6477,3.6318,3.5923,3.5584,3.5146,3.4643,3.4072,3.3468,3.282,3.2565,3.2227,3.1785,3.1718,3.1698,3.1698,3.1708,3.1708,3.1708,3.1698,3.1698,3.1698,3.2145,3.2156,3.1597,3.1647,3.1698,3.1698,3.1698,3.1888,3.2315,3.2365,3.2612,3.3233,3.333,3.3543,3.4079,3.418,3.4379,3.4863,3.4998,3.527,3.5982,3.6104,3.6352,3.6922,3.6959,3.7108,3.6948,3.5985,3.5211,3.5119,3.5218,3.5102,3.4735,3.524,3.5748,3.5443,3.6132,3.6742,3.6828,3.6992,3.7143,3.7166,3.7227,3.7285,3.7236,3.7285,3.7225,3.7236,3.7413,3.7563,3.754,3.749,3.7388,4.1744,4.1152,4.0675,4.0462,4.0324,3.9716,3.9517,3.9621,3.8789,3.8477,3.8529,3.8004,3.7841,3.799,3.799,3.8278,3.8768,3.8768,3.9019,3.9446,3.9459,3.9574,3.9766,3.9322,3.9611,4.046,4.0108,4.0283,4.0923,4.1038,4.0815,4.0357,4.0292,4.0502,4.0916,4.1669,4.1697,4.0898,3.9236,3.8051,3.7506,3.7875,3.7774,3.7132,3.6295,3.569,3.5431,3.4548,3.39,3.3555,3.3333,3.3191,3.314,3.2945,3.2864,3.2864,3.2864,3.2864,3.2853,3.2853,3.2864,3.2864,3.311,3.2904,3.2175,3.2552,3.2864,3.2864,3.286,3.2889,3.2953,3.2989,3.3348,3.3991,3.4125,3.4415,3.5149,3.5259,3.5456,3.597,3.6081,3.6237,3.6757,3.6908,3.6945,3.7083,3.719,3.7132,3.7118,3.6922,3.658,3.6208,3.6115,3.5918,3.5508,3.5816,3.6163,3.6163,3.6601,3.705,3.705,3.7248,3.7436,3.7447,3.7586,3.7739,3.7736,3.7785,3.775,3.7776,3.7875,3.786,3.795,3.8179,3.8297,4.2311,4.1781,4.1532,4.1053,4.0462,3.9923,3.971,3.9672,3.9434,3.9346,3.9321,3.9057,3.8919,3.8919,3.8919,3.9082,3.9346,3.9333,3.9484,3.9685,3.9877,3.9981,4.0096,3.9994,4.0298,4.0858,4.0662,4.0787,4.126,4.1299,4.1427,4.1712,4.2229,4.2629,4.2835,4.2956,4.2902,4.2531,4.0515,3.9152,3.8516,3.8281,3.7821,3.7177,3.6606,3.6044,3.5507,3.4944,3.4521,3.4244,3.4156,3.4101,3.409,3.4002,3.3972,3.3961,3.3972,3.3972,3.3972,3.4105,3.4182,3.4182,3.4423,3.4394,3.402,3.3513,3.3441,3.3849,3.3814,3.3929,3.4339,3.4423,3.4546,3.4911,3.4959,3.5233,3.5798,3.5923,3.6154,3.6633,3.6735,3.6884,3.7268,3.732,3.739,3.7494,3.7528,3.7528,3.7517,3.7517,3.7347,3.6881,3.685,3.6687,3.6246,3.6581,3.6776,3.6544,3.6945,3.728,3.7343,3.7528,3.7704,3.7727,3.7831,3.7888,3.7923,3.79,3.8004,3.8306,3.8344,3.8411,3.8725,3.9038,3.9064,4.285,4.2375,4.2249,4.1594,4.065,4.0249,4.0061,4.0074,4.0061,4.0074,4.001,3.9823,3.9747,3.9873,3.9873,3.9948,4.0049,4.0074,4.01,4.0204,4.0386,4.0567,4.067,4.0888,4.1119,4.1335,4.1386,4.1487,4.1652,4.1665,4.2112,4.3021,4.3863,4.4406,4.4649,4.4419,4.4201,4.3934,4.2066,4.063,3.976,3.8944,3.8194,3.7535,3.7216,3.6631,3.5748,3.5419,3.5141,3.4917,3.4883,3.4895,3.4883,3.4895,3.4883,3.4895,3.4895,3.4883,3.4895,3.5074,3.5175,3.5175,3.5431,3.5572,3.5487,3.4605,3.416,3.4678,3.4671,3.4838,3.5289,3.5436,3.5572,3.573,3.5778,3.6021,3.6547,3.665,3.6793,3.7194,3.7271,3.7364,3.7517,3.7575,3.7644,3.7831,3.7911,3.7911,3.7911,3.7911,3.769,3.7482,3.7471,3.7419,3.7004,3.7249,3.7341,3.6952,3.7263,3.7534,3.7609,3.7785,3.8023,3.8103,3.8015,3.8151,3.8283,3.8224,3.8379,3.8774,3.9154,3.95,4.0029,3.99,3.9715,4.3402,4.2889,4.2425,4.182,4.1239,4.1138,4.1088,4.1127,4.1152,4.1138,4.0988,4.0124,3.9998,4.0387,4.045,4.0688,4.1076,4.1152,4.1274,4.154,4.1644,4.1897,4.228,4.2371,4.2541,4.2723,4.2723,4.2697,4.2736,4.2852,4.3129,4.3621,4.4073,4.4828,4.5632,4.644,4.6588,4.6004,4.4383,4.2847,4.1457,4.0701,3.9939,3.9029,3.8498,3.7736,3.6675,3.6034,3.5639,3.5439,3.5446,3.5446,3.5446,3.5431,3.5431,3.5446,3.5446,3.5442,3.5431,3.5465,3.5516,3.5461,3.5727,3.5849,3.5823,3.5671,3.5532,3.5513,3.5432,3.5472,3.5495,3.5583,3.5948,3.6619,3.666,3.6886,3.7581,3.7753,3.7779,3.7805,3.792,3.7854,3.8023,3.8057,3.8003,3.8171,3.8239,3.8228,3.8205,3.8194,3.8148,3.7943,3.7888,3.7877,3.7735,3.7787,3.7879,3.7792,3.781,3.7946,3.7977,3.8026,3.8103,3.8844,3.8595,3.8636,3.9325,3.9317,3.9005,3.9856,4.0469,4.1082,4.1416,4.1032,4.0419,4.3664,4.3427,4.2889,4.2347,4.1831,4.1453,4.1289,4.1289,4.1289,4.1289,4.1252,4.0826,4.0789,4.0976,4.0976,4.1088,4.1302,4.1529,4.1663,4.1836,4.2116,4.2368,4.2592,4.2762,4.2879,4.2997,4.301,4.301,4.3192,4.4204,4.5268,4.6069,4.6495,4.6604,4.6484,4.6989,4.687,4.6039,4.5532,4.4808,4.3669,4.17,4.0404,4.0005,3.9273,3.8631,3.7986,3.725,3.6678,3.6462,3.6428,3.6428,3.6439,3.6465,3.6439,3.6439,3.6439,3.6439,3.6439,3.6602,3.6693,3.6681,3.6908,3.7033,3.7059,3.7021,3.6988,3.6882,3.6473,3.6373,3.6819,3.6908,3.7273,3.7993,3.8187,3.8327,3.8608,3.9137,3.9315,3.8841,3.916,3.9469,3.9491,3.9491,3.9491,3.9491,3.9469,3.9419,3.9475,3.9491,3.9491,3.9458,3.9323,3.8785,3.8246,3.8395,3.8621,3.8673,3.8673,3.8684,3.8764,3.902,3.9362,3.9786,3.9741,4.0132,4.1367,4.137,4.1194,4.1749,4.236,4.3059,4.3274,4.2496,4.1811,4.4066,4.374,4.3226,4.2788,4.24,4.1957,4.1754,4.1754,4.1754,4.1768,4.1754,4.1754,4.1808,4.1837,4.1712,4.1725,4.1892,4.2239,4.2414,4.2535,4.2897,4.3084,4.3177,4.3375,4.3441,4.352,4.3822,4.4108,4.4469,4.5596,4.6926,4.7881,4.8113,4.7824,4.7313,4.7451,4.7142,4.6337,4.6288,4.6061,4.5277,4.297,4.1411,4.0983,4.0335,3.9673,3.8982,3.8311,3.7767,3.7366,3.732,3.732,3.7332,3.7332,3.732,3.7332,3.732,3.7332,3.7343,3.7721,3.7974,3.7985,3.8156,3.8274,3.8247,3.8236,3.8236,3.8217,3.7941,3.8033,3.8157,3.8485,3.8942,3.9508,3.9596,3.9596,3.964,4.0249,4.0303,3.9793,4.0087,4.0586,4.0564,4.049,4.0372,4.007,4.0496,4.0716,4.0675,4.0775,4.1144,4.117,4.1124,4.0596,3.93,3.9369,3.9734,4.0111,4.0227,4.0254,4.0134,4.0589,4.1039,4.1557,4.1549,4.1898,4.2755,4.3103,4.3161,4.3823,4.4252,4.4477,4.4571,4.3839,4.3329,4.4809,4.3804,4.3226,4.2964,4.295,4.2875,4.29,4.2799,4.2875,4.29,4.285,4.2864,4.3042,4.3201,4.2745,4.2835,4.3282,4.3569,4.383,4.4023,4.413,4.4345,4.4589,4.4616,4.459,4.458,4.5461,4.6559,4.7516,4.7291,4.7563,4.8525,4.822,4.8028,4.8213,4.8211,4.7886,4.7209,4.6646,4.63,4.6081,4.4811,4.3388,4.2181,4.1871,4.0965,3.9508,3.9166,3.8747,3.7934,3.7911,3.7888,3.7877,3.7854,3.7831,3.7888,3.7842,3.7888,3.8023,3.8628,3.9066,3.9121,3.9133,3.9155,3.9144,3.9144,3.9155,3.9144,3.9797,3.9999,3.9437,3.9793,4.0303,4.0507,4.055,4.0522,4.055,4.0731,4.0597,4.0599,4.0894,4.1142,4.0848,4.0586,4.0576,4.0341,4.08,4.1474,4.1152,4.1764,4.242,4.2697,4.3006,4.3164,4.182,4.1274,4.1528,4.1831,4.1985,4.2277,4.2429,4.2575,4.2967,4.3222,4.3012,4.329,4.4128,4.4513,4.4563,4.4828,4.4967,4.5178,4.5875,4.4966,4.4579,4.4819,4.3765,4.3226,4.3,4.3,4.3,4.3,4.3,4.3,4.3,4.3042,4.317,4.3323,4.3395,4.3588,4.3683,4.3738,4.4011,4.4203,4.4313,4.449,4.4626,4.4707,4.4721,4.4721,4.4871,4.5874,4.7318,4.8869,4.8788,4.9238,4.9988,4.965,4.9401,4.9366,4.8686,4.8158,4.7889,4.7268,4.6719,4.633,4.5822,4.5098,4.4124,4.2722,4.1686,4.1029,4.0432,3.9935,3.9645,3.906,3.8713,3.8684,3.8205,3.816,3.8605,3.8217,3.8421,3.9392,3.9332,3.9486,4.0032,4.0097,4.0136,4.0108,4.0108,4.0108,4.027,4.0972,4.1229,4.1039,4.0795,4.0859,4.1394,4.1499,4.1538,4.1624,4.1955,4.2276,4.2318,4.2886,4.3606,4.3403,4.3585,4.348,4.3248,4.3621,4.3664,4.3608,4.4011,4.4312,4.4291,4.4395,4.4534,4.4809,4.3527,4.3072,4.3237,4.3394,4.3412,4.3498,4.3907,4.4301,4.4621,4.4454,4.5011,4.5914,4.6212,4.6222,4.6262,4.6324,4.6582,4.7314,4.6591,4.6408,4.4945,4.4041,4.3478,4.3151,4.3,4.3,4.3,4.3014,4.3087,4.3115,4.3184,4.3434,4.3716,4.4008,4.4393,4.4699,4.468,4.4575,4.4435,4.4449,4.4639,4.4721,4.4721,4.4721,4.4911,4.5449,4.6751,4.8383,4.9931,5.0112,5.0484,5.1099,5.0727,5.0416,5.0088,4.9321,4.8764,4.8338,4.7848,4.7309,4.6689,4.642,4.6091,4.546,4.3961,4.2655,4.194,4.1332,4.0721,4.0206,3.9815,3.9662,3.9568,3.9082,3.9031,3.9497,3.9142,3.9259,4.0357,4.0281,4.0494,4.127,4.1383,4.144,4.1611,4.165,4.1678,4.186,4.2512,4.3072,4.2929,4.2502,4.231,4.2695,4.2729,4.2856,4.3053,4.3583,4.3811,4.3897,4.4491,4.5132,4.5274,4.5254,4.4996,4.4941,4.5205,4.553,4.5257,4.5666,4.5943,4.594,4.5766,4.5951,4.6105,4.5447,4.5058,4.517,4.5068,4.4914,4.4951,4.535,4.5643,4.5955,4.6403,4.7011,4.748,4.7812,4.7919,4.7908,4.7997,4.813,4.8372,4.8381,4.814,4.5146,4.4554,4.4041,4.3595,4.3232,4.3185,4.3067,4.3162,4.3335,4.3446,4.3563,4.3801,4.4411,4.5022,4.5209,4.5647,4.5997,4.528,4.4863,4.485,4.4838,4.4852,4.4878,4.5067,4.5768,4.6799,4.8619,5.0098,5.1077,5.1142,5.1225,5.1194,5.1158,5.0817,5.0237,5.0088,4.9501,4.8686,4.8327,4.7908,4.7339,4.673,4.639,4.6241,4.552,4.4103,4.1925,4.2024,4.1474,4.0034,4.036,4.0621,4.0697,4.0567,4.0612,4.0712,4.0623,4.0627,4.0891,4.16,4.22,4.287,4.2997,4.3201,4.3579,4.3695,4.3724,4.3823,4.4432,4.5082,4.5021,4.4898,4.4648,4.4396,4.4164,4.4393,4.4912,4.5213,4.5274,4.5232,4.5443,4.5364,4.5364,4.5544,4.5373,4.499,4.5488,4.6079,4.5596,4.6286,4.7076,4.7189,4.7027,4.7095,4.7222,4.7277,4.7244,4.7222,4.7024,4.684,4.6883,4.7177,4.7292,4.7533,4.76,4.8179,4.8358,4.8678,4.8768,4.8828,4.9138,4.9277,4.9249,4.9243,4.9383,4.5412,4.5175,4.485,4.4622,4.4423,4.4252,4.4172,4.4135,4.3887,4.394,4.4317,4.4646,4.5163,4.5675,4.5987,4.6246,4.6461,4.6095,4.5938,4.5966,4.5952,4.5926,4.6078,4.6754,4.8115,4.9774,5.0628,5.1265,5.178,5.1887,5.1666,5.1295,5.1217,5.1116,5.0847,5.0458,4.9938,4.9591,4.8716,4.8199,4.7938,4.7339,4.6988,4.6909,4.633,4.5282,4.3993,4.412,4.3975,4.3277,4.3062,4.261,4.212,4.1984,4.2252,4.274,4.2274,4.2628,4.36,4.3486,4.3671,4.4366,4.4571,4.4651,4.4829,4.4876,4.4876,4.4897,4.515,4.5274,4.5274,4.5274,4.5244,4.5015,4.5005,4.5055,4.5394,4.5753,4.5952,4.6042,4.6371,4.664,4.664,4.6651,4.6433,4.6237,4.6648,4.6775,4.6748,4.7,4.7298,4.7309,4.7578,4.7978,4.8008,4.8158,4.8338,4.8248,4.8147,4.8057,4.8278,4.8397,4.8618,4.8887,4.8977,4.9157,4.9337,4.9438,4.9546,4.9576,4.9684,4.9793,4.9931,5.0062,5.0182,4.6003,4.583,4.565,4.5457,4.5282,4.5099,4.5041,4.5004,4.4794,4.4888,4.5215,4.5547,4.5985,4.6427,4.6687,4.6917,4.7129,4.7129,4.7371,4.7494,4.6733,4.6726,4.73,4.8772,5.0081,5.1409,5.1992,5.2324,5.2552,5.2546,5.2217,5.1666,5.1576,5.1427,5.1217,5.0799,5.0488,5.0129,4.9422,4.8895,4.8577,4.8008,4.7668,4.7578,4.7018,4.638,4.5836,4.5966,4.5636,4.4957,4.4482,4.4131,4.3654,4.3625,4.387,4.4142,4.4013,4.412,4.5087,4.4644,4.4756,4.5469,4.5683,4.5802,4.5952,4.6052,4.6052,4.6063,4.6093,4.6022,4.6063,4.6063,4.6063,4.6052,4.5813,4.5802,4.6022,4.6411,4.6629,4.676,4.7029,4.7238,4.7298,4.7298,4.7418,4.7578,4.7668,4.7859,4.7919,4.8035,4.7997,4.8068,4.8409,4.8648,4.8678,4.8959,4.9318,4.9217,4.9015,4.8906,4.8947,4.8977,4.9108,4.9583,4.9811,5.0122,5.0331,5.0253,5.0283,5.0272,5.023,5.044,5.0649,5.0769,5.0858,4.6898,4.6473,4.6477,4.6209,4.5828,4.5742,4.5759,4.5774,4.5858,4.5972,4.6106,4.637,4.6811,4.724,4.7359,4.7609,4.8082,4.807,4.8455,4.8646,4.7804,4.7397,4.8994,5.0512,5.1514,5.2197,5.2946,5.3293,5.3246,5.3234,5.2917,5.2306,5.2157,5.1887,5.1427,5.1247,5.0877,5.0387,5.0177,4.98,4.9337,4.8697,4.8338,4.8338,4.7788,4.7415,4.7241,4.7106,4.6237,4.4592,4.5124,4.5447,4.5411,4.5414,4.5397,4.5459,4.5393,4.5378,4.5443,4.556,4.5729,4.6249,4.639,4.66,4.701,4.7029,4.7029,4.707,4.7189,4.7309,4.7279,4.7399,4.7399,4.7328,4.679,4.667,4.7209,4.7339,4.7399,4.7459,4.7429,4.7459,4.7608,4.7608,4.7848,4.8158,4.8349,4.8588,4.8858,4.8947,4.9168,4.9228,4.9127,4.9295,4.9344,4.9744,5.0085,5.0074,4.9912,4.9834,4.9726,4.9726,4.9774,5.026,5.0518,5.0907,5.1068,5.0858,5.084,5.0828,5.0948,5.1158,5.1217,5.1187,5.1187,4.7129,4.703,4.7251,4.729,4.7113,4.695,4.6843,4.6805,4.6486,4.6619,4.6894,4.7043,4.7414,4.7911,4.7937,4.8082,4.8161,4.8187,4.8274,4.8512,4.8128,4.9481,5.1358,5.1705,5.2617,5.3972,5.4328,5.4413,5.3982,5.3952,5.3593,5.2917,5.2516,5.2157,5.1905,5.1457,5.1116,5.0877,5.0428,5.0177,4.992,4.9366,4.9048,4.9007,4.8828,4.8498,4.8038,4.7549,4.7154,4.6551,4.662,4.677,4.6741,4.6741,4.6741,4.677,4.677,4.677,4.677,4.677,4.6879,4.6999,4.7119,4.7119,4.7279,4.7309,4.7309,4.7399,4.7698,4.8038,4.8098,4.8427,4.8678,4.8618,4.7758,4.7328,4.7848,4.8068,4.8188,4.8637,4.8708,4.8678,4.8648,4.8678,4.8757,4.8936,4.9067,4.9157,4.9456,4.9527,4.9617,4.9565,4.9553,4.9811,5.0069,5.0481,5.078,5.0888,5.0828,5.0769,5.069,5.069,5.0769,5.0996,5.0877,5.1128,5.1187,5.1098,5.1187,5.1217,5.1217,5.1217,5.1217,5.1217,5.1217,4.763,4.7633,4.7836,4.7909,4.7898,4.7745,4.7687,4.7609,4.7376,4.7362,4.7635,4.7702,4.7844,4.8201,4.8187,4.8187,4.8187,4.8187,4.8466,4.9031,4.9463,5.0796,5.2214,5.231,5.3387,5.5002,5.5222,5.497,5.467,5.464,5.4251,5.3695,5.3234,5.2785,5.2157,5.1846,5.1445,5.1176,5.0787,5.0637,5.0578,4.9991,4.9703,4.9595,4.9445,4.9067,4.8678,4.8349,4.7919,4.7448,4.7298,4.7429,4.7709,4.7728,4.7818,4.8068,4.8128,4.8158,4.8128,4.8158,4.8158,4.8158,4.8128,4.8128,4.8188,4.8158,4.8128,4.8259,4.8528,4.8678,4.8768,4.9097,4.9258,4.9138,4.8588,4.8308,4.8697,4.8708,4.8887,4.9198,4.9288,4.9288,4.9288,4.9318,4.9456,4.9583,4.9662,4.9883,5.0103,5.0055,5.0055,5.0092,5.0152,5.041,5.0548,5.0858,5.099,5.1128,5.1146,5.1217,5.1217,5.1217,5.1187,5.1146,5.1187,5.1217,5.1217,5.1217,5.1217,5.1217,5.1217,5.1217,5.1217,5.1217,5.1217,4.8187,4.8187,4.8187,4.8187,4.8172,4.8187,4.812,4.8187,4.8108,4.8108,4.8134,4.8187,4.812,4.8187,4.8187,4.8187,4.8187,4.8187,4.8928,4.9717,5.0587,5.1511,5.2216,5.2923,5.3912,5.5053,5.5222,5.5192,5.5102,5.5132,5.488,5.4371,5.4179,5.3551,5.2785,5.2396,5.1977,5.1666,5.1576,5.1517,5.1397,5.0907,5.0548,5.0469,4.9793,4.9505,4.9366,4.9198,4.8708,4.7578,4.7519,4.7878,4.8379,4.8409,4.8618,4.9007,4.9067,4.9108,4.9217,4.9108,4.9198,4.9138,4.9168,4.9288,4.9138,4.9078,4.9048,4.9048,4.9307,4.9415,4.9576,4.9576,4.9636,4.9696,4.9546,4.9486,4.9486,4.9426,4.9396,4.9498,4.9516,4.9486,4.9486,4.9516,4.9714,5.026,5.035,5.0469,5.0661,5.069,5.075,5.0858,5.0978,5.1098,5.1128,5.1158,5.1158,5.1187,5.1187,5.1217,5.1217,5.1217,5.1217,5.1217,5.1217,5.1217,5.1217,5.1217,5.1217,5.1217,5.1217,5.1217,5.1217,5.1217,5.1217,4.8187,4.8187,4.8187,4.8187,4.8187,4.8187,4.8213,4.8213,4.8213,4.8291,4.8213,4.8213,4.8213,4.8187,4.8187,4.8187,4.8213,4.8271,4.8827,4.983,5.0084,5.147,5.2659,5.3474,5.4097,5.4964,5.5222,5.5222,5.5222,5.5192,5.5119,5.4952,5.4491,5.4059,5.37,5.3144,5.2959,5.2767,5.2707,5.2648,5.2528,5.2037,5.1666,5.1576,5.0619,5.0069,4.9901,4.9535,4.9157,4.8947,4.8887,4.8977,4.9037,4.9067,4.9217,4.9378,4.9378,4.9348,4.9318,4.9408,4.9318,4.9438,4.9456,4.9288,4.9288,4.9378,4.9348,4.9396,4.9733,5.0189,5.0571,5.0739,5.0661,5.0631,5.0661,5.0679,5.0679,5.029,5.023,5.0571,5.069,5.0769,5.0739,5.0661,5.0769,5.0966,5.0996,5.1056,5.1128,5.1217,5.1217,5.1217,5.1217,5.1217,5.1217,5.1217,5.1217,5.1217,5.1217,5.1217,5.1217,5.1217,5.1217,5.1217,5.1217,5.1217,5.1217,5.1217,5.1217,5.1217,5.1217,5.1217,5.1217,5.1217,5.1217,4.8448,4.8213,4.8187,4.8187,4.8239,4.8515,4.8631,4.8683,4.8919,4.884,4.8657,4.8646,4.8474,4.8227,4.8187,4.8187,4.8265,4.853,4.9266,5.0374,5.119,5.2642,5.4126,5.4782,5.5306,5.5333,5.5222,5.5222,5.5222,5.5222,5.5192,5.5192,5.4807,5.4491,5.4239,5.382,5.3486,5.3198,5.3198,5.3198,5.3109,5.2887,5.2426,5.2217,5.1487,5.1026,5.0667,5.041,5.0242,5.0193,5.0163,5.0014,4.9763,4.9733,4.9853,5.0133,5.0193,5.0193,5.0193,5.0193,5.0212,5.0163,5.0182,5.0193,5.0193,5.0193,5.0193,5.0242,5.0499,5.0847,5.1158,5.1187,5.1217,5.1217,5.1217,5.1217,5.1146,5.0877,5.0757,5.1128,5.1128,5.1158,5.1187,5.1217,5.1187,5.1086,5.1086,5.1158,5.1158,5.1217,5.1217,5.1217,5.1217,5.1217,5.1217,5.1217,5.1217,5.1217,5.1217,5.1217,5.1217,5.1217,5.1217,5.1217,5.1217,5.1217,5.1217,5.1217,5.1217,5.1217,5.1217,5.1217,5.1217,5.1217,5.1217,4.8919,4.8474,4.8448,4.8448,4.8527,4.9023,4.9232,4.9285,4.9703,4.9546,4.9259,4.9154,4.8762,4.8422,4.8239,4.8239,4.8533,4.9206,5.0135,5.1489,5.2587,5.3849,5.5101,5.5792,5.5919,5.5253,5.5385,5.5376,5.5251,5.5222,5.5222,5.5179,5.5192,5.4892,5.4491,5.4329,5.4162,5.3755,5.3725,5.3695,5.3605,5.3456,5.3067,5.2528,5.2336,5.1935,5.1487,5.1265,5.1247,5.1217,5.1217,5.0877,5.0536,5.0387,5.0578,5.1116,5.1038,5.1008,5.0948,5.1068,5.1098,5.1217,5.1158,5.1158,5.1128,5.1038,5.1008,5.1068,5.1116,5.1116,5.1217,5.1217,5.1217,5.1217,5.1217,5.1217,5.1217,5.1217,5.1187,5.1187,5.1217,5.1217,5.1217,5.1217,5.1217,5.1217,5.1217,5.1217,5.1217,5.1217,5.1217,5.1217,5.1217,5.1217,5.1217,5.1217,5.1217,5.1277,5.1277,5.1307,5.1277,5.1217,5.1217,5.1217,5.1217,5.1217,5.1217,5.1217,5.1217,5.1217,5.1217,5.1217,5.1217,5.1217,5.1277,4.9703,4.9625,4.961,4.961,4.9625,4.9729,4.9782,4.9782,4.9912,4.9886,4.9729,4.9311,4.9076,4.8814,4.837,4.8474,4.898,4.9899,5.1305,5.2569,5.3429,5.419,5.5452,5.5863,5.5706,5.5504,5.5771,5.5867,5.5431,5.5222,5.5431,5.5281,5.5311,5.5192,5.5162,5.5042,5.5059,5.4862,5.4803,5.4773,5.4683,5.4251,5.3713,5.3126,5.3037,5.2677,5.2187,5.1995,5.1786,5.1277,5.1217,5.1116,5.0996,5.0966,5.1056,5.1146,5.1217,5.1217,5.1217,5.1217,5.1217,5.1217,5.1217,5.1217,5.1217,5.1247,5.1337,5.1307,5.1277,5.1247,5.1217,5.1217,5.1217,5.1217,5.1217,5.1217,5.1217,5.1217,5.1217,5.1217,5.1217,5.1217,5.1217,5.1217,5.1217,5.1217,5.1217,5.1217,5.1217,5.1217,5.1217,5.1217,5.1217,5.1217,5.1217,5.1217,5.1217,5.1367,5.1397,5.1487,5.1427,5.1277,5.1247,5.1576,5.1457,5.1236,5.1247,5.1307,5.1457,5.1606,5.1457,5.1277,5.1517,5.1768,5.1558,5.0159,4.9912,4.9912,4.9912,4.9965,5.0237,5.0383,5.0409,5.0644,5.0618,5.0252,4.9782,4.9337,4.8997,4.8474,4.8553,4.9313,5.0325,5.1647,5.2825,5.3407,5.4571,5.6009,5.6232,5.6525,5.675,5.7037,5.6808,5.6239,5.6196,5.6107,5.6209,5.6179,5.6179,5.6209,5.6209,5.6149,5.6107,5.588,5.5713,5.5641,5.5059,5.4401,5.3892,5.3695,5.3366,5.2857,5.2707,5.2396,5.1887,5.1738,5.1517,5.1337,5.1247,5.1247,5.1247,5.1247,5.1217,5.1217,5.1217,5.1217,5.1217,5.1247,5.1217,5.1307,5.1487,5.1708,5.1726,5.1696,5.1546,5.1265,5.1277,5.1217,5.1217,5.1217,5.1247,5.1217,5.1217,5.1217,5.1217,5.1217,5.1217,5.1217,5.1217,5.1217,5.1217,5.1217,5.1217,5.1217,5.1217,5.1217,5.1337,5.1367,5.1427,5.1487,5.1546,5.1606,5.1696,5.1756,5.1816,5.1965,5.2007,5.2157,5.2426,5.2097,5.1546,5.1666,5.1846,5.1947,5.2097,5.2187,5.2247,5.2288,5.2258,5.2109,5.067,5.0252,5.0252,5.0237,5.0315,5.0749,5.0943,5.1047,5.1376,5.1309,5.0906,5.0211,4.9714,4.9389,4.8997,4.8904,4.9539,5.0694,5.1882,5.2844,5.3695,5.5095,5.6323,5.7172,5.7302,5.7456,5.8128,5.7859,5.7064,5.6944,5.7034,5.6944,5.7047,5.7107,5.7004,5.6898,5.7094,5.6944,5.6671,5.6372,5.6072,5.5671,5.5059,5.4491,5.4401,5.4072,5.3486,5.3396,5.3037,5.2606,5.2336,5.2157,5.1726,5.1606,5.1606,5.1576,5.1487,5.1397,5.1457,5.1666,5.1828,5.1858,5.1666,5.1636,5.1726,5.2157,5.2396,5.2396,5.2396,5.2247,5.1887,5.1666,5.1666,5.1648,5.1606,5.1427,5.1415,5.1367,5.1217,5.1217,5.1217,5.1247,5.1307,5.1217,5.1217,5.1217,5.1217,5.1217,5.1217,5.1217,5.1247,5.1457,5.1576,5.1696,5.1816,5.1995,5.2157,5.2378,5.2426,5.2486,5.2737,5.2959,5.3067,5.3007,5.2546,5.2127,5.2276,5.2426,5.2516,5.2707,5.3049,5.3079,5.2857,5.2797,5.2737,5.1465,5.1387,5.1387,5.1387,5.1361,5.1439,5.1492,5.1492,5.157,5.157,5.1361,5.0446,5.0159,5.0226,4.9912,5.0043,5.0725,5.172,5.2626,5.3371,5.4431,5.5237,5.5862,5.6764,5.7312,5.779,5.8565,5.8165,5.7573,5.7304,5.7214,5.7244,5.7334,5.7154,5.7393,5.7423,5.7094,5.7124,5.7047,5.6748,5.6299,5.6102,5.5653,5.5251,5.497,5.473,5.4162,5.4042,5.3755,5.3186,5.3067,5.3025,5.2947,5.2989,5.2989,5.2797,5.2486,5.2097,5.2157,5.2468,5.2707,5.2677,5.2767,5.2917,5.2917,5.2905,5.3097,5.3097,5.3097,5.2977,5.2767,5.2857,5.2917,5.2677,5.2336,5.2157,5.2037,5.1917,5.1738,5.1618,5.1768,5.1546,5.1457,5.1307,5.1217,5.1217,5.1217,5.1277,5.1367,5.1517,5.1678,5.1977,5.2097,5.2205,5.2276,5.2456,5.2725,5.3007,5.3097,5.3186,5.3516,5.3695,5.3426,5.3306,5.2965,5.2977,5.3174,5.3276,5.3186,5.3366,5.3695,5.3516,5.3198,5.3228,5.3468,5.1596,5.1596,5.1596,5.1596,5.1596,5.1596,5.1596,5.1596,5.1596,5.1596,5.1465,5.0786,5.0409,5.0357,5.0304,5.054,5.1093,5.2381,5.3197,5.376,5.4811,5.5761,5.6451,5.6976,5.7426,5.8276,5.8714,5.8879,5.8291,5.8171,5.8231,5.8171,5.8201,5.8291,5.8082,5.8201,5.8261,5.8171,5.7872,5.7334,5.6778,5.6402,5.6072,5.576,5.5401,5.5072,5.4832,5.476,5.4431,5.3892,5.3773,5.3563,5.3306,5.3169,5.3169,5.3198,5.3324,5.3144,5.2887,5.3109,5.3228,5.3228,5.3258,5.3318,5.3623,5.3773,5.3773,5.3773,5.3773,5.3635,5.3348,5.3198,5.3198,5.3067,5.2995,5.2875,5.2737,5.2618,5.2468,5.2378,5.2288,5.2127,5.1917,5.1636,5.1546,5.1517,5.1666,5.1858,5.2067,5.2318,5.2498,5.2719,5.2797,5.2815,5.2887,5.2977,5.3324,5.3605,5.3773,5.3922,5.4324,5.4384,5.4144,5.4204,5.4294,5.4294,5.4264,5.4054,5.3862,5.4072,5.4354,5.4174,5.4024,5.4264,5.4443,5.1387,5.1429,5.1544,5.1596,5.1596,5.1596,5.1596,5.1596,5.1596,5.1596,5.1518,5.1152,5.0655,5.0368,5.0753,5.1226,5.1625,5.2897,5.3622,5.4278,5.5223,5.6294,5.7019,5.7468,5.8191,5.9085,5.9018,5.9009,5.9039,5.9009,5.8949,5.9099,5.889,5.8979,5.9069,5.8979,5.8919,5.889,5.8547,5.8008,5.7423,5.6987,5.6539,5.6132,5.573,5.5359,5.5222,5.5192,5.482,5.4581,5.4461,5.4251,5.3935,5.3917,5.3887,5.3935,5.4162,5.4192,5.3905,5.3845,5.3695,5.3695,5.3695,5.4054,5.4341,5.4448,5.4461,5.4448,5.4461,5.4174,5.3875,5.3767,5.3887,5.3815,5.3635,5.3516,5.3396,5.3186,5.2989,5.2827,5.2797,5.2929,5.2648,5.2157,5.1947,5.1858,5.2037,5.2408,5.2707,5.3019,5.3216,5.3366,5.3456,5.3563,5.3815,5.3875,5.4114,5.4162,5.4311,5.4491,5.4803,5.4952,5.4862,5.5042,5.5222,5.5072,5.4713,5.461,5.4538,5.467,5.4803,5.4982,5.5042,5.5222,5.5162,5.0854,5.089,5.1387,5.1596,5.1596,5.1596,5.1596,5.1596,5.1596,5.1596,5.1596,5.1507,5.1209,5.1092,5.1533,5.2264,5.3296,5.3453,5.4352,5.5442,5.6466,5.7132,5.7707,5.8303,5.8866,5.9072,5.9099,5.9099,5.9099,5.9099,5.9099,5.9099,5.9099,5.9099,5.9099,5.9099,5.9099,5.9099,5.8919,5.8623,5.8145,5.7769,5.7304,5.6419,5.6132,5.5863,5.5251,5.5222,5.5162,5.5012,5.4982,5.4982,5.4743,5.4713,5.4713,5.4773,5.4832,5.4862,5.4743,5.4743,5.4952,5.5012,5.4952,5.4832,5.494,5.5072,5.5102,5.4999,5.4952,5.4982,5.4922,5.5012,5.4755,5.4593,5.4311,5.4192,5.3982,5.3665,5.3468,5.3258,5.3348,5.3618,5.3677,5.3276,5.2695,5.2576,5.2845,5.3174,5.3336,5.3618,5.3785,5.3952,5.4102,5.4371,5.4892,5.4952,5.4743,5.4713,5.4803,5.4922,5.5102,5.5222,5.5222,5.5222,5.5222,5.5222,5.5192,5.5012,5.491,5.5102,5.5222,5.5222,5.5222,5.5222,5.5222,5.0252,5.0304,5.0864,5.1282,5.1596,5.1596,5.1596,5.1596,5.1596,5.1596,5.1596,5.1627,5.1931,5.2364,5.2681,5.3453,5.4664,5.553,5.6007,5.675,5.7651,5.8276,5.8648,5.873,5.9085,5.9099,5.9099,5.9099,5.9099,5.9099,5.9099,5.9099,5.9099,5.9099,5.9099,5.9099,5.9099,5.9099,5.9099,5.8906,5.8756,5.8234,5.7679,5.6868,5.6312,5.5893,5.5311,5.5222,5.5222,5.5222,5.5222,5.5222,5.5222,5.5222,5.5222,5.5222,5.5222,5.5222,5.5222,5.5222,5.5222,5.5222,5.5192,5.5222,5.5222,5.5222,5.5222,5.5192,5.5222,5.5222,5.5192,5.5162,5.5102,5.5089,5.4999,5.482,5.461,5.4264,5.4174,5.4097,5.4294,5.4593,5.4563,5.4473,5.3845,5.3324,5.3653,5.3922,5.4054,5.4216,5.4354,5.4461,5.4581,5.467,5.5132,5.5222,5.5222,5.5222,5.5222,5.5222,5.5222,5.5222,5.5222,5.5222,5.5222,5.5222,5.5222,5.5222,5.5222,5.5222,5.5222,5.5222,5.5222,5.5222,5.5222,4.9677,4.9729,5.0289,5.0864,5.1335,5.1518,5.1596,5.1596,5.1596,5.1596,5.1596,5.1643,5.2315,5.3222,5.3498,5.4501,5.5732,5.6679,5.73,5.7929,5.855,5.9058,5.9099,5.9099,5.9099,5.9099,5.9099,5.9099,5.9099,5.9099,5.9099,5.9099,5.9099,5.9099,5.9099,5.9099,5.9099,5.9099,5.9099,5.9099,5.9009,5.8667,5.8115,5.7483,5.7034,5.6568,5.603,5.576,5.5581,5.5504,5.5384,5.5222,5.5222,5.5222,5.5222,5.5222,5.5222,5.5222,5.5222,5.5222,5.5222,5.5222,5.5222,5.5222,5.5222,5.5222,5.5222,5.5222,5.5222,5.5222,5.5222,5.5222,5.5222,5.5149,5.5149,5.5042,5.5042,5.4862,5.4922,5.4952,5.5102,5.5042,5.4982,5.4862,5.4623,5.4174,5.4354,5.4593,5.4713,5.4832,5.4922,5.4982,5.5042,5.5102,5.5222,5.5222,5.5222,5.5222,5.5222,5.5222,5.5222,5.5222,5.5222,5.5222,5.5222,5.5222,5.5222,5.5222,5.5222,5.5222,5.5222,5.5222,5.5222,5.5222,5.5222,4.9102,4.918,4.9703,5.0252,5.0786,5.1361,5.1518,5.1439,5.1518,5.1518,5.1549,5.1637,5.2485,5.3438,5.3814,5.5107,5.6779,5.7244,5.7749,5.8675,5.8907,5.9099,5.9099,5.9099,5.9099,5.9099,5.9099,5.9099,5.9099,5.9099,5.9099,5.9099,5.9099,5.9099,5.9099,5.9099,5.9099,5.9099,5.9099,5.9099,5.9069,5.8966,5.8547,5.8038,5.7799,5.735,5.6765,5.6329,5.6192,5.6132,5.573,5.5521,5.5401,5.5341,5.5311,5.5222,5.5222,5.5222,5.5222,5.5222,5.5222,5.5222,5.5222,5.5222,5.5222,5.5222,5.5222,5.5222,5.5222,5.5222,5.5222,5.5222,5.5222,5.5222,5.5222,5.5222,5.5222,5.5222,5.5222,5.5222,5.5222,5.5192,5.5192,5.5162,5.5162,5.5072,5.5132,5.5222,5.5222,5.5222,5.5222,5.5222,5.5222,5.5222,5.5222,5.5222,5.5222,5.5222,5.5222,5.5222,5.5222,5.5222,5.5222,5.5222,5.5222,5.5222,5.5222,5.5222,5.5222,5.5222,5.5222,5.5222,5.5222,5.5222,5.5222,4.85,4.8567,4.9128,4.9494,4.9755,5.0237,5.0472,5.0524,5.088,5.1073,5.1368,5.2211,5.3586,5.4427,5.4915,5.6007,5.7915,5.7412,5.7887,5.8991,5.9099,5.9099,5.9099,5.9099,5.9099,5.9099,5.9099,5.9099,5.9099,5.9099,5.9099,5.9099,5.9099,5.9099,5.9099,5.9099,5.9099,5.9099,5.9099,5.9099,5.9099,5.9056,5.8786,5.8188,5.8158,5.7859,5.7287,5.6958,5.6838,5.6791,5.6389,5.6209,5.594,5.5863,5.5683,5.5401,5.5251,5.5222,5.5222,5.5222,5.5222,5.5251,5.5222,5.5222,5.5222,5.5222,5.5222,5.5222,5.5222,5.5222,5.5222,5.5222,5.5222,5.5222,5.5222,5.5222,5.5222,5.5222,5.5222,5.5222,5.5222,5.5222,5.5222,5.5222,5.5222,5.5222,5.5222,5.5222,5.5222,5.5222,5.5222,5.5222,5.5222,5.5222,5.5222,5.5222,5.5222,5.5222,5.5222,5.5222,5.5222,5.5222,5.5222,5.5222,5.5222,5.5222,5.5222,5.5222,5.5222,5.5222,5.5222,5.5222,5.5222,5.5222,5.5222,4.8187,4.8239,4.8605,4.8788,4.8919,4.9599,4.9912,5.0017,5.0555,5.099,5.1584,5.2539,5.4084,5.5325,5.579,5.6765,5.8855,5.8358,5.804,5.9085,5.9099,5.9099,5.9099,5.9099,5.9099,5.9099,5.9099,5.9099,5.9099,5.9099,5.9099,5.9099,5.9099,5.9099,5.9099,5.9099,5.9099,5.9099,5.9099,5.9099,5.9099,5.9069,5.8906,5.8607,5.8427,5.8278,5.7872,5.7603,5.7453,5.7393,5.7214,5.6987,5.6628,5.6462,5.6282,5.597,5.588,5.591,5.594,5.597,5.6017,5.5987,5.5521,5.5222,5.5222,5.5222,5.5222,5.5222,5.5222,5.5222,5.5222,5.5222,5.5222,5.5222,5.5222,5.5222,5.5222,5.5222,5.5222,5.5222,5.5222,5.5222,5.5222,5.5222,5.5222,5.5222,5.5222,5.5222,5.5222,5.5222,5.5222,5.5222,5.5222,5.5222,5.5222,5.5222,5.5222,5.5222,5.5222,5.5222,5.5222,5.5222,5.5222,5.5222,5.5222,5.5222,5.5222,5.5222,5.5222,5.5222,5.5222,5.5222,5.5222,5.5222,5.5222,4.8187,4.8187,4.8187,4.8213,4.8396,4.9311,4.9755,4.9871,5.0487,5.1338,5.2377,5.1828,5.3682,5.6266,5.5862,5.6836,5.8552,5.8771,5.8866,5.9031,5.9099,5.9099,5.9099,5.9099,5.9099,5.9099,5.9099,5.9099,5.9099,5.9099,5.9099,5.9099,5.9099,5.9099,5.9099,5.9099,5.9099,5.9099,5.9099,5.9099,5.9099,5.9099,5.9039,5.8919,5.889,5.889,5.865,5.8411,5.8218,5.7979,5.7603,5.7334,5.7154,5.7124,5.7124,5.7034,5.6958,5.6898,5.6855,5.6795,5.6825,5.6615,5.597,5.5491,5.5311,5.5401,5.5371,5.5251,5.5222,5.5222,5.5222,5.5222,5.5222,5.5222,5.5222,5.5222,5.5222,5.5222,5.5222,5.5222,5.5222,5.5222,5.5222,5.5222,5.5222,5.5222,5.5222,5.5222,5.5222,5.5222,5.5222,5.5222,5.5222,5.5222,5.5222,5.5222,5.5222,5.5222,5.5222,5.5222,5.5222,5.5222,5.5222,5.5222,5.5222,5.5222,5.5222,5.5222,5.5222,5.5222,5.5222,5.5222,5.5222,5.5222,5.5222,4.8187,4.8187,4.8187,4.8187,4.8239,4.8553,4.8683,4.8814,4.9688,5.0435,5.0775,5.2322,5.4131,5.5776,5.5572,5.7034,5.7944,5.8399,5.8509,5.8743,5.9099,5.9099,5.9099,5.9099,5.9099,5.9099,5.9099,5.9099,5.9099,5.9099,5.9099,5.9099,5.9099,5.9099,5.9099,5.9099,5.9099,5.9099,5.9099,5.9099,5.9099,5.9099,5.9099,5.9099,5.9099,5.9099,5.8979,5.8919,5.877,5.868,5.862,5.8381,5.7829,5.7799,5.7709,5.7154,5.7064,5.7064,5.7094,5.7124,5.7184,5.7274,5.6765,5.6359,5.6072,5.5893,5.573,5.5611,5.5491,5.5521,5.5431,5.5371,5.5281,5.5222,5.5222,5.5222,5.5222,5.5222,5.5222,5.5222,5.5222,5.5222,5.5222,5.5222,5.5222,5.5222,5.5222,5.5251,5.5251,5.5251,5.5222,5.5222,5.5222,5.5222,5.5222,5.5222,5.5222,5.5222,5.5222,5.5222,5.5222,5.5222,5.5222,5.5222,5.5222,5.5222,5.5222,5.5222,5.5222,5.5222,5.5222,5.5222,5.5222,5.5222,5.5222,4.8187,4.8187,4.8187,4.8187,4.8187,4.8187,4.8187,4.8396,4.9416,5.0112,5.0859,5.2634,5.4429,5.6064,5.6308,5.7217,5.8896,5.8593,5.8536,5.8879,5.9099,5.9099,5.9099,5.9099,5.9099,5.9099,5.9099,5.9099,5.9099,5.9099,5.9099,5.9099,5.9099,5.9099,5.9099,5.9099,5.9099,5.9099,5.9099,5.9099,5.9099,5.9099,5.9099,5.9099,5.9099,5.9099,5.9099,5.9099,5.9099,5.9099,5.9099,5.8949,5.8517,5.8487,5.8441,5.7992,5.7992,5.8022,5.8038,5.7979,5.7932,5.7872,5.7812,5.7543,5.7064,5.6735,5.6449,5.6209,5.606,5.594,5.576,5.5581,5.5401,5.5251,5.5222,5.5222,5.5222,5.5222,5.5222,5.5222,5.5222,5.5222,5.5222,5.5222,5.5222,5.5222,5.5311,5.5431,5.5401,5.5384,5.5281,5.5222,5.5222,5.5222,5.5251,5.5371,5.5371,5.5341,5.5222,5.5222,5.5222,5.5251,5.5311,5.5251,5.5222,5.5281,5.5401,5.5251,5.5222,5.5281,5.5371,5.5311,5.5281,5.5222,5.5222,4.8187,4.8187,4.8187,4.8187,4.8187,4.8187,4.8187,4.8344,4.9416,5.0517,5.161,5.2908,5.4725,5.6251,5.6792,5.7707,5.8771,5.8896,5.8784,5.9099,5.9099,5.9099,5.9099,5.9099,5.9099,5.9099,5.9099,5.9099,5.9099,5.9099,5.9099,5.9099,5.9099,5.9159,5.9338,5.9338,5.9368,5.9398,5.9352,5.9322,5.9159,5.9099,5.9099,5.9099,5.9099,5.9099,5.9099,5.9099,5.9099,5.9099,5.9099,5.9069,5.9039,5.8996,5.8979,5.8949,5.88,5.88,5.877,5.874,5.886,5.8919,5.9069,5.8577,5.8008,5.7483,5.7094,5.6735,5.6585,5.6479,5.6329,5.6239,5.609,5.594,5.588,5.588,5.588,5.588,5.588,5.588,5.585,5.585,5.585,5.591,5.597,5.5611,5.5611,5.585,5.585,5.5803,5.573,5.5611,5.57,5.582,5.579,5.585,5.5671,5.5551,5.5491,5.5611,5.588,5.57,5.5401,5.5641,5.591,5.5658,5.5628,5.57,5.576,5.576,5.576,5.5521,5.5461,5.5521,5.5311,4.8187,4.8187,4.8187,4.8187,4.8187,4.8187,4.8187,4.8317,4.9416,5.0097,5.0729,5.2587,5.4412,5.6007,5.7076,5.804,5.8866,5.9099,5.9099,5.9099,5.9099,5.9099,5.9099,5.9099,5.9099,5.9099,5.9099,5.9099,5.9099,5.9099,5.9099,5.9099,5.9159,5.9368,5.9727,5.9787,5.9847,5.9847,5.9741,5.9591,5.9368,5.9189,5.9099,5.9129,5.9129,5.9159,5.9129,5.9129,5.9099,5.9099,5.9099,5.9099,5.9099,5.9099,5.9099,5.9099,5.9099,5.9099,5.9099,5.9099,5.9099,5.9099,5.9099,5.8996,5.8697,5.8158,5.7709,5.7363,5.7154,5.7077,5.6958,5.6898,5.6778,5.6645,5.6526,5.6526,5.6526,5.6539,5.6539,5.6568,5.6555,5.6526,5.6496,5.6555,5.6615,5.6645,5.6675,5.6765,5.6765,5.6748,5.6808,5.6718,5.6645,5.6675,5.6526,5.6376,5.6226,5.6316,5.6406,5.6496,5.6526,5.6376,5.6209,5.6539,5.6718,5.6406,5.6316,5.6615,5.6645,5.6406,5.6346,5.6196,5.6346,5.6436,5.5927,4.7806,4.7832,4.8094,4.8187,4.8187,4.8187,4.8187,4.837,4.9154,5.0022,5.1038,5.3199,5.5018,5.6251,5.7498,5.8221,5.9045,5.9099,5.9099,5.9099,5.9099,5.9099,5.9099,5.9099,5.9099,5.9099,5.9099,5.9099,5.9099,5.9099,5.9099,5.9189,5.9338,5.9727,6.019,6.0326,6.0535,6.0535,6.031,6.007,5.9757,5.9518,5.9398,5.9368,5.9338,5.9338,5.9368,5.9308,5.9129,5.9099,5.9099,5.9099,5.9099,5.9099,5.9099,5.9099,5.9099,5.9099,5.9159,5.9189,5.9219,5.9219,5.9129,5.9069,5.9026,5.8577,5.8547,5.8231,5.8231,5.8141,5.7723,5.7573,5.7244,5.7034,5.6915,5.6855,5.6855,5.6855,5.6855,5.6855,5.6855,5.6855,5.6855,5.6855,5.6915,5.6928,5.7077,5.7423,5.7453,5.7573,5.7663,5.7663,5.7543,5.7214,5.6885,5.6855,5.6855,5.7034,5.7244,5.7064,5.6944,5.7004,5.7064,5.7214,5.7214,5.7004,5.7034,5.7274,5.7154,5.6825,5.6885,5.6974,5.7154,5.7274,5.6795,4.7255,4.7385,4.7844,4.8134,4.8187,4.8187,4.8187,4.8317,4.8855,5.0265,5.2122,5.4245,5.5922,5.7272,5.8454,5.8882,5.9099,5.9099,5.9099,5.9099,5.9099,5.9099,5.9099,5.9099,5.9099,5.9099,5.9099,5.9099,5.9099,5.9249,5.9398,5.9398,5.9801,6.031,6.0505,6.0835,6.121,6.1134,6.0954,6.0775,6.0386,5.9967,5.9891,5.9801,5.9757,5.9714,5.9847,5.9787,5.9428,5.9458,5.9578,5.9638,5.9638,5.9668,5.9608,5.9638,5.9668,5.9624,5.9564,5.9624,5.9564,5.9444,5.9308,5.9249,5.9249,5.9129,5.9099,5.9039,5.9039,5.886,5.8427,5.8128,5.7812,5.7603,5.7483,5.7423,5.7423,5.7423,5.7393,5.7393,5.7393,5.7393,5.7393,5.7363,5.7363,5.7347,5.7453,5.7782,5.8038,5.8188,5.8321,5.8291,5.8171,5.7812,5.7513,5.7513,5.7633,5.7752,5.7902,5.7586,5.7436,5.7723,5.7812,5.7633,5.7573,5.7633,5.7633,5.7782,5.7573,5.7423,5.7663,5.7872,5.7812,5.7872,5.7663,4.6917,4.7319,4.7452,4.7754,4.8134,4.8187,4.8187,4.8277,4.8858,5.0622,5.2903,5.4146,5.5581,5.7271,5.8539,5.9072,5.9085,5.9031,5.9058,5.9099,5.8909,5.8991,5.9099,5.9099,5.9099,5.9099,5.9099,5.9129,5.9338,5.9668,5.9921,5.9951,6.0581,6.1134,6.1657,6.1882,6.1882,6.1792,6.1672,6.1523,6.097,6.0625,6.0489,6.0565,6.0791,6.0791,6.0821,6.0791,6.0731,6.0701,6.0625,6.0551,6.0521,6.0462,6.0432,6.0372,6.0402,6.0432,6.0402,6.0402,6.0342,6.0372,6.0236,5.9907,5.9757,5.9368,5.9308,5.9189,5.9159,5.9099,5.88,5.88,5.859,5.859,5.853,5.8501,5.8501,5.8501,5.8501,5.8501,5.8501,5.8501,5.8501,5.8471,5.8471,5.8454,5.8424,5.868,5.862,5.88,5.8906,5.883,5.868,5.886,5.874,5.8501,5.856,5.862,5.859,5.8351,5.8351,5.868,5.868,5.8351,5.8441,5.862,5.859,5.8291,5.8441,5.8441,5.868,5.88,5.865,5.8501,5.8291]}]]